[[{"header":{"parameterUnit":"m.s-1","parameterCategory":1,"la1":30.6,"la2":29.2853,"lo1":-89.7004,"lo2":-87.6739,"dy":0.0162,"dx":0.0183,"nx":112,"ny":82,"refTime":"2023-08-26T00:00:00:Z","depth":0,"parameterNumber":2,"parameterNumberName":"U-component_of_WINDS"},"data":[0.0,0.0,0.0,0.0,0.0,0.0,0.0,0.0,0.0,0.0,0.0,0.0,0.0,0.0,0.0,0.0,0.0,0.0,0.0,0.0,0.0,0.0,0.0,0.0,0.0,0.0,0.0,0.0,0.0,0.0,0.0,0.0,0.0,0.0,0.0,0.0,0.0,0.0,0.0,0.0,0.0,0.0,0.0,0.0,0.0,0.0,0.0,0.0,0.0,0.0,0.0,0.0,0.0,0.0,0.0,0.0,0.0,0.0,0.0,0.0,0.0,0.0,0.0,0.0,0.0,0.0,0.0,0.0,0.0,0.0,0.0,0.0,0.0,0.0,0.0,0.0,0.0,0.0,0.0,0.0,0.0,0.0,0.0,0.0,0.0,0.0,0.0,0.0,0.0,0.0,-4.0455,-4.0575,-4.0882,-4.1064,-4.1011,-4.1015,-4.1004,-4.0991,0.0,0.0,0.0,0.0,0.0,0.0,0.0,0.0,0.0,0.0,0.0,0.0,0.0,0.0,0.0,0.0,0.0,0.0,0.0,0.0,0.0,0.0,0.0,0.0,0.0,0.0,0.0,0.0,0.0,0.0,0.0,0.0,0.0,0.0,0.0,0.0,0.0,0.0,0.0,0.0,0.0,0.0,0.0,0.0,0.0,0.0,0.0,0.0,0.0,0.0,0.0,0.0,0.0,0.0,0.0,0.0,0.0,0.0,0.0,0.0,0.0,0.0,0.0,0.0,0.0,0.0,0.0,0.0,0.0,0.0,0.0,0.0,0.0,0.0,0.0,0.0,0.0,0.0,0.0,0.0,0.0,0.0,0.0,0.0,0.0,0.0,0.0,0.0,0.0,0.0,0.0,0.0,0.0,0.0,0.0,0.0,0.0,0.0,0.0,0.0,0.0,0.0,0.0,0.0,-4.0562,-4.0964,-4.1007,-4.103,-4.1074,-4.1021,-4.0991,-4.0996,0.0,0.0,0.0,0.0,0.0,0.0,0.0,0.0,0.0,0.0,0.0,0.0,0.0,0.0,0.0,0.0,0.0,0.0,0.0,0.0,0.0,0.0,0.0,0.0,0.0,0.0,0.0,0.0,0.0,0.0,0.0,0.0,0.0,0.0,0.0,0.0,0.0,0.0,0.0,0.0,0.0,0.0,0.0,0.0,0.0,0.0,0.0,0.0,0.0,0.0,0.0,0.0,0.0,0.0,0.0,0.0,0.0,0.0,0.0,0.0,0.0,0.0,0.0,0.0,0.0,0.0,0.0,0.0,0.0,0.0,0.0,0.0,0.0,0.0,0.0,0.0,0.0,0.0,0.0,0.0,0.0,0.0,0.0,0.0,0.0,0.0,0.0,0.0,0.0,0.0,0.0,0.0,0.0,0.0,0.0,0.0,0.0,0.0,0.0,0.0,0.0,0.0,0.0,-4.0481,-4.077,-4.102,-4.1053,-4.1053,-4.1049,-4.0972,-4.094,-4.0956,-4.0885,0.0,0.0,0.0,0.0,0.0,0.0,0.0,0.0,0.0,0.0,0.0,0.0,0.0,0.0,0.0,0.0,0.0,0.0,0.0,0.0,0.0,0.0,0.0,0.0,0.0,0.0,0.0,0.0,0.0,0.0,0.0,0.0,0.0,0.0,0.0,0.0,0.0,0.0,0.0,0.0,0.0,0.0,0.0,0.0,0.0,0.0,0.0,0.0,0.0,0.0,0.0,0.0,0.0,0.0,0.0,0.0,0.0,0.0,0.0,0.0,0.0,0.0,0.0,0.0,0.0,0.0,0.0,0.0,0.0,0.0,0.0,0.0,0.0,0.0,0.0,0.0,0.0,0.0,0.0,0.0,0.0,0.0,0.0,0.0,0.0,0.0,0.0,0.0,0.0,0.0,0.0,0.0,0.0,0.0,0.0,0.0,0.0,0.0,0.0,0.0,0.0,0.0,-4.0915,-4.0947,-4.1016,-4.1051,-4.1054,-4.1009,-4.0929,-4.0887,-4.0877,-4.08,0.0,0.0,0.0,0.0,0.0,0.0,0.0,0.0,0.0,0.0,0.0,0.0,0.0,0.0,0.0,0.0,0.0,0.0,0.0,0.0,0.0,0.0,0.0,0.0,0.0,0.0,0.0,0.0,0.0,0.0,0.0,0.0,0.0,0.0,0.0,0.0,0.0,0.0,0.0,0.0,0.0,0.0,0.0,0.0,0.0,0.0,0.0,0.0,0.0,0.0,0.0,0.0,0.0,0.0,0.0,0.0,0.0,0.0,0.0,0.0,0.0,0.0,0.0,0.0,0.0,0.0,0.0,0.0,0.0,0.0,0.0,0.0,0.0,0.0,0.0,0.0,0.0,0.0,0.0,0.0,0.0,0.0,0.0,0.0,0.0,0.0,0.0,0.0,0.0,0.0,0.0,0.0,0.0,0.0,0.0,0.0,0.0,0.0,0.0,0.0,0.0,0.0,-4.0947,-4.1026,-4.1085,-4.1049,-4.1015,-4.0991,-4.0936,-4.0858,-4.0812,-4.073,0.0,0.0,0.0,0.0,0.0,0.0,0.0,0.0,0.0,0.0,0.0,0.0,0.0,0.0,0.0,0.0,0.0,0.0,0.0,0.0,0.0,0.0,0.0,0.0,0.0,0.0,0.0,0.0,0.0,0.0,0.0,0.0,0.0,0.0,0.0,0.0,0.0,0.0,0.0,0.0,0.0,0.0,0.0,0.0,0.0,0.0,0.0,0.0,0.0,0.0,0.0,0.0,0.0,0.0,0.0,0.0,0.0,0.0,0.0,0.0,0.0,0.0,0.0,0.0,0.0,0.0,0.0,0.0,0.0,0.0,0.0,0.0,0.0,0.0,0.0,0.0,0.0,0.0,0.0,0.0,0.0,0.0,0.0,0.0,0.0,0.0,0.0,0.0,0.0,0.0,0.0,0.0,0.0,0.0,0.0,0.0,0.0,0.0,0.0,0.0,0.0,0.0,-4.0963,-4.1016,-4.1025,-4.1025,-4.0987,-4.0941,-4.0888,-4.0837,-4.0807,0.0,0.0,0.0,0.0,0.0,0.0,0.0,0.0,0.0,0.0,0.0,0.0,0.0,0.0,0.0,0.0,0.0,0.0,0.0,0.0,0.0,0.0,0.0,0.0,0.0,0.0,0.0,0.0,0.0,0.0,0.0,0.0,0.0,0.0,0.0,0.0,0.0,0.0,0.0,0.0,0.0,0.0,0.0,0.0,0.0,0.0,0.0,0.0,0.0,0.0,0.0,0.0,0.0,0.0,0.0,0.0,0.0,0.0,0.0,0.0,0.0,0.0,0.0,0.0,0.0,0.0,0.0,0.0,0.0,0.0,0.0,0.0,0.0,0.0,0.0,0.0,0.0,0.0,0.0,0.0,0.0,0.0,0.0,0.0,0.0,0.0,0.0,0.0,0.0,0.0,0.0,0.0,0.0,0.0,0.0,0.0,0.0,0.0,0.0,0.0,0.0,0.0,-4.0875,-4.0986,-4.1026,-4.1006,-4.099,-4.0972,-4.0912,-4.0842,-4.0807,-4.0807,0.0,0.0,0.0,0.0,0.0,0.0,0.0,0.0,0.0,0.0,0.0,0.0,0.0,0.0,0.0,0.0,0.0,0.0,0.0,0.0,0.0,0.0,0.0,0.0,0.0,0.0,0.0,0.0,0.0,0.0,0.0,0.0,0.0,0.0,0.0,0.0,0.0,0.0,0.0,0.0,0.0,0.0,0.0,0.0,0.0,0.0,0.0,0.0,0.0,0.0,0.0,0.0,0.0,0.0,0.0,0.0,0.0,0.0,0.0,0.0,0.0,0.0,0.0,0.0,0.0,0.0,0.0,0.0,0.0,0.0,0.0,0.0,0.0,0.0,0.0,0.0,0.0,0.0,0.0,0.0,0.0,0.0,0.0,0.0,0.0,0.0,0.0,0.0,0.0,0.0,0.0,0.0,0.0,0.0,0.0,0.0,0.0,0.0,0.0,0.0,0.0,0.0,-4.0901,-4.1016,-4.1074,-4.1016,-4.099,-4.0972,-4.0912,-4.0842,-4.0807,0.0,0.0,0.0,0.0,0.0,0.0,0.0,0.0,0.0,0.0,0.0,0.0,0.0,0.0,0.0,0.0,0.0,0.0,0.0,0.0,0.0,0.0,0.0,0.0,0.0,0.0,0.0,0.0,0.0,0.0,0.0,0.0,0.0,0.0,0.0,0.0,0.0,0.0,0.0,0.0,0.0,0.0,0.0,0.0,0.0,0.0,0.0,0.0,0.0,0.0,0.0,0.0,0.0,0.0,0.0,0.0,0.0,0.0,0.0,0.0,0.0,0.0,0.0,0.0,0.0,0.0,0.0,0.0,0.0,0.0,0.0,0.0,0.0,0.0,0.0,0.0,0.0,0.0,0.0,0.0,0.0,0.0,0.0,0.0,0.0,0.0,0.0,0.0,0.0,0.0,0.0,0.0,0.0,0.0,0.0,0.0,0.0,0.0,0.0,0.0,0.0,0.0,0.0,-4.0902,-4.1013,-4.1067,-4.1002,-4.0991,-4.096,-4.0912,-4.0842,-4.0818,-4.0872,0.0,0.0,0.0,0.0,0.0,0.0,0.0,0.0,0.0,0.0,0.0,0.0,0.0,0.0,0.0,0.0,0.0,0.0,0.0,0.0,0.0,0.0,0.0,0.0,0.0,0.0,0.0,0.0,0.0,0.0,0.0,0.0,0.0,0.0,0.0,0.0,0.0,0.0,0.0,0.0,0.0,0.0,0.0,0.0,0.0,0.0,0.0,0.0,0.0,0.0,0.0,0.0,0.0,0.0,0.0,0.0,0.0,0.0,0.0,0.0,0.0,0.0,0.0,0.0,0.0,0.0,0.0,0.0,0.0,0.0,0.0,0.0,0.0,0.0,0.0,0.0,0.0,0.0,0.0,0.0,0.0,0.0,0.0,0.0,0.0,0.0,0.0,0.0,0.0,0.0,0.0,0.0,0.0,0.0,0.0,0.0,0.0,0.0,0.0,0.0,0.0,0.0,-4.0945,-4.1024,-4.1073,-4.1003,-4.0996,-4.0967,-4.0912,-4.0842,-4.0776,-4.0742,0.0,0.0,0.0,0.0,0.0,0.0,0.0,0.0,0.0,0.0,0.0,0.0,0.0,0.0,0.0,0.0,0.0,0.0,0.0,0.0,0.0,0.0,0.0,0.0,0.0,0.0,0.0,0.0,0.0,0.0,0.0,0.0,0.0,0.0,0.0,0.0,0.0,0.0,0.0,0.0,0.0,0.0,0.0,0.0,0.0,0.0,0.0,0.0,0.0,0.0,0.0,0.0,0.0,0.0,0.0,0.0,0.0,0.0,0.0,0.0,0.0,0.0,0.0,0.0,0.0,0.0,0.0,0.0,0.0,0.0,0.0,0.0,0.0,0.0,0.0,0.0,0.0,0.0,0.0,0.0,0.0,0.0,0.0,0.0,0.0,0.0,0.0,0.0,0.0,0.0,0.0,0.0,0.0,0.0,0.0,0.0,0.0,0.0,0.0,0.0,0.0,0.0,-4.0976,-4.1052,-4.1067,-4.0996,-4.0988,-4.0963,-4.0912,-4.0842,-4.0717,-4.0524,0.0,0.0,0.0,0.0,0.0,0.0,0.0,0.0,0.0,0.0,0.0,0.0,0.0,0.0,0.0,0.0,0.0,0.0,0.0,0.0,0.0,0.0,0.0,0.0,0.0,0.0,0.0,0.0,0.0,0.0,0.0,0.0,0.0,0.0,0.0,0.0,0.0,0.0,0.0,0.0,0.0,0.0,0.0,0.0,0.0,0.0,0.0,0.0,0.0,0.0,0.0,0.0,0.0,0.0,0.0,0.0,0.0,0.0,0.0,0.0,-4.3974,-4.3989,0.0,0.0,0.0,0.0,0.0,0.0,0.0,0.0,0.0,0.0,0.0,0.0,0.0,0.0,0.0,0.0,0.0,0.0,0.0,0.0,0.0,0.0,0.0,0.0,0.0,0.0,0.0,0.0,0.0,0.0,0.0,0.0,0.0,0.0,0.0,0.0,0.0,0.0,0.0,0.0,-4.0935,-4.0975,-4.0997,-4.0935,-4.0921,-4.0917,-4.0898,-4.0839,-4.0748,-4.0597,-4.0568,0.0,0.0,0.0,0.0,0.0,0.0,0.0,0.0,0.0,0.0,0.0,0.0,0.0,0.0,0.0,0.0,0.0,0.0,0.0,0.0,0.0,0.0,0.0,0.0,0.0,0.0,0.0,0.0,0.0,0.0,0.0,0.0,0.0,0.0,0.0,0.0,0.0,0.0,0.0,0.0,0.0,0.0,0.0,0.0,0.0,0.0,0.0,0.0,0.0,0.0,0.0,0.0,0.0,0.0,0.0,0.0,0.0,0.0,0.0,-4.3939,-4.4005,0.0,0.0,0.0,0.0,0.0,0.0,0.0,0.0,0.0,0.0,0.0,0.0,0.0,0.0,0.0,0.0,0.0,0.0,0.0,0.0,0.0,0.0,0.0,0.0,0.0,0.0,0.0,0.0,0.0,0.0,0.0,0.0,0.0,0.0,0.0,0.0,0.0,0.0,0.0,0.0,-4.1006,-4.0998,-4.099,-4.0948,-4.0921,-4.0893,-4.0853,-4.079,-4.0643,-4.0372,-4.0391,0.0,0.0,0.0,0.0,0.0,0.0,0.0,0.0,0.0,0.0,0.0,0.0,0.0,0.0,0.0,0.0,0.0,0.0,0.0,0.0,0.0,0.0,0.0,0.0,0.0,0.0,0.0,0.0,0.0,0.0,0.0,0.0,0.0,0.0,0.0,0.0,0.0,0.0,0.0,0.0,0.0,0.0,0.0,0.0,0.0,0.0,0.0,0.0,0.0,0.0,0.0,0.0,0.0,-4.2595,-4.2769,-4.2865,-4.3355,-4.3631,-4.3679,-4.3892,-4.4005,-4.4005,-4.4005,0.0,0.0,0.0,0.0,0.0,0.0,0.0,0.0,0.0,0.0,0.0,0.0,0.0,0.0,0.0,0.0,0.0,0.0,0.0,0.0,0.0,0.0,-4.0932,-4.0925,-4.0971,-4.1008,-4.0958,0.0,0.0,0.0,0.0,0.0,0.0,0.0,0.0,0.0,0.0,0.0,-4.1093,-4.1052,-4.1003,-4.1,-4.0935,-4.0859,-4.0829,-4.0725,-4.0514,-4.0167,-4.0221,-4.0148,0.0,0.0,0.0,0.0,0.0,0.0,0.0,0.0,0.0,0.0,0.0,0.0,0.0,0.0,0.0,0.0,0.0,0.0,0.0,0.0,0.0,0.0,0.0,0.0,0.0,0.0,0.0,0.0,0.0,0.0,0.0,0.0,-3.2761,-3.3332,0.0,0.0,0.0,0.0,0.0,0.0,0.0,0.0,0.0,0.0,0.0,0.0,0.0,-4.2145,-4.1938,-4.2166,-4.2412,-4.2653,-4.2692,-4.2977,-4.3477,-4.3562,-4.373,-4.3958,-4.3971,0.0,-4.4005,-4.4005,0.0,0.0,0.0,0.0,0.0,0.0,0.0,0.0,0.0,0.0,0.0,0.0,0.0,0.0,0.0,0.0,0.0,0.0,0.0,0.0,0.0,0.0,-4.1066,-4.1072,-4.1081,-4.1086,-4.1074,-4.0977,-4.0891,-4.0889,-4.0889,-4.0886,0.0,0.0,0.0,0.0,0.0,0.0,-4.1099,-4.1081,-4.1067,-4.1003,-4.0882,-4.0825,-4.0874,-4.0662,-4.0477,-4.038,-4.0166,-4.0013,-3.9992,-3.995,0.0,0.0,0.0,0.0,0.0,0.0,0.0,0.0,0.0,0.0,0.0,0.0,0.0,0.0,0.0,0.0,0.0,0.0,0.0,0.0,0.0,0.0,0.0,0.0,0.0,0.0,0.0,0.0,0.0,-3.2295,-3.2981,-3.3437,-3.4442,-3.54,0.0,0.0,0.0,0.0,0.0,0.0,0.0,0.0,0.0,-4.11,-4.1635,-4.1995,-4.2124,-4.2246,-4.2369,-4.2474,-4.2825,-4.3124,-4.3392,-4.3681,-4.3876,-4.4005,-4.4005,-4.4005,-4.4005,-4.4005,-4.4005,-4.4005,0.0,0.0,0.0,0.0,-4.4865,-4.5088,-4.4879,-4.4357,-4.3706,-4.3373,0.0,0.0,0.0,0.0,0.0,0.0,0.0,-4.085,-4.0942,-4.0996,-4.1049,-4.1085,-4.1092,-4.1094,-4.1092,-4.1054,-4.0995,-4.0964,-4.1352,-4.1525,-4.1041,-4.0977,0.0,0.0,0.0,-4.11,-4.1091,-4.109,-4.1083,-4.1058,-4.098,-4.0864,-4.0743,-4.0617,-4.0458,-4.0251,-4.012,-4.001,-3.9948,-4.005,-4.0214,0.0,0.0,0.0,0.0,0.0,0.0,0.0,0.0,0.0,0.0,0.0,0.0,0.0,0.0,0.0,0.0,0.0,0.0,0.0,0.0,0.0,0.0,0.0,0.0,0.0,0.0,0.0,0.0,-3.2318,-3.2946,-3.3276,-3.4375,-3.535,0.0,0.0,0.0,0.0,0.0,0.0,-3.9242,-3.9961,-4.0621,-4.1123,-4.1453,-4.1784,-4.2187,-4.2205,-4.2269,-4.2412,-4.2862,-4.3142,-4.3322,-4.3714,-4.3942,-4.4005,-4.4005,-4.4005,-4.4005,-4.4005,-4.4005,-4.4005,-4.4005,-4.4151,-4.4364,-4.4314,-4.4547,-4.4805,-4.4119,-4.347,-4.2897,-4.2943,-4.197,-4.0913,-4.1506,0.0,0.0,0.0,0.0,-4.0877,-4.0976,-4.101,-4.1047,-4.1093,-4.1093,-4.1108,-4.1108,-4.1275,-4.135,-4.1074,-4.1543,-4.1797,-4.113,-4.1033,0.0,-4.1091,-4.1103,-4.1098,-4.1097,-4.1099,-4.11,-4.1093,-4.1026,-4.0909,-4.0721,-4.0623,-4.0485,-4.0251,-4.0148,-4.0046,-3.9962,-4.0118,-4.0224,-4.0307,0.0,0.0,0.0,0.0,0.0,0.0,0.0,0.0,0.0,0.0,0.0,0.0,0.0,0.0,0.0,0.0,0.0,0.0,0.0,0.0,0.0,0.0,0.0,0.0,0.0,0.0,0.0,0.0,0.0,-3.2739,-3.4036,0.0,0.0,0.0,0.0,-3.7886,-3.8234,-3.8722,-3.9358,-3.98,-4.0326,-4.099,-4.1391,-4.1697,-4.1917,-4.1917,-4.219,-4.2692,-4.2711,-4.3032,-4.358,-4.3614,-4.3763,-4.4005,-4.4005,-4.4005,-4.4005,-4.4005,-4.4005,-4.4005,-4.4005,-4.402,-4.3998,-4.3806,-4.3756,-4.3732,-4.3443,-4.2769,-4.2067,-4.2067,-4.1487,-4.0816,-4.0855,-4.0879,0.0,0.0,-4.089,-4.098,-4.1008,-4.1054,-4.1091,-4.1098,-4.1093,-4.1091,-4.1091,-4.1753,-4.2084,-4.1267,-4.1132,-4.1153,-4.11,0.0,-4.11,-4.1099,-4.1099,-4.1097,-4.1091,-4.1108,-4.1101,-4.1096,-4.0977,-4.0932,-4.0981,-4.0684,-4.0535,-4.0565,-4.0285,-4.0106,-4.0096,-3.9975,-4.0029,-4.0307,-4.0325,0.0,0.0,0.0,0.0,0.0,0.0,0.0,0.0,0.0,0.0,0.0,0.0,0.0,0.0,0.0,0.0,0.0,0.0,0.0,0.0,0.0,0.0,0.0,0.0,0.0,0.0,0.0,0.0,-3.3157,-3.4528,0.0,-3.5576,-3.6692,-3.7447,-3.7565,-3.8331,-3.8887,-3.9142,-3.9532,-4.0053,-4.0737,-4.0879,-4.1214,-4.1697,-4.1849,-4.2002,-4.2192,-4.2536,-4.2808,-4.3032,-4.3425,-4.3664,-4.3763,-4.3942,-4.4005,-4.4005,-4.4005,-4.4005,-4.3949,-4.3429,-4.3353,-4.3473,-4.2949,-4.2895,-4.3053,-4.2518,-4.2186,-4.1918,-4.1403,-4.1029,-4.0797,-4.0797,-4.0818,-4.084,-4.0867,-4.0936,-4.1015,-4.1054,-4.109,-4.1098,-4.1091,-4.1109,-4.1109,-4.1109,-4.1343,-4.1479,-4.1168,-4.1557,-4.1755,-4.1196,-4.1095,-4.1094,-4.1098,-4.1095,-4.1093,-4.1109,-4.1109,-4.1106,-4.1099,-4.1054,-4.1006,-4.0942,-4.0751,-4.061,-4.0537,-4.0328,-4.0225,-4.0234,-4.0176,-4.0196,-4.0291,-4.0351,-4.0466,0.0,0.0,0.0,0.0,0.0,0.0,0.0,0.0,0.0,0.0,0.0,0.0,0.0,0.0,0.0,0.0,0.0,0.0,0.0,0.0,0.0,0.0,0.0,0.0,0.0,-3.2114,-3.2733,-3.2995,-3.4293,-3.5219,-3.5415,-3.6384,-3.7058,-3.7254,-3.789,-3.8264,-3.8264,-3.8514,-3.8882,-3.934,-3.96,-3.9996,-4.0533,-4.0797,-4.099,-4.1138,-4.1471,-4.1746,-4.1936,-4.2268,-4.2548,-4.2785,-4.2899,-4.3045,-4.3206,-4.3485,-4.3596,-4.354,-4.3002,-4.2924,-4.3023,-4.2071,-4.1941,-4.2154,-4.1609,-4.1496,-4.1512,-4.0958,-4.0797,-4.0797,-4.0797,-4.0812,-4.0842,-4.088,-4.0959,-4.1033,-4.1091,-4.1099,-4.1109,-4.1109,-4.1109,-4.1109,-4.1109,-4.1104,-4.1099,-4.1099,-4.1573,-4.1773,-4.1193,-4.1093,-4.1091,-4.1095,-4.1093,-4.1109,-4.1109,-4.1109,-4.1109,-4.1109,-4.1097,-4.1059,-4.0975,-4.0835,-4.0718,-4.0578,-4.0442,-4.0351,-4.031,-4.0345,-4.037,-4.037,-4.0427,-4.0487,-4.0531,0.0,0.0,0.0,0.0,0.0,0.0,0.0,0.0,0.0,0.0,0.0,0.0,0.0,0.0,0.0,0.0,0.0,0.0,0.0,0.0,0.0,0.0,0.0,-3.0815,-3.1576,-3.2037,-3.2074,-3.322,-3.425,-3.4784,-3.5612,-3.6368,-3.6876,-3.6825,-3.6754,-3.6754,-3.6845,-3.6874,-3.69,-3.7663,-3.8184,-3.8391,-3.8777,-3.9182,-3.958,-3.9582,-3.9857,-4.0365,-4.0181,-4.0491,-4.1167,-4.0969,-4.1183,-4.1664,-4.2445,-4.276,-4.276,-4.2797,-4.2797,-4.2638,-4.1327,-4.0955,-4.1056,-4.08,-4.0759,-4.0797,-4.0797,-4.0797,-4.0797,-4.0797,-4.0854,-4.09,-4.0898,-4.0992,-4.1098,-4.1091,-4.1109,-4.1109,-4.1109,-4.1109,-4.1109,-4.1108,-4.1092,-4.1093,-4.1093,-4.1094,-4.1108,-4.1108,-4.1108,-4.1108,-4.1108,-4.1108,0.0,-4.1108,-4.1108,-4.1109,-4.1108,-4.1109,-4.1109,-4.1109,-4.0978,-4.0848,-4.0721,-4.0571,-4.043,-4.031,-4.0425,-4.0496,-4.0496,-4.0558,-4.0524,-4.0406,0.0,0.0,0.0,0.0,0.0,0.0,0.0,0.0,0.0,0.0,0.0,0.0,0.0,0.0,0.0,0.0,0.0,0.0,0.0,0.0,0.0,-2.8342,-2.9486,-3.0046,-3.0299,-3.0651,-3.1151,-3.1907,-3.2669,-3.3458,-3.4256,-3.4938,-3.5441,-3.5839,-3.6073,-3.6073,-3.6325,-3.6597,-3.6874,-3.7103,-3.7549,-3.8184,-3.8447,-3.8781,-3.9161,-3.9458,-3.96,-3.96,-3.9954,-4.0311,-4.0701,-4.0836,-4.1183,-4.1609,-4.1832,-4.1924,-4.198,-4.2575,-4.2797,-4.2698,-4.1838,-4.1441,-4.1303,-4.1287,-4.1065,-4.0797,-4.0797,-4.0797,-4.0797,-4.0797,-4.0848,-4.0898,-4.0905,-4.0999,-4.1094,-4.1098,-4.1109,-4.1109,-4.1109,-4.1109,-4.1104,-4.1109,-4.1098,-4.1089,-4.1048,-4.1031,-4.1037,-4.1037,-4.1074,-4.1079,-4.1022,-4.107,-4.108,-4.1025,-4.1072,-4.1103,-4.1107,-4.1101,-4.1109,-4.1109,-4.0986,-4.0846,-4.0715,-4.057,-4.0444,-4.031,-4.0327,-4.0344,-4.0344,-4.0466,-4.0514,0.0,0.0,0.0,0.0,0.0,0.0,0.0,0.0,0.0,0.0,0.0,0.0,0.0,0.0,0.0,0.0,0.0,0.0,0.0,0.0,0.0,0.0,-2.7542,-2.8599,-2.8813,-2.9395,-3.0014,-3.0624,-3.1082,-3.1795,-3.2897,-3.344,-3.3984,-3.4678,-3.4995,-3.5152,-3.5152,-3.5315,-3.5493,-3.5716,-3.5893,-3.6191,-3.6666,-3.7104,-3.7463,-3.778,-3.8202,-3.8383,-3.8345,-3.8565,-3.8915,-3.9337,-3.9492,-3.9894,-4.0456,-4.0911,-4.1089,-4.1126,0.0,0.0,0.0,0.0,-4.0811,-4.0788,-4.0928,-4.0904,-4.0797,-4.0797,-4.0797,-4.0797,-4.0797,-4.0848,-4.089,-4.0899,-4.0991,-4.1094,-4.1106,-4.1095,-4.1109,-4.1109,-4.1109,-4.1104,-4.11,-4.1086,-4.1048,-4.1016,-4.0976,0.0,-4.0964,-4.101,-4.1031,-4.1013,-4.1022,-4.1033,-4.1016,-4.1025,-4.1057,-4.1059,-4.1054,-4.1064,-4.1064,-4.0997,0.0,0.0,0.0,-4.061,-4.0466,-4.0408,0.0,0.0,0.0,-4.0466,-4.0417,-4.0499,0.0,0.0,-4.0776,-4.091,0.0,0.0,0.0,0.0,0.0,0.0,0.0,0.0,0.0,0.0,0.0,0.0,0.0,0.0,0.0,0.0,-2.6447,-2.739,-2.739,-2.8626,-2.9688,-3.0092,-3.0432,-3.1204,-3.2568,-3.2738,-3.3184,-3.4186,-3.4185,-3.4144,-3.4144,-3.4072,0.0,0.0,0.0,-3.4618,-3.4691,-3.5402,-3.5832,-3.6075,-3.6502,-3.6786,-3.6928,-3.6766,-3.7048,-3.7685,-3.7684,-3.8129,-3.8877,-3.9851,-4.0248,-4.0285,-4.0471,-4.0531,-4.0481,-3.9937,-3.9844,-4.0049,-4.0318,0.0,0.0,-4.079,-4.0797,-4.0797,-4.0797,-4.0854,-4.0901,-4.0909,-4.1005,-4.1093,-4.1092,-4.1104,-4.1093,-4.1109,-4.1109,-4.1103,-4.1096,-4.1031,-4.1,-4.0996,-4.0935,-4.0907,-4.0907,-4.0957,-4.1003,-4.0981,-4.1007,-4.1007,-4.0981,-4.1007,-4.101,-4.1007,-4.101,0.0,-4.099,-4.0984,-4.0922,-4.0806,-4.084,-4.0801,-4.0682,-4.0544,-4.0488,-4.0511,-4.0488,-4.0425,-4.0319,-4.0308,-4.0307,-4.0325,-4.069,-4.0863,0.0,0.0,0.0,0.0,0.0,0.0,0.0,0.0,0.0,0.0,0.0,0.0,0.0,0.0,0.0,-2.4089,-2.5653,-2.685,-2.685,-2.747,-2.8098,-2.8512,-2.8841,-2.9559,-3.0857,-3.1248,-3.1781,-3.2742,-3.3037,-3.3181,-3.3181,-3.3345,-3.3555,-3.3771,-3.3848,-3.4151,-3.4691,-3.5108,-3.5498,-3.5854,-3.644,0.0,-3.6447,-3.6623,-3.6987,-3.7486,-3.7631,-3.8129,-3.8822,-3.9202,-3.9342,-3.9491,-4.0828,-4.1367,-4.1345,-4.1235,-4.0942,-4.066,-4.0931,-4.0796,-4.0512,-4.0733,-4.0797,-4.0797,-4.0797,-4.0856,0.0,-4.0898,-4.1008,-4.1098,-4.1094,-4.1091,-4.1107,-4.1094,-4.1109,-4.1099,-4.1034,-4.1016,-4.0974,-4.0939,-4.0912,-4.0907,-4.0907,-4.0952,-4.0976,-4.092,-4.0972,-4.097,-4.0924,-4.0976,-4.1,-4.1011,-4.0993,-4.099,-4.099,-4.0902,-4.082,-4.0796,-4.0662,-4.0566,-4.0545,-4.0406,-4.0406,-4.0574,-4.0419,-4.037,-4.046,-4.0341,-4.0325,-4.0388,-4.057,-4.066,0.0,0.0,0.0,0.0,0.0,0.0,0.0,0.0,0.0,0.0,0.0,-2.1807,-2.1807,0.0,-2.3562,-2.3781,-2.5264,-2.6461,-2.6679,-2.7154,-2.7636,-2.8046,-2.8406,-2.9022,-3.004,-3.0658,-3.1277,-3.2007,-3.2582,-3.2897,-3.2897,-3.315,-3.3424,-3.3694,-3.3694,-3.3924,-3.4399,-3.4771,-3.5131,-3.5498,-3.6002,-3.6339,-3.6502,-3.6502,-3.6771,-3.7204,-3.7304,-3.7772,-3.8494,-3.8913,-3.9101,-3.9175,-4.0011,-4.0346,-4.0346,-4.0346,-4.0304,-4.0283,-4.049,-4.05,-4.0492,-4.0713,-4.0797,-4.0797,-4.0797,-4.084,-4.0897,-4.0894,-4.0997,-4.1104,-4.1091,-4.1093,-4.1109,-4.1094,-4.1109,-4.108,-4.1006,-4.099,-4.097,-4.0906,-4.0907,-4.0907,-4.0907,-4.0926,-4.0935,-4.0912,-4.0928,-4.0941,-4.0893,-4.0928,-4.0949,-4.0943,-4.0941,-4.0941,-4.0906,-4.0849,-4.0839,-4.0906,-4.07,-4.06,-4.0596,-4.0406,-4.0341,-4.0457,-4.0354,-4.0337,-4.0396,-4.037,-4.037,-4.0388,-4.0492,-4.0568,0.0,0.0,0.0,0.0,0.0,0.0,0.0,-2.1436,-2.154,-2.1693,-2.1769,-2.1807,-2.1807,-2.2483,-2.3169,-2.3573,-2.4933,-2.6092,-2.6496,-2.7087,-2.7636,-2.7947,-2.8308,-2.883,-2.9623,-3.0358,-3.1029,-3.1638,-3.229,-3.2707,-3.28,-3.3069,-3.3361,-3.3607,-3.3668,-3.3822,-3.4101,-3.4497,-3.4883,-3.5201,-3.5611,-3.6088,-3.6623,-3.6402,-3.653,-3.6948,-3.7132,-3.7614,-3.8283,-3.8855,-3.9101,-3.9101,-3.9101,-3.9101,-3.9101,-3.9101,-3.9313,-3.9652,-3.9836,-4.0127,-4.0462,-4.0713,-4.0797,-4.0797,-4.0797,-4.084,-4.0907,-4.0907,-4.1009,-4.1092,-4.1098,-4.1092,-4.1092,-4.11,-4.1093,-4.1099,-4.1034,-4.1016,-4.0974,-4.0939,-4.0912,-4.0907,-4.0907,-4.0907,-4.0907,-4.0907,-4.0907,-4.0907,-4.0907,-4.0907,-4.0907,-4.0907,-4.0893,-4.0842,-4.0732,-4.0776,-4.0809,-4.0864,-4.0745,-4.0674,-4.0681,-4.0446,-4.0342,-4.0386,-4.0336,-4.0319,-4.0355,-4.0381,-4.0415,-4.0422,-4.0476,-4.0523,-1.806,-1.8988,-1.9599,-1.9539,-2.0225,-2.0945,0.0,-2.1244,-2.1512,-2.154,-2.1693,-2.1807,-2.1807,-2.2176,-2.2617,-2.3027,-2.4384,-2.5522,-2.5931,-2.6871,-2.7536,-2.757,-2.7914,-2.8476,-2.9279,-2.9716,-3.0448,-3.161,-3.1796,-3.2023,-3.2425,-3.2773,-3.3085,-3.3335,-3.3581,-3.3822,-3.4101,-3.4497,-3.4883,-3.5201,-3.5611,-3.6002,-3.6343,-3.6322,-3.6464,-3.6786,-3.7614,-3.8267,-3.8743,-3.8989,-3.9101,-3.9101,-3.9101,-3.9101,-3.9101,-3.9101,-3.9205,-3.9389,-3.9762,-4.0015,-4.0227,-4.0654,-4.0797,-4.0797,-4.0797,-4.084,-4.0907,-4.0907,-4.0996,-4.1109,-4.109,-4.1098,-4.1092,-4.1092,-4.1101,-4.1103,-4.1096,-4.1031,-4.1,-4.0996,-4.0935,-4.0907,-4.0907,-4.0907,-4.0907,-4.0907,-4.0907,-4.0907,-4.0907,-4.0907,-4.0907,-4.0907,-4.0842,-4.072,-4.0469,-4.0655,-4.0688,-4.0408,-4.0473,-4.0554,-4.061,-4.0471,-4.0479,-4.066,-4.0427,-4.0396,-4.0569,-4.0447,-4.043,-4.05,-4.0489,-4.0504,-1.7706,-1.839,-1.8877,-1.9814,-2.0411,-2.078,-2.0867,-2.1022,-2.1205,-2.1464,-2.1589,-2.1655,-2.1769,-2.1959,-2.2176,-2.259,-2.3658,-2.4684,-2.544,-2.6414,-2.7154,-2.7456,-2.7636,-2.7954,-2.8541,-2.9153,-2.9794,-3.0524,-3.0852,-3.1175,-3.1566,-3.1994,-3.233,-3.2602,-3.3156,-3.3607,-3.3873,-3.4201,-3.4546,-3.4913,-3.527,-3.5722,-3.6199,-3.6262,-3.6444,-3.6742,-3.7394,-3.7948,-3.843,-3.877,-3.8989,-3.9101,-3.9101,-3.9101,-3.9115,-3.9178,-3.9298,-3.9458,-3.9797,-3.9984,-4.0148,-4.0515,-4.0621,-4.0654,-4.0759,-4.084,-4.0907,-4.0907,-4.0992,-4.11,-4.1105,-4.1094,-4.1091,-4.1093,-4.1103,-4.1104,-4.11,-4.1053,-4.1,-4.1003,-4.0958,-4.0907,-4.0907,-4.0907,-4.0907,-4.0907,-4.0907,-4.0907,-4.0907,-4.0907,-4.0907,-4.0907,-4.0767,-4.0662,-4.0635,-4.06,-4.053,-4.0469,-4.0489,-4.0504,-4.0539,-4.0411,-4.0413,-4.0527,-4.0377,-4.036,-4.0471,-4.0466,-4.0474,-4.0495,-4.05,-4.0496,-1.6596,-1.7276,-1.7876,-1.9125,-1.9844,-2.0294,-2.042,-2.0712,-2.0984,-2.1282,-2.1436,-2.154,-2.1693,-2.1769,-2.1911,-2.2327,-2.318,-2.4108,-2.4933,-2.5988,-2.685,-2.7222,-2.739,-2.759,-2.7914,-2.856,-2.9184,-2.9747,-3.0101,-3.0494,-3.097,-3.1393,-3.1766,-3.2102,-3.2738,-3.3251,-3.3581,-3.3848,-3.4201,-3.4594,-3.4991,-3.5498,-3.6011,-3.6199,-3.6485,-3.6806,-3.7206,-3.765,-3.8101,-3.8606,-3.8892,-3.9017,-3.9073,-3.9129,-3.917,-3.9259,-3.937,-3.9532,-3.9813,-4.0022,-4.0185,-4.0423,-4.0533,-4.0614,-4.0752,-4.084,-4.0907,-4.0907,-4.0992,-4.1097,-4.1091,-4.1103,-4.1105,-4.1094,-4.1108,-4.1093,-4.1092,-4.1059,-4.1003,-4.0995,-4.0948,-4.0907,-4.0907,-4.0907,-4.0907,-4.0907,-4.0907,-4.0907,-4.0907,-4.0907,-4.0874,-4.0828,-4.0725,-4.0668,-4.0654,-4.0504,-4.043,-4.0512,-4.0476,-4.0444,-4.0441,-4.0341,-4.0325,-4.0407,-4.0362,-4.0362,-4.0432,-4.0485,-4.051,-4.0507,-4.05,-4.0496,-1.4414,-1.5405,-1.6476,-1.6509,-1.7925,-1.9341,-1.9341,-2.0137,-2.0906,-2.0906,-2.1244,-2.1502,-2.1502,-2.1655,-2.1911,-2.2327,-2.318,-2.3963,-2.4373,-2.5744,-2.6714,-2.6714,-2.7188,-2.749,-2.7536,-2.7901,-2.8605,-2.9716,-2.9808,-3.0176,-3.097,-3.1276,-3.1635,-3.2074,-3.2449,-3.2834,-3.3309,-3.3581,-3.3899,-3.4325,-3.492,-3.5407,-3.581,-3.6152,-3.655,-3.7007,-3.7281,-3.7632,-3.8035,-3.859,-3.8807,-3.8837,-3.9017,-3.9178,-3.9298,-3.9298,-3.937,-3.9532,-3.9813,-4.0072,-4.0326,-4.0466,-4.0628,-4.079,-4.0797,-4.084,-4.0907,-4.0907,-4.0992,-4.111,-4.1091,-4.1106,-4.1103,-4.1104,-4.1094,-4.1108,-4.1093,-4.1054,-4.099,-4.101,-4.0949,-4.0907,-4.0907,-4.0907,-4.0907,-4.0907,-4.0907,-4.0907,-4.0907,-4.0907,-4.0828,-4.0622,-4.072,-4.0654,-4.0337,-4.0368,-4.0366,-4.031,-4.031,-4.0319,-4.0316,-4.0307,-4.0325,-4.0407,-4.0407,-4.0432,-4.0502,-4.0502,-4.0507,-4.0496,-4.0496,-4.0496,-1.4812,-1.5509,-1.605,-1.6806,-1.7504,-1.8029,-1.8189,-1.851,-1.8829,-1.9116,-1.9265,-1.9502,-1.9982,-2.0411,-2.0885,-2.1318,-2.2446,-2.3449,-2.3927,-2.4921,-2.5861,-2.6611,-2.685,-2.7121,-2.7469,-2.7636,-2.8052,-2.8926,-2.899,-2.9338,-3.0021,-3.0448,-3.0881,-3.1364,-3.1934,-3.252,-3.3032,-3.3309,-3.3503,-3.3658,-3.4529,-3.5237,-3.5827,-3.6152,-3.655,-3.7007,-3.7106,-3.7559,-3.8285,-3.8446,-3.871,-3.9003,-3.9073,-3.9129,-3.9178,-3.9376,-3.9464,-3.9539,-3.9709,-3.9886,-4.0061,-4.0292,-4.0399,-4.0515,-4.0725,-4.0853,-4.0912,-4.0943,-4.1034,-4.1107,-4.1107,-4.1106,-4.1095,-4.1106,-4.1091,-4.1091,-4.1108,-4.1081,-4.1056,-4.1016,-4.0972,-4.0971,-4.0971,-4.093,-4.0907,-4.0907,-4.0907,-4.0907,-4.0907,-4.0907,-4.0868,-4.0745,-4.0681,-4.0586,-4.0375,-4.0353,-4.0318,-4.031,-4.0301,-4.0291,-4.0291,-4.0291,-4.0318,-4.0325,-4.037,-4.0432,-4.0502,-4.0495,-4.05,-4.0496,-4.0496,-4.0496,-1.3787,-1.4475,-1.5018,-1.5742,-1.6332,-1.6742,-1.6903,-1.7243,-1.7658,-1.802,-1.8132,-1.8412,-1.9067,-1.9728,-2.0285,-2.0498,-2.1814,-2.2879,-2.3169,-2.412,-2.5111,-2.6,-2.644,-2.685,-2.7188,-2.7536,-2.7967,-2.8554,-2.8587,-2.8876,-2.954,-2.9898,-3.0251,-3.0732,-3.1378,-3.1964,-3.2471,-3.2935,-3.3335,-3.3684,-3.4439,-3.5151,-3.5827,-3.6152,-3.655,-3.7007,-3.7007,-3.743,-3.8119,-3.8219,-3.8491,-3.8855,-3.896,-3.9101,-3.9259,-3.9389,-3.9526,-3.9647,-3.9728,-3.987,-4.0,-4.023,-4.0359,-4.0469,-4.0711,-4.0859,-4.0939,-4.0988,-4.1041,-4.1107,-4.1107,-4.1092,-4.1098,-4.109,-4.1103,-4.1094,-4.1092,-4.1091,-4.1086,-4.1016,-4.0993,-4.0991,-4.0996,-4.0964,-4.0937,-4.0937,-4.0943,-4.0926,-4.0907,-4.0907,-4.0868,-4.0745,-4.0655,-4.0549,-4.0386,-4.0318,-4.0301,-4.0301,-4.0301,-4.0301,-4.0301,-4.0301,-4.0291,-4.0307,-4.0334,-4.0415,-4.0502,-4.0495,-4.05,-4.0496,-4.0496,-4.0496,-1.1459,-1.2395,-1.3403,-1.3456,-1.4497,-1.5482,-1.5482,-1.6332,-1.7228,-1.7486,-1.7705,-1.8043,-1.8731,-1.9522,-2.0041,-1.9904,-2.1308,-2.2354,-2.2182,-2.3463,-2.4528,-2.4933,-2.5931,-2.6645,-2.6679,-2.7503,-2.8177,-2.8554,-2.8619,-2.8908,-2.9571,-2.9602,-2.982,-3.0296,-3.0762,-3.1234,-3.171,-3.2499,-3.3319,-3.425,-3.4625,-3.5128,-3.5766,-3.6152,-3.6571,-3.7007,-3.7007,-3.7259,-3.7631,-3.7915,-3.817,-3.8465,-3.8698,-3.9087,-3.9477,-3.935,-3.9532,-3.9832,-3.9843,-3.9912,-4.0063,-4.018,-4.0369,-4.0559,-4.0746,-4.0903,-4.0996,-4.0996,-4.1045,-4.1107,-4.1107,-4.1107,-4.11,-4.1103,-4.1094,-4.1091,-4.1093,-4.1093,-4.1086,-4.1016,-4.099,-4.1,-4.1003,-4.0993,-4.0997,-4.099,-4.1002,-4.0984,-4.0917,-4.0907,-4.0828,-4.0622,-4.0595,-4.0519,-4.0319,-4.031,-4.0301,-4.0301,-4.0301,-4.0301,-4.0301,-4.0301,-4.031,-4.0298,-4.0307,-4.0351,-4.0493,-4.0502,-4.0507,-4.0489,-4.0496,-4.0496,-1.0672,-1.1397,-1.2006,-1.2824,-1.3452,-1.3863,-1.4008,-1.4441,-1.4881,-1.5053,-1.5471,-1.598,-1.6381,-1.7871,-1.9128,-1.9413,-2.1364,-2.2815,-2.2767,-2.3618,-2.4419,-2.4945,-2.5252,-2.5756,-2.6611,-2.6918,-2.749,-2.8522,-2.8812,-2.9162,-2.9571,-2.9602,-2.982,-3.0296,-3.0762,-3.1234,-3.171,-3.2247,-3.2877,-3.3581,-3.4194,-3.4783,-3.5385,-3.6212,-3.6748,-3.7007,-3.7163,-3.7485,-3.7897,-3.7966,-3.8269,-3.8698,-3.8777,-3.896,-3.9219,-3.9401,-3.912,-3.8738,-3.8948,-3.9033,-3.9106,-3.934,-3.9477,-3.9732,-4.0604,-4.093,-4.1,-4.1068,-4.1081,-4.1107,-4.1107,-4.1107,-4.1091,-4.1106,-4.1101,-4.1108,-4.1091,-4.1102,-4.1086,-4.1016,-4.099,-4.1007,-4.1,-4.1044,-4.1064,-4.1019,-4.1003,-4.0986,-4.0984,-4.093,-4.0868,-4.0757,-4.0655,-4.053,-4.0383,-4.0327,-4.0301,-4.0301,-4.0301,-4.0301,-4.0301,-4.0301,-4.0291,-4.0301,-4.0308,-4.0316,-4.0342,-4.0449,-4.051,-4.0499,-4.05,-4.0496,-0.9837,-1.0521,-1.113,-1.2222,-1.268,-1.2935,-1.3148,-1.3497,-1.3827,-1.3977,-1.4344,-1.4856,-1.5471,-1.7121,-1.8556,-1.9022,-2.1173,-2.2767,-2.2868,-2.3698,-2.4393,-2.4634,-2.5051,-2.56,-2.628,-2.6701,-2.7377,-2.8522,-2.878,-2.9099,-2.9571,-2.9602,-2.9727,-2.9991,-3.0433,-3.1029,-3.171,-3.2302,-3.2866,-3.3309,-3.4002,-3.4649,-3.5224,-3.6067,-3.665,-3.7007,-3.722,-3.7485,-3.781,-3.781,-3.8069,-3.8446,-3.859,-3.88,-3.9045,-3.8977,-3.8712,-3.8312,-3.7793,-3.7609,-3.7716,-3.8319,-3.857,-3.8772,-3.9529,-3.9816,-3.9956,-4.04,-4.0526,-4.062,-4.099,-4.1107,-4.1107,-4.1107,-4.1094,-4.1107,-4.1107,-4.1105,-4.1089,-4.1053,-4.1031,-4.1037,-4.103,-4.1074,-4.1099,-4.1059,-4.1019,-4.0997,-4.1,-4.0935,-4.0878,-4.0806,-4.0675,-4.0545,-4.0414,-4.0335,-4.0301,-4.0301,-4.0301,-4.0301,-4.0301,-4.0301,-4.0301,-4.0301,-4.0291,-4.0299,-4.0307,-4.0379,-4.0441,-4.0502,-4.0495,-4.0492,-0.896,-0.9744,-1.0565,-1.1663,-1.2205,-1.2477,-1.2692,-1.3106,-1.3466,-1.3666,-1.3917,-1.4366,-1.5281,-1.6849,-1.8211,-1.8843,-2.0864,-2.2467,-2.2782,-2.3771,-2.4427,-2.4301,-2.5113,-2.5719,-2.588,-2.6589,-2.743,-2.8425,-2.8554,-2.8876,-2.954,-2.9602,-2.9634,-2.9696,-3.0083,-3.0762,-3.1752,-3.2456,-3.2989,-3.3346,-3.4,-3.4602,-3.5155,-3.5837,-3.643,-3.693,-3.722,-3.7447,-3.7595,-3.7595,-3.7757,-3.8035,-3.8302,-3.8576,-3.8785,-3.8396,-3.8228,-3.798,-3.6639,-3.6111,-3.6217,-3.7296,-3.7686,-3.7803,-3.819,-3.8342,-3.8581,-3.9406,-3.963,-3.9825,-4.0698,-4.0932,-4.0951,-4.1068,-4.1092,-4.1106,-4.1089,-4.1083,-4.1089,-4.1089,-4.1091,-4.1103,-4.1106,-4.1106,-4.1099,-4.1098,-4.1048,-4.0993,-4.1,-4.0935,-4.0878,-4.0823,-4.0681,-4.0552,-4.0438,-4.0344,-4.0301,-4.0301,-4.0301,-4.0301,-4.0301,-4.0301,-4.0301,-4.0301,-4.0301,-4.031,-4.0298,-4.0307,-4.037,-4.0466,-4.0493,-4.0507,-0.8394,-0.9036,-0.9674,-1.1329,-1.193,-1.2155,-1.2341,-1.2756,-1.3089,-1.3073,-1.362,-1.4229,-1.4615,-1.614,-1.7761,-1.904,-2.0883,-2.2446,-2.3324,-2.4231,-2.4814,-2.476,-2.4941,-2.5261,-2.5779,-2.599,-2.6607,-2.7782,-2.8314,-2.8876,-2.954,-2.9602,-2.9789,-3.0174,-3.0266,-3.0866,-3.2033,-3.2173,-3.2711,-3.3633,-3.4101,-3.4472,-3.4835,-3.5864,-3.6412,-3.6536,-3.7242,-3.7576,-3.7595,-3.7595,-3.7757,-3.8035,-3.8302,-3.8212,-3.7947,-3.807,-3.7406,-3.64,-3.614,-3.5635,-3.5306,-3.6433,-3.6846,-3.7076,-3.8011,-3.8381,-3.8513,-3.8672,-3.8733,-3.8928,-3.9805,-4.0039,-4.0214,-4.0932,-4.11,-4.108,-4.1034,-4.1012,-4.1019,-4.1019,-4.1059,-4.1103,-4.1106,-4.1095,-4.1098,-4.1093,-4.1049,-4.1003,-4.0996,-4.0935,-4.0903,-4.0888,-4.0706,-4.0581,-4.0566,-4.0405,-4.0301,-4.0301,-4.0301,-4.0301,-4.0301,-4.0301,-4.0301,-4.0301,-4.0301,-4.031,-4.0301,-4.0308,-4.0316,-4.0334,-4.0449,-4.051,-0.8246,-0.8775,-0.9301,-1.1217,-1.1781,-1.1929,-1.2224,-1.2634,-1.2919,-1.2891,-1.3362,-1.3915,-1.4403,-1.5829,-1.7363,-1.8652,-2.0681,-2.2322,-2.3043,-2.4382,-2.5222,-2.4946,-2.547,-2.5864,-2.5811,-2.6189,-2.6773,-2.763,-2.8268,-2.8876,-2.954,-2.9602,-2.9696,-2.9929,-3.0174,-3.0688,-3.1522,-3.2089,-3.2738,-3.3503,-3.3975,-3.4374,-3.4739,-3.571,-3.6228,-3.6437,-3.7243,-3.7595,-3.7595,-3.7595,-3.7667,-3.7791,-3.7729,-3.7598,-3.7345,-3.7019,-3.6475,-3.5854,-3.5538,-3.5191,-3.5002,-3.5624,-3.5916,-3.6125,-3.6716,-3.7004,-3.7232,-3.7698,-3.7818,-3.8013,-3.8909,-3.9123,-3.924,-3.9649,-4.0083,-4.0545,-4.0955,-4.1042,-4.1053,-4.1053,-4.1079,-4.1094,-4.1094,-4.1103,-4.1083,-4.1052,-4.1018,-4.0988,-4.0943,-4.0927,-4.0893,-4.0907,-4.0668,-4.0492,-4.0492,-4.0306,-4.0157,-4.0106,-4.0157,-4.0205,-4.0205,-4.0205,-4.0234,-4.0301,-4.0301,-4.0301,-4.0301,-4.0291,-4.0299,-4.0307,-4.037,-4.0441,-0.8246,-0.8703,-0.9193,-1.1217,-1.1706,-1.1818,-1.2224,-1.2599,-1.29,-1.29,-1.3229,-1.3711,-1.4401,-1.5605,-1.694,-1.821,-2.0204,-2.1821,-2.2585,-2.4231,-2.5313,-2.5092,-2.6093,-2.6582,-2.6066,-2.6481,-2.6995,-2.7478,-2.8191,-2.8894,-2.954,-2.9602,-2.9602,-2.9602,-2.996,-3.0493,-3.119,-3.2033,-3.2792,-3.3477,-3.3899,-3.4275,-3.4594,-3.5397,-3.5933,-3.6333,-3.7111,-3.7522,-3.7595,-3.7416,-3.7345,-3.731,-3.6926,-3.6713,-3.6555,-3.5888,-3.5611,-3.5487,-3.5007,-3.486,-3.4898,-3.5018,-3.5216,-3.5432,-3.5568,-3.573,-3.6015,-3.6718,-3.6919,-3.7127,-3.799,-3.8227,-3.8266,-3.8466,-3.9023,-3.9765,-4.0636,-4.0828,-4.0879,-4.1054,-4.1092,-4.1097,-4.1098,-4.1083,-4.1061,-4.1003,-4.0988,-4.0967,-4.0903,-4.0898,-4.0893,-4.0888,-4.0578,-4.0404,-4.0404,-4.0186,-4.0015,-3.99,-4.0005,-4.0057,-4.0057,-4.0077,-4.0147,-4.0273,-4.0291,-4.0301,-4.0301,-4.0301,-4.031,-4.0308,-4.0298,-4.037,-0.8246,-0.8703,-0.9193,-1.1217,-1.1706,-1.1818,-1.2224,-1.2599,-1.29,-1.29,-1.3229,-1.3717,-1.4464,-1.5311,-1.6455,-1.8202,-1.924,-2.0518,-2.2424,-2.3633,-2.4675,-2.552,-2.6325,-2.6795,-2.6702,-2.6533,-2.6588,-2.6966,-2.7933,-2.8839,-2.9571,-2.9602,-2.9602,-2.9602,-2.9634,-3.0358,-3.1806,-3.1918,-3.2664,-3.4025,-3.4075,-3.4126,-3.4176,-3.4934,-3.5515,-3.5977,-3.6681,-3.7206,-3.7541,-3.6809,-3.6506,-3.6452,-3.5951,-3.5472,-3.5119,-3.5142,-3.4977,-3.4706,-3.4653,-3.4708,-3.4829,-3.4898,-3.5144,-3.5432,-3.5568,-3.5703,-3.5838,-3.5988,-3.6027,-3.6226,-3.7091,-3.7311,-3.7528,-3.8305,-3.8557,-3.8867,-3.9725,-3.9918,-4.0157,-4.0957,-4.1096,-4.1096,-4.1093,-4.1049,-4.1003,-4.0996,-4.0943,-4.0903,-4.0893,-4.0902,-4.0877,-4.0818,-4.0561,-4.0394,-4.0394,-4.01,-3.9911,-3.99,-3.9911,-3.9911,-3.9911,-4.0036,-4.0117,-4.0127,-4.0234,-4.0301,-4.0301,-4.0301,-4.031,-4.0291,-4.0308,-4.0316,-0.7676,-0.8322,-0.9074,-1.0608,-1.1323,-1.1744,-1.1892,-1.2157,-1.2378,-1.2526,-1.2753,-1.3295,-1.4389,-1.5258,-1.6188,-1.7353,-1.8693,-1.995,-2.0997,-2.2269,-2.3587,-2.4923,-2.5761,-2.6357,-2.6774,-2.6792,-2.705,-2.7498,-2.8139,-2.8807,-2.9571,-2.9602,-2.9602,-2.9602,-2.9602,-3.016,-3.1349,-3.1721,-3.2489,-3.3633,-3.3949,-3.4101,-3.4126,-3.4864,-3.5448,-3.5916,-3.6095,-3.6443,-3.6809,-3.6006,-3.5685,-3.5613,-3.5092,-3.4833,-3.4778,-3.467,-3.4608,-3.4623,-3.474,-3.4811,-3.486,-3.4898,-3.5034,-3.5255,-3.5425,-3.5609,-3.5752,-3.5866,-3.5908,-3.5972,-3.6334,-3.6415,-3.6635,-3.7505,-3.7729,-3.7966,-3.8828,-3.9016,-3.913,-3.9517,-3.9564,-3.9531,-3.9533,-3.9474,-3.9435,-3.9446,-3.9377,-3.933,-3.934,-3.9349,-3.9323,-3.9293,-3.988,-4.0283,-4.0283,-3.9981,-3.9758,-3.9715,-3.9766,-3.9781,-3.9781,-3.9837,-3.9911,-3.9984,-4.0117,-4.0176,-4.0176,-4.0253,-4.0301,-4.0301,-4.031,-4.0299,-0.7292,-0.8131,-0.9074,-1.019,-1.0981,-1.1484,-1.1669,-1.1818,-1.2003,-1.2268,-1.2599,-1.3222,-1.4389,-1.5258,-1.6035,-1.6767,-1.816,-1.9304,-1.9891,-2.1182,-2.2594,-2.3956,-2.4941,-2.5782,-2.6542,-2.6836,-2.7186,-2.7703,-2.8051,-2.8615,-2.954,-2.9602,-2.9602,-2.9602,-2.9602,-3.0052,-3.0984,-3.1607,-3.2379,-3.3277,-3.3832,-3.4101,-3.4109,-3.4483,-3.4992,-3.5514,-3.5295,-3.5537,-3.5989,-3.5204,-3.4865,-3.481,-3.4203,-3.4126,-3.4345,-3.4162,-3.4281,-3.4561,-3.4751,-3.484,-3.487,-3.4898,-3.4963,-3.506,-3.5255,-3.5476,-3.5684,-3.5857,-3.5905,-3.5908,-3.5908,-3.5908,-3.605,-3.6665,-3.6819,-3.7059,-3.7946,-3.8143,-3.825,-3.8534,-3.8551,-3.8505,-3.8503,-3.8445,-3.8381,-3.8363,-3.8325,-3.8307,-3.8292,-3.8296,-3.8283,-3.8272,-3.9018,-3.9491,-3.9447,-3.915,-3.8946,-3.8869,-3.8903,-3.8931,-3.8931,-3.9191,-3.9399,-3.9478,-3.9851,-4.0036,-4.0036,-4.0186,-4.0234,-4.0244,-4.0291,-4.0301,-0.733,-0.8241,-0.9226,-1.0265,-1.0651,-1.0962,-1.1558,-1.1706,-1.1818,-1.2231,-1.2936,-1.371,-1.4461,-1.5258,-1.6035,-1.6767,-1.7552,-1.8385,-1.945,-2.0592,-2.1693,-2.2717,-2.3992,-2.5179,-2.6133,-2.6463,-2.6773,-2.7201,-2.7404,-2.8111,-2.954,-2.9602,-2.9602,-2.9602,-2.9602,-3.0068,-3.097,-3.1607,-3.2348,-3.3224,-3.3815,-3.4101,-3.4068,-3.3623,-3.3894,-3.4682,-3.4215,-3.4469,-3.5151,-3.4418,-3.4099,-3.4026,-3.3239,-3.3211,-3.3605,-3.3619,-3.3947,-3.4427,-3.455,-3.4687,-3.4809,-3.4879,-3.4908,-3.4936,-3.5062,-3.5289,-3.5558,-3.5815,-3.5905,-3.5908,-3.5908,-3.5908,-3.5894,-3.5907,-3.5908,-3.6166,-3.7106,-3.7305,-3.7574,-3.8439,-3.8558,-3.85,-3.85,-3.8443,-3.8378,-3.8316,-3.8297,-3.8297,-3.8299,-3.8308,-3.8277,-3.8218,-3.8027,-3.7847,-3.7653,-3.7443,-3.7257,-3.7122,-3.7129,-3.7129,-3.7129,-3.8015,-3.8505,-3.8505,-3.9429,-3.99,-3.99,-4.0036,-4.0106,-4.0117,-4.0234,-4.0301,-0.7057,-0.7744,-0.8499,-0.8945,-0.975,-1.04,-1.0475,-1.0999,-1.1558,-1.1855,-1.2622,-1.3579,-1.4453,-1.5428,-1.6294,-1.6805,-1.7504,-1.8293,-1.9193,-2.0296,-2.1688,-2.3478,-2.5592,-2.6678,-2.6125,-2.639,-2.6565,-2.6465,-2.6641,-2.7371,-2.8776,-2.8839,-2.9089,-2.9571,-2.9602,-2.9898,-3.0509,-3.1435,-3.2198,-3.2788,-3.3688,-3.3858,-3.3404,-3.3299,-3.3367,-3.3524,-3.3191,-3.3425,-3.4005,-3.3498,-3.3293,-3.3257,-3.3007,-3.3202,-3.3684,-3.3773,-3.4172,-3.4687,-3.4771,-3.4831,-3.487,-3.4898,-3.4908,-3.4936,-3.5062,-3.5266,-3.5502,-3.5807,-3.5905,-3.5908,-3.5908,-3.5897,-3.5904,-3.5909,-3.5895,-3.599,-3.6349,-3.6401,-3.6484,-3.6709,-3.6731,-3.6721,-3.6719,-3.6674,-3.6626,-3.6584,-3.6546,-3.6523,-3.6526,-3.6524,-3.6508,-3.6497,-3.6437,-3.6715,-3.7523,-3.7413,-3.7192,-3.6986,-3.6974,-3.6974,-3.6974,-3.7253,-3.742,-3.7467,-3.8392,-3.8905,-3.8938,-3.9635,-3.9954,-3.9973,-4.0106,-4.0157,-0.698,-0.7663,-0.8461,-0.8613,-0.9377,-1.0105,-1.0105,-1.055,-1.1074,-1.1595,-1.2365,-1.3353,-1.459,-1.5517,-1.6335,-1.7022,-1.7598,-1.8325,-1.9206,-2.0343,-2.1836,-2.4002,-2.5801,-2.644,-2.5451,-2.5852,-2.6128,-2.6002,-2.623,-2.6913,-2.8051,-2.8363,-2.8698,-2.9153,-2.9463,-2.9789,-3.0219,-3.1334,-3.1964,-3.2133,-3.3202,-3.3356,-3.2676,-3.2534,-3.2523,-3.2576,-3.2346,-3.2553,0.0,-3.295,-3.29,-3.29,-3.29,-3.3142,-3.3542,-3.3755,-3.4153,-3.4645,-3.4791,-3.4879,-3.4908,-3.4908,-3.4908,-3.4917,-3.5079,-3.5299,-3.5529,-3.5819,-3.5905,-3.5908,-3.5908,-3.5897,-3.5904,-3.5907,-3.5904,-3.5914,-3.5986,-3.5987,-3.5957,-3.591,-3.5908,-3.5905,-3.5905,-3.5846,-3.5786,-3.5775,-3.5737,-3.5694,-3.5697,-3.5695,-3.5704,-3.5704,-3.5679,-3.5913,-3.6563,-3.6502,-3.6302,-3.5984,-3.5948,-3.5948,-3.5948,-3.6266,-3.6477,-3.6512,-3.7382,-3.8005,-3.836,-3.9328,-3.9834,-3.99,-3.9994,-4.0026,0.0,-0.797,-0.8965,-0.8965,-0.942,-0.9954,-1.0331,-1.0368,0.0,-1.1546,-1.2294,-1.3277,-1.4932,-1.5597,-1.6258,-1.7337,-1.7792,-1.8402,-1.9478,-2.0733,-2.2254,-2.4301,-2.4918,-2.4942,-2.4353,-2.5009,-2.5551,-2.5734,-2.6092,-2.6641,-2.7384,-2.8051,-2.846,-2.8492,-2.9174,-2.9701,-2.9993,-3.1202,-3.1607,-3.1209,-3.2449,-3.2627,-3.1915,-3.1463,-3.1457,-3.175,-3.1703,-3.1878,-3.2283,-3.2721,-3.29,-3.29,-3.29,-3.3039,-3.3262,-3.3593,-3.3968,-3.4363,-3.4687,-3.4849,-3.4908,-3.4908,-3.4908,-3.4945,-3.5157,-3.5386,-3.5631,-3.5827,-3.5882,-3.5892,-3.5892,-3.5892,-3.5914,-3.5907,-3.5899,-3.5924,-3.5983,-3.595,-3.5918,-3.5909,-3.5899,-3.5905,-3.5898,-3.5842,-3.5778,-3.5713,-3.5704,-3.5708,-3.5695,-3.5704,-3.5704,-3.5684,-3.5637,-3.5444,-3.5041,-3.4994,-3.4832,-3.4409,-3.4393,-3.4393,-3.4393,-3.5159,-3.5588,-3.56,-3.6396,-3.7237,-3.8097,-3.9039,-3.9632,-3.9867,-3.9878,-3.9878,-0.8322,0.0,-0.8775,-0.8775,-0.9122,-0.9473,0.0,-1.0513,-1.1509,-1.1986,-1.3417,-1.4791,-1.5453,-1.642,-1.7169,-1.7449,-1.7792,-1.8449,-1.9798,-2.209,-2.3926,-2.4861,-2.544,-2.5396,-2.4388,-2.5009,-2.5355,-2.5064,-2.5347,-2.5896,-2.662,-2.7338,-2.7953,-2.8492,-2.8771,-2.893,-2.9036,-3.0375,-3.0782,-3.0251,-3.1626,-3.1882,-3.1147,-3.1037,-3.0782,-3.0466,-3.1173,-3.155,-3.1753,-3.2554,-3.29,-3.29,-3.29,-3.3129,-3.3458,-3.3755,-3.4141,-3.4561,-3.4801,-3.4889,-3.4908,-3.4908,-3.4908,-3.4973,-3.5271,-3.5399,-3.5496,-3.5694,-3.5813,-3.5904,-3.5904,-3.5931,-3.5955,-3.5912,-3.5907,-3.5907,-3.5919,-3.5947,-3.5951,-3.5912,-3.5901,-3.5886,-3.5826,-3.5817,-3.5775,-3.5703,-3.5698,-3.5707,-3.569,-3.5704,-3.5679,-3.5637,-3.5606,-3.5477,-3.5173,-3.5013,-3.4726,-3.4281,-3.4245,-3.4245,-3.4245,-3.4431,-3.4586,-3.4633,-3.5532,-3.6677,-3.8097,-3.8353,-3.8821,-3.9527,-3.9618,-3.9658,-0.9198,-0.9122,-0.8975,-0.8975,-0.9279,-0.9613,-0.9722,-1.0434,-1.13,-1.2182,-1.3049,-1.4144,-1.5654,-1.6385,-1.7056,-1.7889,-1.8175,-1.8869,-2.0382,-2.2371,-2.3862,-2.43,-2.4803,-2.482,-2.4082,-2.4716,-2.5083,-2.4813,-2.5111,-2.5476,-2.5861,-2.6913,-2.7519,-2.7573,-2.8295,-2.8719,-2.8796,-2.9842,-3.0084,-2.9494,-3.0855,-3.1137,-3.0441,-3.047,-3.0347,-3.0146,-3.1052,-3.1493,-3.1661,-3.2537,-3.29,-3.29,-3.29,-3.3021,-3.3273,-3.3723,-3.4062,-3.4337,-3.4772,-3.4908,-3.4908,-3.4908,-3.4908,-3.4945,-3.5178,-3.5334,-3.5446,-3.5724,-3.5837,-3.5899,-3.5899,-3.5924,-3.5948,-3.5902,-3.5904,-3.5909,-3.5909,-3.5926,-3.5934,-3.5912,-3.5901,-3.5883,-3.5806,-3.5799,-3.5785,-3.5718,-3.5707,-3.5697,-3.569,-3.5673,-3.5643,-3.5606,-3.5577,-3.5451,-3.5224,-3.5015,-3.4744,-3.4397,-3.4269,-3.4185,-3.4161,-3.4185,-3.4221,-3.4257,-3.515,-3.6062,-3.6945,-3.7691,-3.8301,-3.8807,-3.9283,-3.9514,-0.9809,-0.9733,-0.9511,-0.9397,-0.9684,-1.003,-1.0245,-1.0399,-1.0835,-1.2148,-1.2289,-1.2973,-1.5648,-1.6077,-1.6629,-1.8311,-1.8821,-1.9461,-2.086,-2.207,-2.2907,-2.3102,-2.3456,-2.3609,-2.353,-2.4132,-2.4598,-2.4754,-2.5052,-2.5241,-2.5276,-2.6485,-2.694,-2.6498,-2.7646,-2.835,-2.8574,-2.9294,-2.9401,-2.8844,-3.0101,-3.0396,-2.9896,-2.9968,-3.0038,-3.021,-3.1033,-3.1493,-3.1732,-3.2487,-3.2834,-3.29,-3.29,-3.29,-3.2993,-3.3661,-3.3906,-3.4006,-3.4674,-3.4908,-3.4908,-3.4908,-3.4917,-3.4945,-3.5082,-3.525,-3.5446,-3.5787,-3.5883,-3.5892,-3.5892,-3.5892,-3.5892,-3.5892,-3.5902,-3.5909,-3.5912,-3.5914,-3.5917,-3.5912,-3.5919,-3.5875,-3.5814,-3.578,-3.5776,-3.5707,-3.5702,-3.5692,-3.5684,-3.5637,-3.5601,-3.5589,-3.5521,-3.5437,-3.5266,-3.5062,-3.4841,-3.4636,-3.4351,-3.4161,-3.4086,-3.4136,-3.4173,-3.4173,-3.4878,-3.5349,-3.556,-3.6918,-3.7757,-3.8064,-3.8824,-3.9274,-0.9884,-1.0218,-1.0443,-0.9922,-1.004,-1.025,-1.0288,-1.0841,-1.145,-1.1987,-1.2732,-1.3831,-1.5487,-1.6319,-1.7137,-1.8396,-1.9516,-2.0247,-2.0349,-2.127,-2.1861,-2.1519,-2.1842,-2.2251,-2.2585,-2.3177,-2.379,-2.449,-2.4754,-2.4957,-2.5111,-2.5453,-2.5902,-2.6485,-2.6391,-2.657,-2.7116,-2.8138,-2.8437,-2.8075,-2.9186,-2.9778,-2.9896,-2.9902,-2.9968,-3.006,-3.0645,-3.115,-3.1588,-3.2144,-3.2588,-3.29,-3.29,-3.2932,-3.3055,-3.3675,-3.3931,-3.4068,-3.4684,-3.4908,-3.4908,-3.4908,-3.4936,-3.501,-3.5215,-3.5299,-3.538,-3.5639,-3.5817,-3.5907,-3.5907,-3.5907,-3.5907,-3.5907,-3.5907,-3.5912,-3.5962,-3.5978,-3.598,-3.5976,-3.5939,-3.5875,-3.5806,-3.576,-3.5707,-3.5695,-3.5695,-3.5684,-3.5612,-3.5606,-3.5583,-3.5509,-3.5515,-3.5483,-3.546,-3.5215,-3.4972,-3.4792,-3.4356,-3.4086,-3.4023,-3.4023,-3.4036,-3.4036,-3.4166,-3.4591,-3.5356,-3.5597,-3.6451,-3.7853,-3.8037,-3.8518,-0.9884,-1.0209,-1.0538,-1.0648,-1.115,-1.1737,-1.2065,-1.258,-1.3029,-1.3083,-1.33,-1.3958,-1.5426,-1.5982,-1.6871,-1.8679,-1.9624,-2.0049,-1.9888,-2.0372,-2.0616,-2.0323,-2.0847,-2.1448,-2.201,-2.2826,-2.3644,-2.4454,-2.4682,-2.4696,-2.4531,-2.4947,-2.5297,-2.5475,-2.5658,-2.5914,-2.6315,-2.7008,-2.7558,-2.7898,-2.8772,-2.9425,-2.9896,-2.9896,-2.9968,-3.0146,-3.0828,-3.1302,-3.1661,-3.2352,-3.2737,-3.29,-3.29,-3.2916,-3.3024,-3.3656,-3.4074,-3.4371,-3.4772,-3.4908,-3.4908,-3.4908,-3.4945,-3.5029,-3.516,-3.5239,-3.5341,-3.5586,-3.5725,-3.5814,-3.5872,-3.5899,-3.5899,-3.5907,-3.5934,-3.596,-3.5992,-3.6001,-3.5999,-3.5996,-3.5942,-3.5882,-3.5817,-3.5741,-3.5697,-3.569,-3.5673,-3.5637,-3.5606,-3.5577,-3.5521,-3.5496,-3.5509,-3.5494,-3.5453,-3.5231,-3.4944,-3.4618,-3.4215,-3.3998,-3.3998,-3.3972,-3.3959,-3.3998,-3.3998,-3.4201,-3.4602,-3.5064,-3.5908,-3.7119,-3.7608,-3.8307,-0.9992,-1.0258,-1.0662,-1.1319,-1.192,-1.2609,-1.3487,-1.3838,-1.4029,-1.4156,-1.3909,-1.4097,-1.5293,-1.5819,-1.6739,-1.8751,-1.9407,-1.962,-1.9525,-1.9599,-1.9638,-1.9548,-2.0093,-2.081,-2.1721,-2.251,-2.3375,-2.4345,-2.4457,-2.4319,-2.3967,-2.4278,-2.4516,-2.4589,-2.5008,-2.5427,-2.5893,-2.6204,-2.689,-2.7898,-2.8511,-2.9198,-2.9896,-2.9896,-3.0011,-3.0231,-3.0848,-3.1338,-3.175,-3.2369,-3.2737,-3.29,-3.29,-3.3008,-3.3199,-3.3723,-3.4237,-3.4689,-3.485,-3.4908,-3.4908,-3.4908,-3.4955,-3.5029,-3.5084,-3.5171,-3.5311,-3.5546,-3.5641,-3.5713,-3.5855,-3.5894,-3.5897,-3.5907,-3.596,-3.5992,-3.5997,-3.6009,-3.6003,-3.5996,-3.5948,-3.5873,-3.5814,-3.5743,-3.5698,-3.5695,-3.5643,-3.5601,-3.5595,-3.5547,-3.5502,-3.5496,-3.5501,-3.546,-3.5379,-3.5138,-3.4813,-3.4454,-3.4086,-3.3895,-3.3947,-3.3895,-3.3895,-3.3947,-3.3947,-3.3947,-3.3947,-3.4624,-3.5393,-3.6224,-3.7068,-3.7951,-1.0207,-1.0695,-1.1278,-1.1805,-1.1551,-1.1592,-1.3295,-1.3387,-1.3412,-1.4441,-1.4622,-1.4699,-1.502,-1.6218,-1.7435,-1.822,-1.8844,-1.9276,-1.9323,-1.9326,-1.9335,-1.9308,-1.9387,-2.0029,-2.1652,-2.188,-2.2558,-2.4116,-2.3764,-2.3583,-2.3723,-2.2995,-2.3227,-2.4563,-2.4272,-2.4708,-2.5893,-2.5921,-2.6602,-2.7898,-2.8343,-2.902,-2.9896,-2.9896,-3.0011,-3.0189,-3.0253,-3.0825,-3.1695,-3.175,-3.2231,-3.29,-3.29,-3.3288,-3.3841,-3.3956,-3.4368,-3.4889,-3.4879,-3.4908,-3.4908,-3.4908,-3.4992,-3.5092,-3.5092,-3.5143,-3.5251,-3.5525,-3.5593,-3.5655,-3.5855,-3.5907,-3.5907,-3.5909,-3.5945,-3.5999,-3.5999,-3.5994,-3.6005,-3.5991,-3.5956,-3.5875,-3.5819,-3.5748,-3.5702,-3.5701,-3.5643,-3.5595,-3.5604,-3.5534,-3.5496,-3.5507,-3.55,-3.5453,-3.5323,-3.4888,-3.4612,-3.4497,-3.4062,-3.382,-3.3802,-3.382,-3.382,-3.3802,-3.3802,-3.3802,-3.3802,-3.3875,-3.4393,-3.5302,-3.6118,-3.6971,-1.0223,-1.1088,-1.1903,-1.1969,-1.2135,-1.274,-1.4524,-1.5022,-1.5025,-1.474,-1.524,-1.5661,-1.5291,-1.6833,-1.8096,-1.7968,-1.8666,-1.9276,-1.928,-1.9301,-1.9301,-1.9301,-1.9301,-1.9766,-2.0885,-2.0779,-2.1284,-2.2858,-2.2557,-2.2364,-2.2569,-2.2399,-2.2775,-2.3872,-2.3903,-2.4525,-2.5893,-2.5893,-2.651,-2.7665,-2.7987,-2.8748,-2.9896,-2.9896,-3.0011,-3.021,-3.0452,-3.0988,-3.1714,-3.1967,-3.2403,-3.29,-3.2948,-3.3144,-3.3443,-3.3854,-3.4201,-3.4502,-3.4802,-3.4908,-3.4917,-3.4945,-3.502,-3.512,-3.5147,-3.5179,-3.5262,-3.5523,-3.5604,-3.564,-3.5846,-3.5904,-3.5912,-3.5958,-3.597,-3.6002,-3.5995,-3.6001,-3.6007,-3.5993,-3.5956,-3.5882,-3.5861,-3.5762,-3.5704,-3.5688,-3.5632,-3.559,-3.5598,-3.5547,-3.5501,-3.55,-3.5439,-3.5293,-3.5066,-3.4745,-3.4464,-3.4314,-3.3979,-3.3807,-3.3807,-3.3807,-3.3807,-3.3807,-3.3807,-3.3807,-3.3807,-3.3807,-3.4243,-3.5096,-3.5984,-3.6836,-1.0891,-1.1757,-1.2529,-1.2473,-1.2777,-1.3571,-1.5323,-1.5779,-1.5861,-1.5745,-1.5861,-1.5947,-1.5924,-1.68,-1.7557,-1.7662,-1.849,-1.9152,-1.9262,-1.9301,-1.9301,-1.9301,-1.9301,-1.9562,-2.0226,-2.0049,-2.041,-2.1578,-2.1501,-2.145,-2.1563,-2.1832,-2.2416,-2.345,-2.3699,-2.4467,-2.5893,-2.5893,-2.6363,-2.7312,-2.764,-2.8472,-2.9792,-2.9858,-2.9989,-3.0146,-3.0472,-3.1007,-3.166,-3.1967,-3.242,-3.29,-3.2963,-3.3086,-3.3291,-3.3802,-3.4141,-3.4386,-3.4772,-3.4908,-3.4917,-3.4983,-3.5057,-3.5101,-3.5183,-3.5196,-3.5262,-3.5523,-3.5604,-3.564,-3.5843,-3.5924,-3.5936,-3.5984,-3.5995,-3.6009,-3.6002,-3.6005,-3.6009,-3.5994,-3.5956,-3.593,-3.5897,-3.5811,-3.5718,-3.5689,-3.5618,-3.556,-3.556,-3.5521,-3.55,-3.55,-3.5372,-3.5192,-3.4943,-3.4675,-3.4409,-3.4221,-3.3947,-3.3807,-3.3807,-3.3807,-3.3793,-3.378,-3.378,-3.3766,-3.3739,-3.3739,-3.4032,-3.4568,-3.5495,-3.6364,-1.2302,-1.2811,-1.3154,-1.3336,-1.3398,-1.3808,-1.5372,-1.5157,-1.533,-1.7538,-1.6419,-1.5447,-1.6858,-1.5976,-1.5605,-1.7401,-1.8263,-1.8851,-1.9222,-1.9301,-1.9301,-1.9301,-1.9301,-1.944,-1.9837,-1.9863,-2.0048,-2.0461,-2.0715,-2.0873,-2.0873,-2.1206,-2.2051,-2.345,-2.3699,-2.4467,-2.5866,-2.5893,-2.6258,-2.6901,-2.7312,-2.8192,-2.9493,-2.977,-2.9924,-2.9995,-3.0146,-3.0686,-3.1497,-3.1641,-3.2179,-3.29,-3.2963,-3.3205,-3.3542,-3.3867,-3.4249,-3.4634,-3.484,-3.4908,-3.4917,-3.4983,-3.5057,-3.5101,-3.5191,-3.5196,-3.5262,-3.5519,-3.5607,-3.5645,-3.5855,-3.5958,-3.6005,-3.6005,-3.6001,-3.5995,-3.6003,-3.6008,-3.5992,-3.5994,-3.5996,-3.5975,-3.5919,-3.5836,-3.5785,-3.572,-3.559,-3.5509,-3.5509,-3.5508,-3.55,-3.55,-3.5372,-3.5219,-3.5025,-3.4695,-3.4428,-3.4221,-3.3947,-3.3788,-3.3807,-3.3807,-3.378,-3.3698,-3.3698,-3.3657,-3.3605,-3.3605,-3.3605,-3.3623,-3.4493,-3.5341,-1.2392,-1.336,-1.4101,-1.3549,-1.4019,-1.4727,-1.5179,-1.4713,-1.4706,-1.6527,-1.6399,-1.6164,-1.6711,-1.7141,-1.7334,-1.7243,-1.8058,-1.8732,-1.8851,-1.8891,-1.8891,-1.8891,-1.8632,-1.8485,-1.862,-1.8127,-1.8061,-1.8692,-1.8666,-1.9096,-2.0084,-2.0486,-2.1333,-2.2695,-2.3416,-2.4195,-2.505,-2.5619,-2.615,-2.6628,-2.721,-2.8061,-2.909,-2.9448,-2.9754,-2.9995,-3.0146,-3.0686,-3.1552,-3.2266,-3.267,-3.2916,-3.3026,-3.3132,-3.3291,-3.3923,-3.4215,-3.4374,-3.4762,-3.4936,-3.4992,-3.5057,-3.512,-3.5172,-3.5196,-3.5193,-3.5239,-3.5405,-3.5537,-3.5631,-3.5779,-3.5919,-3.5995,-3.5995,-3.6004,-3.5996,-3.6007,-3.5991,-3.5992,-3.5996,-3.5996,-3.5996,-3.5975,-3.5877,-3.5781,-3.5762,-3.5625,-3.5496,-3.5508,-3.5467,-3.5412,-3.5364,-3.532,-3.5209,-3.4954,-3.4832,-3.462,-3.4233,-3.4124,-3.3998,-3.382,-3.3807,-3.378,-3.3698,-3.3698,-3.3684,-3.3671,-3.3615,-3.3615,-3.3689,-3.4521,-3.5341,-1.3549,-1.4378,-1.4877,-1.433,-1.4699,-1.5151,-1.4894,-1.5095,-1.5628,-1.6583,-1.6568,-1.659,-1.7109,-1.7425,-1.7588,-1.7557,-1.8128,-1.8612,-1.87,-1.8559,-1.8452,-1.8452,-1.8115,-1.7843,-1.7636,-1.7202,-1.7036,-1.7301,-1.7461,-1.8118,-1.9344,-1.9879,-2.0846,-2.2341,-2.3148,-2.3891,-2.4684,-2.5398,-2.5921,-2.6285,-2.6993,-2.769,-2.8376,-2.9159,-2.9665,-2.9989,-3.0472,-3.101,-3.1661,-3.2537,-3.29,-3.2916,-3.3026,-3.3088,-3.3175,-3.3884,-3.4154,-3.4269,-3.4742,-3.4945,-3.5011,-3.5075,-3.5147,-3.5208,-3.5193,-3.5209,-3.5239,-3.5425,-3.5535,-3.5645,-3.584,-3.5948,-3.5999,-3.5999,-3.6009,-3.6,-3.6009,-3.5992,-3.5994,-3.5996,-3.5996,-3.5996,-3.5996,-3.591,-3.5825,-3.5775,-3.56,-3.5495,-3.5507,-3.546,-3.5412,-3.5357,-3.532,-3.519,-3.4917,-3.4898,-3.4723,-3.4337,-3.4239,-3.4124,-3.3921,-3.382,-3.3726,-3.3657,-3.3629,-3.3619,-3.3577,-3.3534,-3.3534,-3.3577,-3.4122,-3.4808,-1.5227,-1.5583,-1.5562,-1.5433,-1.5389,-1.5257,-1.4608,-1.594,-1.727,-1.7188,-1.6829,-1.678,-1.7789,-1.7196,-1.6944,-1.8152,-1.8362,-1.8434,-1.8567,-1.8201,-1.7964,-1.8006,-1.7632,-1.7261,-1.6881,-1.69,-1.6696,-1.6307,-1.6906,-1.7711,-1.8734,-1.9377,-2.0504,-2.2249,-2.2786,-2.3551,-2.457,-2.516,-2.5592,-2.5921,-2.6721,-2.7236,-2.7525,-2.8865,-2.9621,-2.9968,-3.0928,-3.1473,-3.175,-3.2521,-3.2868,-3.2916,-3.2979,-3.3057,-3.3175,-3.3795,-3.4111,-3.4269,-3.4742,-3.4945,-3.502,-3.5084,-3.5147,-3.5198,-3.5193,-3.5209,-3.5254,-3.5489,-3.5574,-3.566,-3.5903,-3.5988,-3.6001,-3.6002,-3.5995,-3.6006,-3.5991,-3.5993,-3.5995,-3.5996,-3.5996,-3.5996,-3.5995,-3.5938,-3.5846,-3.5717,-3.5582,-3.5514,-3.55,-3.55,-3.546,-3.5405,-3.535,-3.5203,-3.4943,-3.4926,-3.4831,-3.4551,-3.436,-3.4203,-3.4099,-3.3842,-3.3657,-3.3591,-3.352,-3.3466,-3.3408,-3.3393,-3.3393,-3.3408,-3.3534,-3.4025,-1.5093,-1.5738,-1.6293,-1.5567,-1.5389,-1.5347,-1.5215,-1.5797,-1.6245,-1.5684,-1.6427,-1.7261,-1.7473,-1.7587,-1.774,-1.804,-1.808,-1.8009,-1.7795,-1.7156,-1.6801,-1.7111,-1.6313,-1.5906,-1.6463,-1.6232,-1.6033,-1.5911,-1.6202,-1.701,-1.8499,-1.8857,-1.9781,-2.14,-2.2156,-2.2955,-2.3761,-2.4498,-2.5217,-2.5921,-2.6721,-2.7236,-2.754,-2.8669,-2.9486,-3.0017,-3.0662,-3.115,-3.1588,-3.2179,-3.2622,-3.2916,-3.3024,-3.3086,-3.3193,-3.3897,-3.4185,-3.4269,-3.4742,-3.4983,-3.5084,-3.5111,-3.5145,-3.5193,-3.5201,-3.5209,-3.5198,-3.5278,-3.5432,-3.5611,-3.5676,-3.5841,-3.5992,-3.5999,-3.6002,-3.6007,-3.5993,-3.5995,-3.5995,-3.5996,-3.5996,-3.5996,-3.5995,-3.5938,-3.5847,-3.565,-3.5607,-3.5571,-3.5514,-3.5453,-3.5405,-3.5323,-3.5304,-3.525,-3.513,-3.5132,-3.5035,-3.4831,-3.4763,-3.4556,-3.4124,-3.3842,-3.3629,-3.352,-3.3509,-3.3477,-3.3481,-3.3422,-3.3422,-3.3481,-3.3509,-3.3938,-1.5944,-1.6404,-1.6576,-1.6139,-1.5707,-1.5389,-1.5389,-1.5597,-1.5673,-1.5325,-1.6196,-1.7066,-1.7066,-1.7432,-1.7716,-1.7716,-1.7726,-1.7697,-1.7531,-1.6842,-1.6396,-1.6587,-1.5936,-1.5646,-1.6088,-1.5917,-1.5805,-1.5805,-1.5903,-1.6542,-1.7891,-1.8398,-1.9266,-2.0624,-2.1628,-2.2543,-2.3314,-2.4108,-2.4908,-2.573,-2.6642,-2.7439,-2.81,-2.8904,-2.9554,-3.0038,-3.0559,-3.1069,-3.1534,-3.2074,-3.2539,-3.2916,-3.3039,-3.3101,-3.316,-3.3784,-3.4086,-3.4257,-3.4628,-3.4917,-3.5092,-3.5092,-3.5153,-3.5209,-3.5209,-3.5209,-3.5207,-3.5274,-3.5444,-3.5621,-3.5689,-3.5847,-3.5995,-3.6006,-3.6008,-3.6009,-3.5994,-3.5995,-3.5996,-3.5996,-3.5996,-3.5996,-3.5994,-3.5949,-3.5867,-3.5753,-3.5655,-3.5585,-3.5553,-3.5489,-3.5412,-3.5315,-3.5293,-3.5273,-3.5209,-3.5209,-3.5168,-3.5054,-3.4898,-3.4653,-3.4348,-3.3954,-3.3671,-3.3491,-3.3466,-3.3452,-3.3452,-3.3408,-3.3408,-3.3452,-3.3495,-3.3709,-1.6707,-1.6887,-1.6739,-1.6903,-1.6263,-1.5624,-1.5624,-1.5506,-1.5389,-1.5389,-1.6046,-1.6615,-1.6615,-1.6984,-1.7286,-1.7309,-1.7276,-1.7267,-1.7287,-1.658,-1.6091,-1.6096,-1.5753,-1.5505,-1.5584,-1.5655,-1.5691,-1.5691,-1.5761,-1.6237,-1.7301,-1.8094,-1.8967,-2.0031,-2.1187,-2.2218,-2.3088,-2.3754,-2.4565,-2.5522,-2.659,-2.763,-2.8614,-2.9175,-2.9605,-2.9951,-3.0472,-3.101,-3.1532,-3.2003,-3.2471,-3.2916,-3.3039,-3.3101,-3.3162,-3.3625,-3.3972,-3.4245,-3.4506,-3.482,-3.5092,-3.5092,-3.5153,-3.5209,-3.5209,-3.5209,-3.5242,-3.5348,-3.5486,-3.563,-3.5749,-3.5885,-3.5998,-3.6009,-3.5991,-3.5992,-3.5995,-3.5996,-3.5996,-3.5996,-3.5996,-3.5995,-3.5991,-3.5942,-3.5899,-3.5892,-3.5732,-3.5604,-3.5607,-3.5522,-3.542,-3.5315,-3.53,-3.527,-3.5209,-3.5209,-3.5209,-3.5209,-3.4935,-3.4724,-3.4612,-3.4184,-3.3815,-3.3534,-3.3452,-3.3393,-3.3393,-3.3393,-3.3393,-3.3393,-3.3452,-3.3495,-1.5722,-1.6191,-1.6862,-1.7634,-1.7188,-1.6535,-1.6535,-1.5948,-1.5389,-1.5389,-1.5797,-1.617,-1.617,-1.6533,-1.679,-1.6875,-1.6587,-1.6382,-1.6465,-1.5531,-1.4985,-1.5312,-1.4685,-1.4374,-1.4748,-1.507,-1.5275,-1.5275,-1.5611,-1.6202,-1.707,-1.7993,-1.8924,-1.9803,-2.0773,-2.1889,-2.3088,-2.3207,-2.4018,-2.5522,-2.659,-2.7479,-2.8198,-2.885,-2.9305,-2.9582,-3.0065,-3.0703,-3.1435,-3.1677,-3.2231,-3.2916,-3.3039,-3.3101,-3.3162,-3.3625,-3.3972,-3.4245,-3.4506,-3.482,-3.5092,-3.5092,-3.5153,-3.5209,-3.5209,-3.5209,-3.5218,-3.53,-3.5451,-3.5616,-3.5691,-3.5853,-3.6004,-3.6009,-3.5993,-3.5995,-3.5996,-3.5996,-3.5996,-3.5996,-3.5995,-3.5991,-3.6006,-3.5996,-3.5976,-3.5916,-3.5788,-3.5665,-3.5618,-3.5444,-3.5323,-3.5308,-3.5297,-3.5277,-3.5209,-3.5209,-3.5209,-3.5209,-3.5157,-3.4963,-3.4603,-3.4529,-3.4225,-3.3684,-3.3477,-3.3393,-3.3393,-3.3393,-3.3393,-3.3393,-3.3408,-3.3408,-1.6944,-1.7302,-1.7827,-1.8678,-1.8341,-1.769,-1.7464,-1.7302,-1.7058,-1.6591,-1.6604,-1.6469,-1.5871,-1.6113,-1.6445,-1.6522,-1.6215,-1.6053,-1.6314,-1.5531,-1.5009,-1.5185,-1.4875,-1.4661,-1.4597,-1.4955,-1.5204,-1.5204,-1.5576,-1.614,-1.6959,-1.7765,-1.8566,-1.9365,-2.0645,-2.169,-2.2531,-2.3165,-2.4281,-2.5866,-2.6695,-2.7378,-2.7959,-2.8732,-2.9259,-2.9515,-2.9995,-3.0662,-3.1416,-3.1621,-3.2162,-3.2916,-3.3039,-3.3101,-3.3132,-3.3462,-3.3829,-3.4221,-3.4328,-3.468,-3.5092,-3.5092,-3.5153,-3.5209,-3.5209,-3.5209,-3.5218,-3.5277,-3.5438,-3.5611,-3.5678,-3.585,-3.6005,-3.5991,-3.5993,-3.5995,-3.5996,-3.5996,-3.5996,-3.5996,-3.5992,-3.6007,-3.6004,-3.5998,-3.5988,-3.5953,-3.5846,-3.5741,-3.5665,-3.5501,-3.5381,-3.5304,-3.53,-3.5269,-3.5209,-3.5209,-3.5209,-3.5209,-3.516,-3.5073,-3.4879,-3.4651,-3.4413,-3.4161,-3.3766,-3.3506,-3.3393,-3.3393,-3.3393,-3.3393,-3.3393,-3.3393,-1.7868,-1.806,-1.831,-1.9353,-1.9067,-1.8532,-1.851,-1.8461,-1.8254,-1.7643,-1.7189,-1.6679,-1.5905,-1.589,-1.6038,-1.6008,-1.5798,-1.5696,-1.5926,-1.5414,-1.5026,-1.4911,-1.4919,-1.4776,-1.4353,-1.4669,-1.4919,-1.4919,-1.5497,-1.6105,-1.6656,-1.7662,-1.8442,-1.9021,-2.0581,-2.1628,-2.2101,-2.3344,-2.461,-2.5824,-2.6613,-2.7251,-2.775,-2.8677,-2.9259,-2.9515,-2.9951,-3.0621,-3.1416,-3.1567,-3.2144,-3.2916,-3.3039,-3.3101,-3.3117,-3.3334,-3.3739,-3.4209,-3.4203,-3.4588,-3.5092,-3.5129,-3.517,-3.5218,-3.5209,-3.5198,-3.5242,-3.5293,-3.5451,-3.5645,-3.5696,-3.5858,-3.6007,-3.5991,-3.5994,-3.5996,-3.5996,-3.5996,-3.5996,-3.5994,-3.6009,-3.6004,-3.6002,-3.5996,-3.5992,-3.5992,-3.5885,-3.5774,-3.5741,-3.5618,-3.547,-3.5335,-3.5331,-3.5293,-3.5209,-3.5209,-3.5209,-3.5209,-3.5143,-3.5119,-3.5092,-3.4781,-3.4572,-3.4495,-3.4074,-3.3726,-3.3481,-3.3422,-3.3393,-3.3393,-3.3393,-3.3393,-1.748,-1.7432,-1.7796,-1.9244,-1.8948,-1.8581,-1.958,-1.8836,-1.792,-1.789,-1.7103,-1.6451,-1.6447,-1.6012,-1.5534,-1.5215,-1.5144,-1.5009,-1.4748,-1.4649,-1.4489,-1.4201,-1.4165,-1.3985,-1.3601,-1.392,-1.4165,-1.4165,-1.5303,-1.6009,-1.6044,-1.7779,-1.8767,-1.88,-2.0505,-2.1628,-2.2101,-2.3669,-2.4666,-2.5061,-2.6188,-2.699,-2.754,-2.8622,-2.9259,-2.9515,-2.9864,-3.0539,-3.1416,-3.1476,-3.2057,-3.2916,-3.3039,-3.3101,-3.3117,-3.3334,-3.3739,-3.4191,-3.4213,-3.4601,-3.5101,-3.5164,-3.5239,-3.5277,-3.5218,-3.5239,-3.53,-3.5308,-3.5482,-3.5691,-3.5702,-3.5841,-3.5992,-3.5994,-3.5996,-3.5996,-3.5995,-3.5995,-3.5994,-3.6007,-3.6004,-3.6002,-3.5995,-3.5992,-3.5992,-3.5992,-3.5892,-3.5801,-3.5801,-3.5684,-3.5537,-3.5405,-3.5388,-3.5335,-3.5218,-3.5209,-3.5209,-3.5209,-3.5201,-3.516,-3.5092,-3.4964,-3.4752,-3.4506,-3.434,-3.4074,-3.3684,-3.3477,-3.3393,-3.3393,-3.3393,-3.3393,-1.855,-1.863,-1.8766,-1.9437,-1.9554,-1.9554,-1.9692,-1.96,-1.9343,-1.8825,-1.8357,-1.7885,-1.754,-1.6476,-1.5646,-1.5549,-1.5122,-1.482,-1.4979,-1.4597,-1.4238,-1.4129,-1.4093,-1.3956,-1.3528,-1.3848,-1.4093,-1.4093,-1.4947,-1.5798,-1.6559,-1.7423,-1.825,-1.8954,-2.0549,-2.2013,-2.3258,-2.4076,-2.4666,-2.5005,-2.6162,-2.699,-2.754,-2.8622,-2.9259,-2.9515,-2.9864,-3.0539,-3.1416,-3.1476,-3.2057,-3.2916,-3.3011,-3.3055,-3.3117,-3.3274,-3.3591,-3.3972,-3.4135,-3.4467,-3.4879,-3.5129,-3.5239,-3.5304,-3.5269,-3.5289,-3.5315,-3.5357,-3.5537,-3.5693,-3.571,-3.5847,-3.5994,-3.5996,-3.5996,-3.5995,-3.5993,-3.5991,-3.6009,-3.6009,-3.6003,-3.5996,-3.5992,-3.5992,-3.5992,-3.5992,-3.5919,-3.5849,-3.581,-3.5712,-3.5615,-3.5476,-3.547,-3.5437,-3.5335,-3.5327,-3.5289,-3.5209,-3.5209,-3.5168,-3.5101,-3.4964,-3.4831,-3.4706,-3.442,-3.4173,-3.3895,-3.3684,-3.3591,-3.3591,-3.3466,-3.3393,-1.8904,-1.8789,-1.8816,-1.8805,-1.9117,-1.9498,-1.9584,-1.99,-2.0062,-1.9519,-1.9028,-1.8592,-1.8164,-1.7098,-1.617,-1.5902,-1.5399,-1.4963,-1.4848,-1.4525,-1.4165,-1.392,-1.3884,-1.3775,-1.3535,-1.3739,-1.3985,-1.4266,-1.501,-1.5956,-1.7001,-1.7569,-1.8486,-1.9846,-2.1112,-2.2476,-2.3891,-2.4203,-2.4565,-2.5005,-2.5892,-2.673,-2.754,-2.8463,-2.9129,-2.9515,-2.982,-3.0518,-3.1416,-3.1476,-3.2057,-3.2916,-3.2995,-3.3073,-3.3117,-3.3292,-3.3591,-3.3954,-3.4159,-3.4508,-3.487,-3.5127,-3.5245,-3.5308,-3.5293,-3.5339,-3.5379,-3.543,-3.5563,-3.571,-3.5768,-3.5884,-3.5996,-3.5996,-3.5995,-3.5993,-3.5993,-3.6009,-3.6004,-3.6006,-3.5999,-3.5991,-3.5965,-3.5965,-3.5963,-3.5976,-3.5931,-3.5875,-3.5833,-3.5795,-3.5718,-3.5579,-3.5562,-3.5526,-3.5437,-3.5407,-3.5357,-3.5273,-3.5226,-3.5176,-3.5145,-3.4982,-3.4898,-3.4898,-3.4572,-3.4351,-3.4269,-3.3881,-3.3698,-3.3698,-3.3477,-3.3393,0.0,0.0,0.0,-1.736,-1.7628,-1.8267,-1.9301,-1.9672,-1.9782,-1.9772,-1.9012,-1.8303,-1.8303,-1.7828,-1.7132,-1.6219,-1.5929,-1.5434,-1.431,-1.4418,-1.4353,-1.3601,-1.3528,-1.3528,-1.3535,-1.3528,-1.384,-1.4565,-1.5482,-1.6419,-1.737,-1.8317,-1.9616,-2.1356,-2.2175,-2.3022,-2.3891,-2.4037,-2.439,-2.5005,-2.5412,-2.6281,-2.7515,-2.8222,-2.8881,-2.9515,-2.9792,-3.0493,-3.1416,-3.1476,-3.2057,-3.2916,-3.3057,-3.3101,-3.3117,-3.3334,-3.3739,-3.4191,-3.4265,-3.4653,-3.5101,-3.5176,-3.5246,-3.53,-3.53,-3.5395,-3.5508,-3.55,-3.5606,-3.5729,-3.587,-3.5945,-3.5996,-3.5996,-3.5995,-3.5992,-3.5994,-3.5991,-3.6002,-3.5994,-3.5992,-3.5988,-3.591,-3.5908,-3.5899,-3.5894,-3.5908,-3.5897,-3.5905,-3.5901,-3.5842,-3.5728,-3.5693,-3.5657,-3.5513,-3.5443,-3.5412,-3.5405,-3.5281,-3.5209,-3.5201,-3.501,-3.4955,-3.5084,-3.478,-3.4666,-3.4788,-3.4074,-3.3712,-3.3712,-3.3509,-3.3411,-2.0714,0.0,0.0,0.0,0.0,0.0,-1.8522,-1.8743,-1.8934,-1.9228,-1.9057,-1.8875,-1.8875,-1.8438,-1.7964,-1.7716,-1.7054,-1.6315,-1.5586,-1.5365,-1.501,-1.4353,-1.4101,-1.4029,-1.4281,-1.4302,-1.451,-1.5018,-1.5895,-1.6724,-1.737,-1.89,-2.0258,-2.1356,-2.2175,-2.3022,-2.3891,-2.4037,-2.439,-2.5005,-2.5701,-2.6558,-2.754,-2.8503,-2.919,-2.9659,-2.9989,-3.0625,-3.1476,-3.1437,-3.2021,-3.2916,-3.2995,-3.3057,-3.3117,-3.3259,-3.3577,-3.3959,-3.4206,-3.4529,-3.487,-3.5176,-3.5289,-3.5315,-3.5369,-3.5432,-3.5508,-3.5562,-3.563,-3.5746,-3.5923,-3.5996,-3.5995,-3.5995,-3.5992,-3.6007,-3.6008,-3.6002,-3.5998,-3.6001,-3.5996,-3.5988,-3.591,-3.5908,-3.5899,-3.5894,-3.5891,-3.5892,-3.5901,-3.5853,-3.5803,-3.5773,-3.5769,-3.5737,-3.5643,-3.5629,-3.5553,-3.542,-3.5376,-3.5273,-3.5136,-3.4973,-3.4917,-3.4945,-3.481,-3.4768,-3.4798,-3.4351,-3.4136,-3.4124,-3.378,-3.3534,-2.1406,-2.0736,-2.0113,-1.8824,0.0,0.0,-1.8918,-1.9077,-1.9353,-2.0031,-1.9802,-1.9584,-1.9802,-1.9408,-1.8998,-1.8875,-1.8385,-1.7653,-1.6524,-1.6202,-1.5886,-1.5365,-1.5152,-1.5081,-1.5294,-1.5321,-1.5525,-1.6062,-1.662,-1.7345,-1.8355,-1.9814,-2.0996,-2.1784,-2.2689,-2.3378,-2.3891,-2.4128,-2.452,-2.5005,-2.5783,-2.6573,-2.7363,-2.8391,-2.9059,-2.948,-2.9908,-3.0625,-3.1475,-3.1456,-3.2021,-3.29,-3.2963,-3.3042,-3.3117,-3.3274,-3.3619,-3.3992,-3.4242,-3.4572,-3.4908,-3.5212,-3.5297,-3.5315,-3.5372,-3.5453,-3.5515,-3.5574,-3.5693,-3.5809,-3.5953,-3.5996,-3.5995,-3.5995,-3.5992,-3.6007,-3.6005,-3.5999,-3.5994,-3.5999,-3.5971,-3.5956,-3.5916,-3.5904,-3.5886,-3.5853,-3.5868,-3.5857,-3.5857,-3.5811,-3.5795,-3.5795,-3.5795,-3.5778,-3.5757,-3.5728,-3.5646,-3.5534,-3.5462,-3.5354,-3.5237,-3.5073,-3.5011,-3.5028,-3.4898,-3.484,-3.484,-3.4564,-3.4302,-3.4087,-3.3829,-3.3619,-2.1389,-2.091,-2.0478,-1.9059,-1.9,0.0,-1.9846,-2.0009,-2.0323,-2.1239,-2.073,-2.0258,-2.073,-2.0344,-1.9911,-1.9704,-1.9605,-1.8954,-1.7276,-1.7079,-1.6897,-1.6481,-1.6376,-1.6376,-1.6411,-1.6411,-1.6715,-1.7413,-1.7575,-1.8311,-1.9868,-2.0933,-2.1784,-2.2402,-2.3378,-2.392,-2.392,-2.4305,-2.4694,-2.509,-2.5797,-2.6534,-2.7251,-2.8149,-2.8803,-2.919,-2.9776,-3.0559,-3.1416,-3.1495,-3.2074,-3.2916,-3.2979,-3.3057,-3.315,-3.3334,-3.3753,-3.4215,-3.4353,-3.4704,-3.5127,-3.5253,-3.5297,-3.5315,-3.5398,-3.5453,-3.5515,-3.5596,-3.5764,-3.5924,-3.5973,-3.5996,-3.5996,-3.5995,-3.5993,-3.6009,-3.6004,-3.5998,-3.5992,-3.5992,-3.5942,-3.5903,-3.5899,-3.5891,-3.5878,-3.5811,-3.5803,-3.5803,-3.5795,-3.5818,-3.5803,-3.5795,-3.5818,-3.5803,-3.5795,-3.5757,-3.5693,-3.5678,-3.5515,-3.5393,-3.5391,-3.5204,-3.5136,-3.5201,-3.5019,-3.4927,-3.4917,-3.4674,-3.4311,-3.386,-3.3757,-3.3661,-2.2914,-2.2092,-2.1401,-2.0303,-1.954,0.0,-1.9584,-1.9693,-1.9824,-2.0291,-2.0226,-2.0128,-2.0226,-1.9715,-1.9462,-1.9944,-1.9561,-1.8931,-1.8124,-1.8022,-1.7818,-1.726,-1.6941,-1.6906,-1.7166,-1.7182,-1.7379,-1.7862,-1.8777,-1.9759,-2.0805,-2.1721,-2.2298,-2.2543,-2.3437,-2.3949,-2.4067,-2.4363,-2.4823,-2.5495,-2.6228,-2.7041,-2.7929,-2.8646,-2.919,-2.9592,-2.9995,-3.0666,-3.1495,-3.1623,-3.2179,-3.2979,-3.3039,-3.315,-3.3277,-3.3422,-3.3784,-3.4218,-3.4357,-3.4743,-3.5189,-3.5281,-3.53,-3.5323,-3.5446,-3.5493,-3.5528,-3.5653,-3.5831,-3.5988,-3.5995,-3.5996,-3.5995,-3.5992,-3.6009,-3.6004,-3.5996,-3.5994,-3.5992,-3.5992,-3.5989,-3.5963,-3.5903,-3.5897,-3.5897,-3.5878,-3.5891,-3.5857,-3.5818,-3.585,-3.5857,-3.5818,-3.585,-3.5857,-3.5799,-3.5782,-3.5708,-3.5556,-3.5508,-3.5411,-3.525,-3.5153,-3.5136,-3.5201,-3.51,-3.5082,-3.5132,-3.4559,-3.425,-3.4203,-3.3972,-3.3766,-2.3507,-2.2786,-2.2308,-2.1314,-2.07,0.0,0.0,-2.0807,-2.0839,-2.1471,-2.123,-2.086,-2.0784,-2.0269,-1.9758,-1.9485,-1.9671,-1.9573,-1.8808,-1.922,-1.9299,-1.8586,-1.8556,-1.8512,-1.825,-1.824,-1.8476,-1.9021,-1.9998,-2.0921,-2.1721,-2.2237,-2.2738,-2.3245,-2.3747,-2.4112,-2.429,-2.4593,-2.5105,-2.5864,-2.6704,-2.7464,-2.8125,-2.8928,-2.9457,-2.9742,-3.0279,-3.0871,-3.1515,-3.186,-3.242,-3.3057,-3.3057,-3.3152,-3.3325,-3.3452,-3.3792,-3.4211,-3.439,-3.4773,-3.5206,-3.5289,-3.5308,-3.5323,-3.546,-3.5515,-3.5568,-3.5659,-3.5812,-3.5961,-3.5995,-3.5996,-3.5994,-3.5992,-3.6008,-3.6002,-3.5994,-3.5992,-3.5992,-3.5992,-3.5992,-3.5988,-3.591,-3.5897,-3.5899,-3.5891,-3.5908,-3.5879,-3.584,-3.5876,-3.5898,-3.584,-3.5878,-3.5895,-3.5853,-3.5797,-3.5718,-3.5612,-3.5502,-3.5397,-3.5304,-3.519,-3.516,-3.5201,-3.5073,-3.5073,-3.5201,-3.4516,-3.425,-3.4348,-3.4179,-3.3934,-2.3744,-2.327,-2.3001,-2.1977,-2.173,-2.1792,0.0,0.0,0.0,-2.2653,-2.2247,-2.1667,-2.1506,-2.0987,-2.0345,-1.9495,-2.0031,-2.0344,-1.9693,-2.0441,-2.0741,-1.9791,-2.0182,-2.0268,-1.9518,-1.9396,-1.9682,-2.0484,-2.1071,-2.1765,-2.2586,-2.2768,-2.3173,-2.3891,-2.4083,-2.429,-2.4509,-2.4978,-2.5564,-2.6215,-2.7185,-2.7839,-2.8319,-2.9136,-2.9598,-2.9792,-3.0514,-3.1069,-3.1534,-3.2074,-3.2621,-3.3086,-3.3042,-3.3137,-3.3337,-3.352,-3.3858,-3.4246,-3.4478,-3.486,-3.5215,-3.527,-3.5315,-3.5372,-3.5475,-3.557,-3.5641,-3.5716,-3.5827,-3.5932,-3.5995,-3.5996,-3.5994,-3.5992,-3.6008,-3.6002,-3.5994,-3.5992,-3.5992,-3.5992,-3.5992,-3.5988,-3.5935,-3.5919,-3.5902,-3.5897,-3.5897,-3.5894,-3.5903,-3.5906,-3.5906,-3.5872,-3.5895,-3.5898,-3.5872,-3.5788,-3.5708,-3.5659,-3.5515,-3.5402,-3.5357,-3.5262,-3.5209,-3.5209,-3.5046,-3.5095,-3.538,-3.4824,-3.4528,-3.4412,-3.4274,-3.4036,-2.4092,-2.3482,-2.32,-2.2123,-2.1781,-2.1698,-2.1761,0.0,-2.173,-2.1855,0.0,-2.1698,-2.1667,0.0,0.0,-2.1296,-2.0828,-2.0656,-2.1308,-2.162,-2.1333,-2.0193,-2.089,-2.1239,-2.0751,-2.0365,-2.0707,-2.2051,-2.169,-2.2013,-2.3378,-2.3641,-2.3789,-2.3891,-2.4261,-2.4465,-2.4509,-2.5495,-2.6188,-2.6625,-2.7575,-2.8383,-2.9006,-2.9335,-2.9671,-2.9995,-3.0559,-3.1069,-3.1534,-3.2074,-3.2621,-3.3101,-3.3086,-3.3211,-3.3437,-3.382,-3.4099,-3.4345,-3.4714,-3.501,-3.5218,-3.5278,-3.5372,-3.5494,-3.557,-3.5645,-3.5721,-3.5844,-3.5934,-3.5994,-3.5996,-3.5996,-3.5994,-3.5992,-3.6008,-3.6002,-3.5994,-3.5992,-3.5992,-3.5992,-3.5992,-3.5992,-3.5989,-3.5988,-3.5962,-3.5906,-3.5903,-3.5907,-3.5895,-3.5894,-3.5888,-3.5819,-3.5861,-3.5887,-3.5826,-3.5791,-3.5713,-3.5531,-3.5495,-3.5417,-3.5231,-3.5218,-3.5209,-3.5209,-3.5185,-3.5443,-3.5998,-3.591,-3.5401,-3.4486,-3.4049,-3.3829,-2.4171,-2.3914,-2.3843,-2.245,-2.2285,-2.2427,-2.2061,-2.198,-2.198,-2.198,0.0,0.0,0.0,0.0,0.0,0.0,-2.106,-2.1219,-2.1071,-2.1951,-2.197,-2.0291,-2.0933,-2.1345,-2.0953,-2.1112,-2.1573,-2.2451,-2.2433,-2.2793,-2.373,-2.3861,-2.3995,-2.4232,-2.4408,-2.4794,-2.5425,-2.5864,-2.6587,-2.7525,-2.8061,-2.8677,-2.935,-2.9598,-2.9864,-3.0146,-3.0848,-3.1321,-3.1661,-3.2403,-3.2866,-3.3101,-3.3198,-3.3289,-3.3437,-3.382,-3.4099,-3.4357,-3.4723,-3.4991,-3.5198,-3.5285,-3.5379,-3.5508,-3.5587,-3.5645,-3.5735,-3.5851,-3.5958,-3.5995,-3.5996,-3.5995,-3.5992,-3.5991,-3.6005,-3.5996,-3.5994,-3.5992,-3.5992,-3.5992,-3.5992,-3.5992,-3.5992,-3.5992,-3.5989,-3.5963,-3.5962,-3.5933,-3.5902,-3.5904,-3.5897,-3.5853,-3.5885,-3.5895,-3.5857,-3.5797,-3.5698,-3.557,-3.545,-3.5323,-3.5209,-3.5209,-3.543,-3.5946,-3.5946,-3.6313,-3.7033,-3.677,-3.6381,-3.5923,-3.5101,-3.4647,-2.4546,-2.4381,-2.4315,-2.2638,-2.2561,-2.2781,-2.2359,-2.229,-2.2352,-2.2352,-2.2402,0.0,0.0,0.0,-2.1659,-2.093,0.0,-2.1765,-2.1175,-2.2063,-2.2211,-2.072,-2.1178,-2.1545,-2.1396,-2.171,-2.2206,-2.2847,-2.295,-2.3335,-2.4011,-2.4041,-2.4203,-2.4481,-2.4794,-2.5329,-2.6174,-2.6493,-2.717,-2.8222,-2.8583,-2.9044,-2.9515,-2.9792,-3.0076,-3.0405,-3.1106,-3.1585,-3.195,-3.2687,-3.3057,-3.3165,-3.3262,-3.3396,-3.3549,-3.3889,-3.4177,-3.4456,-3.4784,-3.5044,-3.5231,-3.5274,-3.5379,-3.5508,-3.5587,-3.565,-3.5723,-3.5853,-3.594,-3.5995,-3.5996,-3.5995,-3.5991,-3.5991,-3.6003,-3.5992,-3.5992,-3.5992,-3.5992,-3.5992,-3.5992,-3.5992,-3.5992,-3.5992,-3.5992,-3.5992,-3.5992,-3.5985,-3.5901,-3.5897,-3.5885,-3.5869,-3.5862,-3.5864,-3.5864,-3.5775,-3.5651,-3.5553,-3.5372,-3.5261,-3.5209,-3.543,-3.5851,-3.6481,-3.671,-3.72,-3.7956,-3.7527,-3.742,-3.7542,-3.6253,-3.5412,-2.5441,-2.4784,-2.4373,-2.2625,-2.2309,-2.242,-2.2389,-2.2555,-2.2678,-2.2678,-2.269,-2.2678,-2.2647,-2.2647,-2.2647,-2.2616,-2.2371,0.0,0.0,-2.2111,-2.1874,-2.1667,-2.1949,-2.2278,-2.2519,-2.2279,-2.25,-2.3488,-2.3105,-2.3301,-2.4423,-2.4481,-2.4494,-2.4509,-2.5508,-2.6174,-2.6383,-2.7485,-2.8198,-2.8503,-2.9159,-2.947,-2.9515,-2.9792,-3.0215,-3.0788,-3.1225,-3.1771,-3.2402,-3.2834,-3.3106,-3.3292,-3.331,-3.3509,-3.3829,-3.4159,-3.4464,-3.4743,-3.5062,-3.5231,-3.5308,-3.5308,-3.5379,-3.5508,-3.5587,-3.5644,-3.5739,-3.5856,-3.5944,-3.5996,-3.5996,-3.5995,-3.5991,-3.5991,-3.6003,-3.5992,-3.5992,-3.5992,-3.5992,-3.5992,-3.5992,-3.5992,-3.5992,-3.5992,-3.5992,-3.5992,-3.5992,-3.5981,-3.5916,-3.5892,-3.5885,-3.5807,-3.5799,-3.5799,-3.5799,-3.5732,-3.5612,-3.5427,-3.5281,-3.5209,-3.5209,-3.6003,-3.6462,-3.65,-3.7254,-3.7956,-3.8574,-3.8305,-3.8465,-3.9003,-3.7122,-3.5807,-2.5869,-2.5759,-2.5638,-2.3846,-2.3429,-2.3399,-2.3058,-2.2732,-2.2555,-2.2678,-2.2769,-2.2939,-2.3352,-2.3155,-2.3078,-2.3382,-2.3017,-2.2647,0.0,-2.2494,-2.2371,-2.2185,-2.1757,-2.1808,-2.2714,-2.2955,-2.3335,-2.4134,-2.3995,-2.414,-2.4793,-2.4637,-2.4823,-2.5536,-2.5906,-2.6546,-2.751,-2.7913,-2.8463,-2.9159,-2.9486,-2.9687,-2.9842,-3.0017,-3.0405,-3.0945,-3.1304,-3.1808,-3.2436,-3.288,-3.3168,-3.3292,-3.3352,-3.3652,-3.408,-3.4195,-3.4423,-3.4763,-3.507,-3.5239,-3.5308,-3.5308,-3.5379,-3.5528,-3.5635,-3.569,-3.5749,-3.5929,-3.5972,-3.5996,-3.5996,-3.5994,-3.5991,-3.6007,-3.6,-3.5992,-3.5992,-3.5992,-3.5992,-3.5992,-3.5992,-3.5992,-3.5992,-3.5992,-3.5992,-3.5992,-3.5963,-3.5927,-3.5894,-3.5891,-3.5878,-3.5803,-3.5795,-3.5778,-3.5732,-3.5595,-3.5469,-3.5393,-3.5273,-3.545,-3.6042,-3.6347,-3.7016,-3.8124,-3.8419,-3.8936,-3.9718,-3.9271,-3.9171,-3.9344,-3.8352,-3.7165,-2.6764,-2.6599,-2.6361,-2.4761,-2.4249,-2.4034,-2.3712,-2.3399,-2.3173,-2.3305,-2.3395,-2.3603,-2.3989,-2.3842,-2.3725,-2.3872,-2.3531,-2.3108,0.0,-2.2909,-2.2987,-2.2823,-2.2218,-2.2132,-2.304,-2.3509,-2.4126,-2.4966,-2.4769,-2.4852,-2.5342,-2.5189,-2.5398,-2.6095,-2.6561,-2.7272,-2.8222,-2.8487,-2.8958,-2.9687,-2.977,-2.9973,-3.0279,-3.0231,-3.0638,-3.1397,-3.1476,-3.1933,-3.2669,-3.2975,-3.318,-3.3352,-3.3488,-3.3805,-3.4201,-3.423,-3.451,-3.4908,-3.5124,-3.5239,-3.5308,-3.5308,-3.5422,-3.5553,-3.5641,-3.5714,-3.5797,-3.5934,-3.5973,-3.5996,-3.5996,-3.5994,-3.5991,-3.6008,-3.6,-3.5992,-3.5992,-3.5992,-3.5992,-3.5992,-3.5992,-3.5992,-3.5992,-3.5992,-3.5992,-3.5992,-3.5939,-3.5899,-3.5894,-3.5901,-3.5864,-3.5799,-3.5795,-3.576,-3.5632,-3.5509,-3.5415,-3.5327,-3.5537,-3.5908,-3.6481,-3.7073,-3.7742,-3.8514,-3.9145,-3.9603,-3.9843,-3.9619,-3.9514,-3.9489,-3.895,-3.7845]},{"header":{"parameterUnit":"m.s-1","parameterCategory":1,"la1":30.6,"la2":29.2853,"lo1":-89.7004,"lo2":-87.6739,"dy":0.0162,"dx":0.0183,"nx":112,"ny":82,"refTime":"2023-08-26T00:00:00:Z","depth":0,"parameterNumber":3,"parameterNumberName":"V-component_of_WINDS"},"data":[0.0,0.0,0.0,0.0,0.0,0.0,0.0,0.0,0.0,0.0,0.0,0.0,0.0,0.0,0.0,0.0,0.0,0.0,0.0,0.0,0.0,0.0,0.0,0.0,0.0,0.0,0.0,0.0,0.0,0.0,0.0,0.0,0.0,0.0,0.0,0.0,0.0,0.0,0.0,0.0,0.0,0.0,0.0,0.0,0.0,0.0,0.0,0.0,0.0,0.0,0.0,0.0,0.0,0.0,0.0,0.0,0.0,0.0,0.0,0.0,0.0,0.0,0.0,0.0,0.0,0.0,0.0,0.0,0.0,0.0,0.0,0.0,0.0,0.0,0.0,0.0,0.0,0.0,0.0,0.0,0.0,0.0,0.0,0.0,0.0,0.0,0.0,0.0,0.0,0.0,0.6136,0.5432,0.3307,0.1569,0.0626,-0.0268,-0.0984,-0.1431,0.0,0.0,0.0,0.0,0.0,0.0,0.0,0.0,0.0,0.0,0.0,0.0,0.0,0.0,0.0,0.0,0.0,0.0,0.0,0.0,0.0,0.0,0.0,0.0,0.0,0.0,0.0,0.0,0.0,0.0,0.0,0.0,0.0,0.0,0.0,0.0,0.0,0.0,0.0,0.0,0.0,0.0,0.0,0.0,0.0,0.0,0.0,0.0,0.0,0.0,0.0,0.0,0.0,0.0,0.0,0.0,0.0,0.0,0.0,0.0,0.0,0.0,0.0,0.0,0.0,0.0,0.0,0.0,0.0,0.0,0.0,0.0,0.0,0.0,0.0,0.0,0.0,0.0,0.0,0.0,0.0,0.0,0.0,0.0,0.0,0.0,0.0,0.0,0.0,0.0,0.0,0.0,0.0,0.0,0.0,0.0,0.0,0.0,0.0,0.0,0.0,0.0,0.0,0.0,0.5385,0.273,0.1522,0.0627,-0.0179,-0.1657,-0.2283,-0.179,0.0,0.0,0.0,0.0,0.0,0.0,0.0,0.0,0.0,0.0,0.0,0.0,0.0,0.0,0.0,0.0,0.0,0.0,0.0,0.0,0.0,0.0,0.0,0.0,0.0,0.0,0.0,0.0,0.0,0.0,0.0,0.0,0.0,0.0,0.0,0.0,0.0,0.0,0.0,0.0,0.0,0.0,0.0,0.0,0.0,0.0,0.0,0.0,0.0,0.0,0.0,0.0,0.0,0.0,0.0,0.0,0.0,0.0,0.0,0.0,0.0,0.0,0.0,0.0,0.0,0.0,0.0,0.0,0.0,0.0,0.0,0.0,0.0,0.0,0.0,0.0,0.0,0.0,0.0,0.0,0.0,0.0,0.0,0.0,0.0,0.0,0.0,0.0,0.0,0.0,0.0,0.0,0.0,0.0,0.0,0.0,0.0,0.0,0.0,0.0,0.0,0.0,0.0,0.5689,0.3701,0.1119,0.0403,-0.0358,-0.1433,-0.2596,-0.3312,-0.3358,-0.3937,0.0,0.0,0.0,0.0,0.0,0.0,0.0,0.0,0.0,0.0,0.0,0.0,0.0,0.0,0.0,0.0,0.0,0.0,0.0,0.0,0.0,0.0,0.0,0.0,0.0,0.0,0.0,0.0,0.0,0.0,0.0,0.0,0.0,0.0,0.0,0.0,0.0,0.0,0.0,0.0,0.0,0.0,0.0,0.0,0.0,0.0,0.0,0.0,0.0,0.0,0.0,0.0,0.0,0.0,0.0,0.0,0.0,0.0,0.0,0.0,0.0,0.0,0.0,0.0,0.0,0.0,0.0,0.0,0.0,0.0,0.0,0.0,0.0,0.0,0.0,0.0,0.0,0.0,0.0,0.0,0.0,0.0,0.0,0.0,0.0,0.0,0.0,0.0,0.0,0.0,0.0,0.0,0.0,0.0,0.0,0.0,0.0,0.0,0.0,0.0,0.0,0.0,0.313,0.2012,-0.0045,-0.0537,-0.1299,-0.2643,-0.3446,-0.4117,-0.4748,-0.5371,0.0,0.0,0.0,0.0,0.0,0.0,0.0,0.0,0.0,0.0,0.0,0.0,0.0,0.0,0.0,0.0,0.0,0.0,0.0,0.0,0.0,0.0,0.0,0.0,0.0,0.0,0.0,0.0,0.0,0.0,0.0,0.0,0.0,0.0,0.0,0.0,0.0,0.0,0.0,0.0,0.0,0.0,0.0,0.0,0.0,0.0,0.0,0.0,0.0,0.0,0.0,0.0,0.0,0.0,0.0,0.0,0.0,0.0,0.0,0.0,0.0,0.0,0.0,0.0,0.0,0.0,0.0,0.0,0.0,0.0,0.0,0.0,0.0,0.0,0.0,0.0,0.0,0.0,0.0,0.0,0.0,0.0,0.0,0.0,0.0,0.0,0.0,0.0,0.0,0.0,0.0,0.0,0.0,0.0,0.0,0.0,0.0,0.0,0.0,0.0,0.0,0.0,0.237,0.085,-0.0852,-0.1433,-0.2194,-0.3406,-0.4212,-0.4746,-0.4966,-0.5453,0.0,0.0,0.0,0.0,0.0,0.0,0.0,0.0,0.0,0.0,0.0,0.0,0.0,0.0,0.0,0.0,0.0,0.0,0.0,0.0,0.0,0.0,0.0,0.0,0.0,0.0,0.0,0.0,0.0,0.0,0.0,0.0,0.0,0.0,0.0,0.0,0.0,0.0,0.0,0.0,0.0,0.0,0.0,0.0,0.0,0.0,0.0,0.0,0.0,0.0,0.0,0.0,0.0,0.0,0.0,0.0,0.0,0.0,0.0,0.0,0.0,0.0,0.0,0.0,0.0,0.0,0.0,0.0,0.0,0.0,0.0,0.0,0.0,0.0,0.0,0.0,0.0,0.0,0.0,0.0,0.0,0.0,0.0,0.0,0.0,0.0,0.0,0.0,0.0,0.0,0.0,0.0,0.0,0.0,0.0,0.0,0.0,0.0,0.0,0.0,0.0,0.0,0.1654,0.0,-0.2015,-0.2374,-0.2956,-0.4168,-0.4659,-0.4924,-0.501,0.0,0.0,0.0,0.0,0.0,0.0,0.0,0.0,0.0,0.0,0.0,0.0,0.0,0.0,0.0,0.0,0.0,0.0,0.0,0.0,0.0,0.0,0.0,0.0,0.0,0.0,0.0,0.0,0.0,0.0,0.0,0.0,0.0,0.0,0.0,0.0,0.0,0.0,0.0,0.0,0.0,0.0,0.0,0.0,0.0,0.0,0.0,0.0,0.0,0.0,0.0,0.0,0.0,0.0,0.0,0.0,0.0,0.0,0.0,0.0,0.0,0.0,0.0,0.0,0.0,0.0,0.0,0.0,0.0,0.0,0.0,0.0,0.0,0.0,0.0,0.0,0.0,0.0,0.0,0.0,0.0,0.0,0.0,0.0,0.0,0.0,0.0,0.0,0.0,0.0,0.0,0.0,0.0,0.0,0.0,0.0,0.0,0.0,0.0,0.0,0.0,0.0,0.259,0.0894,-0.085,-0.2688,-0.2911,-0.3405,-0.4616,-0.4879,-0.501,-0.501,0.0,0.0,0.0,0.0,0.0,0.0,0.0,0.0,0.0,0.0,0.0,0.0,0.0,0.0,0.0,0.0,0.0,0.0,0.0,0.0,0.0,0.0,0.0,0.0,0.0,0.0,0.0,0.0,0.0,0.0,0.0,0.0,0.0,0.0,0.0,0.0,0.0,0.0,0.0,0.0,0.0,0.0,0.0,0.0,0.0,0.0,0.0,0.0,0.0,0.0,0.0,0.0,0.0,0.0,0.0,0.0,0.0,0.0,0.0,0.0,0.0,0.0,0.0,0.0,0.0,0.0,0.0,0.0,0.0,0.0,0.0,0.0,0.0,0.0,0.0,0.0,0.0,0.0,0.0,0.0,0.0,0.0,0.0,0.0,0.0,0.0,0.0,0.0,0.0,0.0,0.0,0.0,0.0,0.0,0.0,0.0,0.0,0.0,0.0,0.0,0.0,0.0,0.2144,0.0045,-0.1793,-0.2823,-0.2911,-0.3405,-0.4616,-0.4879,-0.501,0.0,0.0,0.0,0.0,0.0,0.0,0.0,0.0,0.0,0.0,0.0,0.0,0.0,0.0,0.0,0.0,0.0,0.0,0.0,0.0,0.0,0.0,0.0,0.0,0.0,0.0,0.0,0.0,0.0,0.0,0.0,0.0,0.0,0.0,0.0,0.0,0.0,0.0,0.0,0.0,0.0,0.0,0.0,0.0,0.0,0.0,0.0,0.0,0.0,0.0,0.0,0.0,0.0,0.0,0.0,0.0,0.0,0.0,0.0,0.0,0.0,0.0,0.0,0.0,0.0,0.0,0.0,0.0,0.0,0.0,0.0,0.0,0.0,0.0,0.0,0.0,0.0,0.0,0.0,0.0,0.0,0.0,0.0,0.0,0.0,0.0,0.0,0.0,0.0,0.0,0.0,0.0,0.0,0.0,0.0,0.0,0.0,0.0,0.0,0.0,0.0,0.0,0.0,0.1696,-0.0492,-0.2332,-0.3272,-0.3406,-0.3764,-0.4616,-0.4879,-0.4921,-0.4792,0.0,0.0,0.0,0.0,0.0,0.0,0.0,0.0,0.0,0.0,0.0,0.0,0.0,0.0,0.0,0.0,0.0,0.0,0.0,0.0,0.0,0.0,0.0,0.0,0.0,0.0,0.0,0.0,0.0,0.0,0.0,0.0,0.0,0.0,0.0,0.0,0.0,0.0,0.0,0.0,0.0,0.0,0.0,0.0,0.0,0.0,0.0,0.0,0.0,0.0,0.0,0.0,0.0,0.0,0.0,0.0,0.0,0.0,0.0,0.0,0.0,0.0,0.0,0.0,0.0,0.0,0.0,0.0,0.0,0.0,0.0,0.0,0.0,0.0,0.0,0.0,0.0,0.0,0.0,0.0,0.0,0.0,0.0,0.0,0.0,0.0,0.0,0.0,0.0,0.0,0.0,0.0,0.0,0.0,0.0,0.0,0.0,0.0,0.0,0.0,0.0,0.0,0.0983,-0.094,-0.2557,-0.3497,-0.3587,-0.39,-0.4616,-0.4879,-0.5097,-0.5364,0.0,0.0,0.0,0.0,0.0,0.0,0.0,0.0,0.0,0.0,0.0,0.0,0.0,0.0,0.0,0.0,0.0,0.0,0.0,0.0,0.0,0.0,0.0,0.0,0.0,0.0,0.0,0.0,0.0,0.0,0.0,0.0,0.0,0.0,0.0,0.0,0.0,0.0,0.0,0.0,0.0,0.0,0.0,0.0,0.0,0.0,0.0,0.0,0.0,0.0,0.0,0.0,0.0,0.0,0.0,0.0,0.0,0.0,0.0,0.0,0.0,0.0,0.0,0.0,0.0,0.0,0.0,0.0,0.0,0.0,0.0,0.0,0.0,0.0,0.0,0.0,0.0,0.0,0.0,0.0,0.0,0.0,0.0,0.0,0.0,0.0,0.0,0.0,0.0,0.0,0.0,0.0,0.0,0.0,0.0,0.0,0.0,0.0,0.0,0.0,0.0,0.0,0.0089,-0.1344,-0.2647,-0.3587,-0.3676,-0.3944,-0.4616,-0.4879,-0.5406,-0.6328,0.0,0.0,0.0,0.0,0.0,0.0,0.0,0.0,0.0,0.0,0.0,0.0,0.0,0.0,0.0,0.0,0.0,0.0,0.0,0.0,0.0,0.0,0.0,0.0,0.0,0.0,0.0,0.0,0.0,0.0,0.0,0.0,0.0,0.0,0.0,0.0,0.0,0.0,0.0,0.0,0.0,0.0,0.0,0.0,0.0,0.0,0.0,0.0,0.0,0.0,0.0,0.0,0.0,0.0,0.0,0.0,0.0,0.0,0.0,0.0,1.4394,1.4346,0.0,0.0,0.0,0.0,0.0,0.0,0.0,0.0,0.0,0.0,0.0,0.0,0.0,0.0,0.0,0.0,0.0,0.0,0.0,0.0,0.0,0.0,0.0,0.0,0.0,0.0,0.0,0.0,0.0,0.0,0.0,0.0,0.0,0.0,0.0,0.0,0.0,0.0,0.0,0.0,-0.0402,-0.1834,-0.3092,-0.4032,-0.4166,-0.421,-0.4389,-0.4743,-0.5319,-0.6113,-0.6425,0.0,0.0,0.0,0.0,0.0,0.0,0.0,0.0,0.0,0.0,0.0,0.0,0.0,0.0,0.0,0.0,0.0,0.0,0.0,0.0,0.0,0.0,0.0,0.0,0.0,0.0,0.0,0.0,0.0,0.0,0.0,0.0,0.0,0.0,0.0,0.0,0.0,0.0,0.0,0.0,0.0,0.0,0.0,0.0,0.0,0.0,0.0,0.0,0.0,0.0,0.0,0.0,0.0,0.0,0.0,0.0,0.0,0.0,0.0,1.4436,1.4298,0.0,0.0,0.0,0.0,0.0,0.0,0.0,0.0,0.0,0.0,0.0,0.0,0.0,0.0,0.0,0.0,0.0,0.0,0.0,0.0,0.0,0.0,0.0,0.0,0.0,0.0,0.0,0.0,0.0,0.0,0.0,0.0,0.0,0.0,0.0,0.0,0.0,0.0,0.0,0.0,-0.0895,-0.2149,-0.3181,-0.3898,-0.4166,-0.4433,-0.479,-0.5144,-0.5938,-0.7346,-0.7349,0.0,0.0,0.0,0.0,0.0,0.0,0.0,0.0,0.0,0.0,0.0,0.0,0.0,0.0,0.0,0.0,0.0,0.0,0.0,0.0,0.0,0.0,0.0,0.0,0.0,0.0,0.0,0.0,0.0,0.0,0.0,0.0,0.0,0.0,0.0,0.0,0.0,0.0,0.0,0.0,0.0,0.0,0.0,0.0,0.0,0.0,0.0,0.0,0.0,0.0,0.0,0.0,0.0,1.7971,1.7552,1.7264,1.5994,1.5343,1.5146,1.458,1.4298,1.4298,1.4298,0.0,0.0,0.0,0.0,0.0,0.0,0.0,0.0,0.0,0.0,0.0,0.0,0.0,0.0,0.0,0.0,0.0,0.0,0.0,0.0,0.0,0.0,0.3851,0.3715,0.291,0.2329,0.2819,0.0,0.0,0.0,0.0,0.0,0.0,0.0,0.0,0.0,0.0,0.0,-0.13,-0.2241,-0.3002,-0.3542,-0.4032,-0.4565,-0.5149,-0.5633,-0.6643,-0.8492,-0.8229,-0.858,0.0,0.0,0.0,0.0,0.0,0.0,0.0,0.0,0.0,0.0,0.0,0.0,0.0,0.0,0.0,0.0,0.0,0.0,0.0,0.0,0.0,0.0,0.0,0.0,0.0,0.0,0.0,0.0,0.0,0.0,0.0,0.0,3.2618,3.1978,0.0,0.0,0.0,0.0,0.0,0.0,0.0,0.0,0.0,0.0,0.0,0.0,0.0,1.9096,1.95,1.905,1.8496,1.7831,1.7738,1.6983,1.5717,1.548,1.5057,1.4442,1.434,0.0,1.4298,1.4298,0.0,0.0,0.0,0.0,0.0,0.0,0.0,0.0,0.0,0.0,0.0,0.0,0.0,0.0,0.0,0.0,0.0,0.0,0.0,0.0,0.0,0.0,0.1973,0.1345,0.1031,0.0807,0.0224,0.1252,0.2322,0.2367,0.2367,0.2411,0.0,0.0,0.0,0.0,0.0,0.0,-0.166,-0.2063,-0.2647,-0.3497,-0.4162,-0.4516,-0.4431,-0.5805,-0.6864,-0.7302,-0.84,-0.91,-0.9279,-0.9545,0.0,0.0,0.0,0.0,0.0,0.0,0.0,0.0,0.0,0.0,0.0,0.0,0.0,0.0,0.0,0.0,0.0,0.0,0.0,0.0,0.0,0.0,0.0,0.0,0.0,0.0,0.0,0.0,0.0,3.308,3.234,3.1869,3.0809,2.9704,0.0,0.0,0.0,0.0,0.0,0.0,0.0,0.0,0.0,2.1168,2.0138,1.9471,1.9142,1.892,1.8643,1.8303,1.7466,1.6716,1.6062,1.5201,1.4627,1.4298,1.4298,1.4298,1.4298,1.4298,1.4298,1.4298,0.0,0.0,0.0,0.0,1.0823,0.9481,0.8217,0.7224,0.6581,0.6434,0.0,0.0,0.0,0.0,0.0,0.0,0.0,0.3888,0.3042,0.2193,0.1433,0.0852,0.0403,0.0,-0.0314,-0.0134,0.0313,0.1028,0.1128,0.1223,0.1657,0.1252,0.0,0.0,0.0,-0.1031,-0.1345,-0.1884,-0.2378,-0.2781,-0.354,-0.434,-0.5048,-0.598,-0.7088,-0.8281,-0.8894,-0.9375,-0.9637,-0.92,-0.8456,0.0,0.0,0.0,0.0,0.0,0.0,0.0,0.0,0.0,0.0,0.0,0.0,0.0,0.0,0.0,0.0,0.0,0.0,0.0,0.0,0.0,0.0,0.0,0.0,0.0,0.0,0.0,0.0,3.303,3.2376,3.2064,3.0884,2.9793,0.0,0.0,0.0,0.0,0.0,0.0,2.4402,2.3246,2.2113,2.1123,2.0555,1.9874,1.9004,1.9012,1.8819,1.8496,1.7426,1.6669,1.6251,1.5105,1.449,1.4298,1.4298,1.4298,1.4298,1.4298,1.4298,1.4298,1.4298,1.3709,1.2721,1.2029,1.0643,0.9014,0.8028,0.708,0.6315,0.6131,0.5899,0.5704,0.5833,0.0,0.0,0.0,0.0,0.3127,0.2192,0.1432,0.0806,0.0269,-0.0269,-0.0673,-0.0673,-0.1081,-0.1173,-0.0224,-0.0091,0.0,0.0449,0.0358,0.0,-0.0493,-0.0897,-0.1121,-0.1166,-0.166,-0.2064,-0.2199,-0.2959,-0.3894,-0.491,-0.5935,-0.7048,-0.8281,-0.8947,-0.9476,-0.9825,-0.9078,-0.8504,-0.8201,0.0,0.0,0.0,0.0,0.0,0.0,0.0,0.0,0.0,0.0,0.0,0.0,0.0,0.0,0.0,0.0,0.0,0.0,0.0,0.0,0.0,0.0,0.0,0.0,0.0,0.0,0.0,0.0,0.0,3.2668,3.1257,0.0,0.0,0.0,0.0,2.6528,2.6093,2.5327,2.4178,2.3444,2.2526,2.1338,2.0637,2.0056,1.9546,1.9546,1.895,1.7738,1.7692,1.6897,1.5486,1.5391,1.4962,1.4298,1.4298,1.4298,1.4298,1.4298,1.4298,1.4298,1.4298,1.425,1.3872,1.1278,1.0253,0.9745,0.7124,0.6106,0.5912,0.5912,0.5831,0.5691,0.5696,0.5065,0.0,0.0,0.2949,0.17,0.0761,0.009,-0.0493,-0.1121,-0.13,-0.1345,-0.1345,-0.1412,-0.147,-0.1351,-0.1302,-0.1257,-0.1031,0.0,-0.1031,-0.1076,-0.1076,-0.1166,-0.1345,-0.1436,-0.1615,-0.2154,-0.282,-0.3176,-0.3045,-0.5356,-0.6511,-0.5927,-0.8013,-0.9305,-0.9349,-0.9689,-0.9379,-0.8201,-0.8113,0.0,0.0,0.0,0.0,0.0,0.0,0.0,0.0,0.0,0.0,0.0,0.0,0.0,0.0,0.0,0.0,0.0,0.0,0.0,0.0,0.0,0.0,0.0,0.0,0.0,0.0,0.0,0.0,3.216,3.0683,0.0,2.9523,2.8091,2.7144,2.6981,2.5915,2.5073,2.4637,2.393,2.3008,2.1774,2.1507,2.0943,2.0056,1.9737,1.9363,1.8896,1.811,1.7404,1.6842,1.5859,1.5248,1.4962,1.449,1.4298,1.4298,1.4298,1.4298,1.428,1.4111,1.3513,1.2569,1.1157,0.9903,0.871,0.721,0.6446,0.6125,0.5865,0.5721,0.5688,0.5688,0.5238,0.4563,0.371,0.2549,0.1298,0.0179,-0.0583,-0.1121,-0.1345,-0.1391,-0.1391,-0.1391,-0.1399,-0.1448,-0.1393,-0.1451,-0.1367,-0.1124,-0.1211,-0.1256,-0.1121,-0.1211,-0.13,-0.1391,-0.1391,-0.148,-0.166,-0.2196,-0.2688,-0.3042,-0.4823,-0.6024,-0.6375,-0.7793,-0.8688,-0.8828,-0.8999,-0.8911,-0.8472,-0.7981,-0.7044,0.0,0.0,0.0,0.0,0.0,0.0,0.0,0.0,0.0,0.0,0.0,0.0,0.0,0.0,0.0,0.0,0.0,0.0,0.0,0.0,0.0,0.0,0.0,0.0,0.0,3.3255,3.2591,3.2354,3.0945,2.9947,2.9716,2.849,2.7672,2.7441,2.6041,2.5206,2.5206,2.4242,2.3305,2.2485,2.2064,2.1379,2.043,1.9898,1.9496,1.9183,1.8356,1.772,1.7317,1.6437,1.5697,1.5098,1.4771,1.4403,1.4039,1.4129,1.4165,1.4147,1.3972,1.338,1.2438,1.1421,1.0118,0.8624,0.7196,0.6433,0.6065,0.5802,0.5688,0.5688,0.5688,0.4966,0.3978,0.3083,0.1744,0.0358,-0.0493,-0.1076,-0.1391,-0.1391,-0.1391,-0.1391,-0.1391,-0.1525,-0.166,-0.166,-0.1543,-0.1413,-0.1214,-0.13,-0.1345,-0.1211,-0.13,-0.1391,-0.1391,-0.1391,-0.1391,-0.1391,-0.1705,-0.2107,-0.2551,-0.3842,-0.509,-0.611,-0.7177,-0.7981,-0.8568,-0.8208,-0.7984,-0.7984,-0.7265,-0.6684,-0.6284,0.0,0.0,0.0,0.0,0.0,0.0,0.0,0.0,0.0,0.0,0.0,0.0,0.0,0.0,0.0,0.0,0.0,0.0,0.0,0.0,0.0,0.0,0.0,3.4148,3.3713,3.3248,3.3213,3.201,3.0906,3.0304,2.9356,2.8478,2.7914,2.6571,2.5795,2.5795,2.4272,2.3435,2.3395,2.2185,2.1275,2.0736,2.0132,1.9376,1.8456,1.8405,1.785,1.6771,1.7159,1.6308,1.4578,1.5013,1.4533,1.3538,1.3791,1.3894,1.3894,1.3906,1.3906,1.37,1.2046,1.083,0.962,0.7057,0.5955,0.5688,0.5688,0.5688,0.5688,0.5688,0.4249,0.2502,0.2188,0.0581,-0.1121,-0.1345,-0.1391,-0.1391,-0.1391,-0.1391,-0.1391,-0.1436,-0.1839,-0.2199,-0.2199,-0.1794,-0.1436,-0.1436,-0.1436,-0.1436,-0.1436,-0.1436,0.0,-0.1436,-0.1436,-0.1391,-0.1436,-0.1391,-0.1391,-0.1391,-0.2506,-0.3708,-0.491,-0.6154,-0.7356,-0.8568,-0.7492,-0.6868,-0.6868,-0.6107,-0.6328,-0.7489,0.0,0.0,0.0,0.0,0.0,0.0,0.0,0.0,0.0,0.0,0.0,0.0,0.0,0.0,0.0,0.0,0.0,0.0,0.0,0.0,0.0,3.3405,3.2532,3.2575,3.2421,3.2088,3.163,3.0812,3.0002,2.9149,2.8176,2.7358,2.6768,2.58,2.52,2.52,2.4559,2.3937,2.3435,2.3072,2.2339,2.1275,2.0713,2.0081,1.9418,1.8715,1.8413,1.8413,1.7632,1.6749,1.5777,1.537,1.4533,1.3519,1.3592,1.3622,1.364,1.3833,1.3906,1.377,1.2791,1.1056,0.9062,0.7979,0.678,0.5688,0.5688,0.5688,0.5688,0.5688,0.4835,0.3578,0.2412,0.1163,-0.0045,-0.1121,-0.1391,-0.1391,-0.1391,-0.1391,-0.1525,-0.1885,-0.2109,-0.2288,-0.2645,-0.2599,-0.251,-0.251,-0.2198,-0.2108,-0.2419,-0.1883,-0.1659,-0.2374,-0.1838,-0.157,-0.193,-0.1615,-0.1391,-0.1391,-0.2686,-0.3933,-0.4954,-0.629,-0.7496,-0.8568,-0.8296,-0.8116,-0.8116,-0.7044,-0.6643,0.0,0.0,0.0,0.0,0.0,0.0,0.0,0.0,0.0,0.0,0.0,0.0,0.0,0.0,0.0,0.0,0.0,0.0,0.0,0.0,0.0,0.0,3.2751,3.1623,3.1375,3.1661,3.1697,3.1163,3.0678,2.991,2.8723,2.8059,2.7397,2.6609,2.5601,2.5016,2.5016,2.4271,2.366,2.325,2.2977,2.2505,2.176,2.0886,2.0235,1.972,1.8891,1.8565,1.8598,1.8137,1.7326,1.6294,1.5756,1.4767,1.3585,1.3391,1.335,1.3363,0.0,0.0,0.0,0.0,1.084,0.8949,0.8281,0.7029,0.5688,0.5688,0.5688,0.5688,0.5688,0.4835,0.3667,0.2815,0.1431,0.0045,-0.0762,-0.1211,-0.1391,-0.1391,-0.1391,-0.1525,-0.2064,-0.2333,-0.2645,-0.3093,-0.336,0.0,-0.3494,-0.2913,-0.2599,-0.2868,-0.2419,-0.224,-0.2823,-0.2374,-0.2152,-0.2466,-0.2196,-0.2017,-0.2017,-0.2822,0.0,0.0,0.0,-0.616,-0.7044,-0.758,0.0,0.0,0.0,-0.7044,-0.7536,-0.6732,0.0,0.0,-0.4601,-0.3444,0.0,0.0,0.0,0.0,0.0,0.0,0.0,0.0,0.0,0.0,0.0,0.0,0.0,0.0,0.0,0.0,3.2012,3.0687,3.0687,3.1308,3.1628,3.1298,3.0968,3.0133,2.8624,2.8459,2.7968,2.6829,2.5644,2.4978,2.4978,2.3802,0.0,0.0,0.0,2.2214,2.2101,2.0905,2.0118,1.9638,1.9002,1.8491,1.8161,1.8531,1.787,1.6435,1.6142,1.5115,1.3672,1.3237,1.3029,1.3041,1.3101,1.3169,1.3007,1.1925,1.0676,0.9292,0.834,0.0,0.0,0.5733,0.5688,0.5688,0.5688,0.461,0.3309,0.322,0.1566,-0.0179,-0.0359,-0.0852,-0.13,-0.1391,-0.1391,-0.157,-0.2154,-0.2599,-0.3047,-0.3587,-0.4032,-0.43,-0.43,-0.3583,-0.3002,-0.3045,-0.2957,-0.2957,-0.3045,-0.2957,-0.2913,-0.2957,-0.2913,0.0,-0.2911,-0.3001,-0.3535,-0.4514,-0.4383,-0.4559,-0.522,-0.6331,-0.6912,-0.6779,-0.6912,-0.7492,-0.8432,-0.8292,-0.8201,-0.8113,-0.4996,-0.353,0.0,0.0,0.0,0.0,0.0,0.0,0.0,0.0,0.0,0.0,0.0,0.0,0.0,0.0,0.0,3.3461,3.2178,3.1161,3.1161,3.0981,3.0731,3.0375,3.0062,2.9302,2.7844,2.7464,2.6845,2.5696,2.5122,2.4834,2.4834,2.4282,2.3824,2.3482,2.3372,2.2927,2.2101,2.1357,2.0702,2.0079,1.9121,0.0,1.9024,1.8812,1.804,1.6837,1.6265,1.5115,1.3652,1.3022,1.2783,1.2831,1.3266,1.3441,1.3384,1.315,1.2176,1.08,0.9638,0.8346,0.7007,0.5997,0.5688,0.5688,0.5688,0.4926,0.0,0.3353,0.2329,0.1121,-0.009,-0.0493,-0.0718,-0.1256,-0.1391,-0.166,-0.2555,-0.2823,-0.3135,-0.3987,-0.4255,-0.43,-0.43,-0.3853,-0.3585,-0.3985,-0.3405,-0.3179,-0.3941,-0.336,-0.3047,-0.3408,-0.3136,-0.2911,-0.2911,-0.3758,-0.438,-0.4603,-0.5805,-0.6561,-0.6694,-0.7489,-0.7489,-0.6517,-0.7628,-0.7984,-0.7408,-0.7933,-0.8113,-0.7896,-0.629,-0.5534,0.0,0.0,0.0,0.0,0.0,0.0,0.0,0.0,0.0,0.0,0.0,3.4899,3.4899,0.0,3.3572,3.3417,3.2336,3.1466,3.1307,3.0896,3.0492,3.0142,2.9803,2.9149,2.8012,2.7364,2.6654,2.5804,2.5171,2.479,2.479,2.4418,2.4007,2.3593,2.3593,2.3261,2.2553,2.1939,2.1318,2.0702,1.9854,1.9271,1.9002,1.9002,1.8434,1.7497,1.705,1.5985,1.444,1.3209,1.2705,1.2729,1.3,1.3109,1.3109,1.3109,1.213,1.07,0.9721,0.8424,0.7003,0.5994,0.5688,0.5688,0.5688,0.506,0.4208,0.3848,0.2822,0.1525,0.0448,-0.0134,-0.0583,-0.1256,-0.1391,-0.1659,-0.2688,-0.2911,-0.3179,-0.4119,-0.43,-0.43,-0.43,-0.4121,-0.4032,-0.4255,-0.3896,-0.3762,-0.4253,-0.3896,-0.3673,-0.3942,-0.3762,-0.3762,-0.4119,-0.4654,-0.4743,-0.4119,-0.5675,-0.6476,-0.6248,-0.7489,-0.7933,-0.7316,-0.8164,-0.8344,-0.7852,-0.7984,-0.7984,-0.7896,-0.7003,-0.6425,0.0,0.0,0.0,0.0,0.0,0.0,0.0,3.5152,3.5065,3.497,3.4923,3.4899,3.4899,3.4374,3.3869,3.3588,3.2567,3.1722,3.1437,3.0955,3.0492,3.0233,2.9896,2.9338,2.8481,2.7696,2.6973,2.6255,2.5512,2.504,2.4885,2.4526,2.4127,2.3751,2.3629,2.3409,2.3001,2.2402,2.1797,2.1203,2.0508,1.9696,1.8812,1.9152,1.8865,1.8121,1.7513,1.6404,1.4936,1.3379,1.2705,1.2705,1.2705,1.2705,1.2705,1.2705,1.1832,1.0486,0.9518,0.8301,0.6953,0.5994,0.5688,0.5688,0.5688,0.506,0.43,0.43,0.3183,0.1839,0.1121,0.0359,-0.0359,-0.1031,-0.13,-0.166,-0.2555,-0.2823,-0.3135,-0.3987,-0.4255,-0.43,-0.43,-0.43,-0.43,-0.43,-0.43,-0.43,-0.43,-0.43,-0.43,-0.43,-0.4433,-0.4879,-0.5725,-0.5549,-0.5146,-0.452,-0.5636,-0.6124,-0.5672,-0.7268,-0.8025,-0.7804,-0.8252,-0.8432,-0.8256,-0.8032,-0.7856,-0.772,-0.7319,-0.6827,3.6825,3.6378,3.6097,3.6174,3.5839,3.5469,0.0,3.5268,3.5105,3.5065,3.497,3.4899,3.4899,3.4643,3.4333,3.4059,3.3029,3.2158,3.1879,3.1117,3.0582,3.0552,3.0264,2.9682,2.8835,2.8384,2.7597,2.6289,2.6094,2.5816,2.5276,2.4921,2.4538,2.4164,2.3787,2.3409,2.3001,2.2402,2.1797,2.1203,2.0508,1.9854,1.9222,1.9262,1.9033,1.8491,1.6501,1.4977,1.3815,1.3045,1.2705,1.2705,1.2705,1.2705,1.2705,1.2705,1.2314,1.1574,0.9822,0.8825,0.8002,0.6257,0.5688,0.5688,0.5688,0.506,0.43,0.43,0.3587,0.2604,0.1884,0.1121,0.0403,-0.0359,-0.0987,-0.157,-0.2154,-0.2599,-0.3047,-0.3587,-0.4032,-0.43,-0.43,-0.43,-0.43,-0.43,-0.43,-0.43,-0.43,-0.43,-0.43,-0.43,-0.4879,-0.5813,-0.7136,-0.6121,-0.6035,-0.758,-0.7228,-0.6877,-0.6659,-0.7455,-0.7411,-0.6349,-0.7584,-0.7852,-0.7017,-0.7588,-0.7676,-0.7187,-0.7139,-0.7051,3.7018,3.6684,3.6457,3.6023,3.5711,3.5543,3.5514,3.5423,3.5291,3.5111,3.5058,3.4994,3.4923,3.4804,3.4643,3.4374,3.3553,3.2756,3.2198,3.148,3.0896,3.0628,3.0492,3.0174,2.962,2.8962,2.8274,2.7484,2.7116,2.6744,2.6311,2.5851,2.543,2.5016,2.4311,2.3751,2.3335,2.2852,2.2327,2.1711,2.1088,2.0313,1.945,1.9332,1.9073,1.862,1.7041,1.5718,1.4608,1.3682,1.3045,1.2705,1.2705,1.2705,1.2662,1.24,1.2015,1.1408,0.9923,0.9139,0.8488,0.6871,0.6343,0.6257,0.5819,0.506,0.43,0.43,0.3631,0.2739,0.1974,0.1256,0.0493,-0.0224,-0.0897,-0.1525,-0.2064,-0.2556,-0.3047,-0.3497,-0.3989,-0.43,-0.43,-0.43,-0.43,-0.43,-0.43,-0.43,-0.43,-0.43,-0.43,-0.43,-0.5322,-0.6077,-0.6254,-0.6476,-0.6782,-0.7136,-0.7139,-0.7051,-0.6966,-0.7672,-0.7764,-0.7146,-0.7848,-0.7937,-0.7455,-0.7591,-0.7547,-0.7323,-0.7187,-0.7095,3.7166,3.7049,3.6958,3.635,3.5985,3.5778,3.5728,3.5605,3.5446,3.5245,3.5152,3.5065,3.497,3.4923,3.4811,3.4546,3.3885,3.3182,3.2567,3.1807,3.1161,3.0836,3.0687,3.0507,3.0264,2.9574,2.8931,2.8352,2.7947,2.7517,2.704,2.6517,2.607,2.5592,2.4838,2.4213,2.3787,2.3372,2.2852,2.2252,2.1548,2.0702,1.9756,1.945,1.8993,1.8451,1.7448,1.6419,1.5394,1.4195,1.3392,1.296,1.279,1.2619,1.2491,1.2143,1.1709,1.1149,1.0019,0.9148,0.8404,0.7173,0.6647,0.6387,0.5863,0.506,0.43,0.43,0.3631,0.2784,0.2243,0.157,0.0807,0.009,-0.0628,-0.13,-0.1839,-0.2466,-0.3002,-0.3361,-0.3898,-0.43,-0.43,-0.43,-0.43,-0.43,-0.43,-0.43,-0.43,-0.43,-0.4431,-0.4832,-0.5633,-0.6169,-0.6257,-0.7051,-0.7356,-0.7007,-0.7319,-0.7496,-0.7404,-0.7933,-0.8113,-0.79,-0.8028,-0.8028,-0.7768,-0.7595,-0.7462,-0.737,-0.7187,-0.7095,3.7187,3.7422,3.7667,3.7632,3.6956,3.628,3.628,3.5866,3.5492,3.5492,3.5268,3.5088,3.5088,3.4994,3.4811,3.4546,3.3885,3.3287,3.3013,3.2005,3.1278,3.1278,3.0866,3.0598,3.0582,3.0249,2.9557,2.8384,2.8287,2.7894,2.704,2.6595,2.6136,2.5627,2.5182,2.4743,2.42,2.3787,2.3298,2.2665,2.1662,2.0857,2.0157,1.9578,1.8825,1.8,1.7286,1.6509,1.5609,1.4237,1.3695,1.361,1.296,1.24,1.2015,1.2015,1.1709,1.1149,1.0019,0.8838,0.7702,0.7044,0.6299,0.5733,0.5688,0.506,0.43,0.43,0.3631,0.2875,0.2873,0.2334,0.157,0.0852,0.009,-0.0628,-0.13,-0.2196,-0.2911,-0.2913,-0.3673,-0.43,-0.43,-0.43,-0.43,-0.43,-0.43,-0.43,-0.43,-0.43,-0.4832,-0.6207,-0.5813,-0.6257,-0.8344,-0.7893,-0.7801,-0.8476,-0.8568,-0.8432,-0.8157,-0.8201,-0.8113,-0.79,-0.79,-0.7768,-0.7507,-0.7507,-0.737,-0.7095,-0.7095,-0.7095,3.6777,3.6871,3.7022,3.7307,3.7114,3.6862,3.6783,3.6623,3.646,3.6333,3.6232,3.6105,3.5864,3.5621,3.5368,3.5131,3.4399,3.3723,3.3313,3.2625,3.1936,3.1365,3.1161,3.0925,3.0642,3.0492,3.0083,2.9243,2.918,2.883,2.8118,2.7597,2.7082,2.6552,2.5802,2.5123,2.461,2.42,2.3897,2.3677,2.2209,2.1068,2.0167,1.9578,1.8825,1.8,1.7749,1.6673,1.4985,1.4566,1.3851,1.3003,1.279,1.2619,1.24,1.1757,1.1456,1.1198,1.0501,0.9806,0.9065,0.7878,0.7305,0.6871,0.5633,0.479,0.4255,0.3942,0.3365,0.292,0.292,0.2334,0.1749,0.148,0.0493,-0.0448,-0.0673,-0.1614,-0.2511,-0.2823,-0.3405,-0.3855,-0.3855,-0.4076,-0.43,-0.43,-0.43,-0.43,-0.43,-0.43,-0.4656,-0.5636,-0.5944,-0.6564,-0.7757,-0.8072,-0.834,-0.8568,-0.8612,-0.8564,-0.8472,-0.8472,-0.834,-0.8113,-0.7984,-0.7768,-0.7507,-0.7323,-0.7187,-0.7095,-0.7095,-0.7095,3.6152,3.6282,3.6483,3.6751,3.6899,3.695,3.6877,3.6978,3.702,3.6845,3.6768,3.6629,3.6336,3.5959,3.5671,3.5594,3.4826,3.4159,3.3869,3.3198,3.2504,3.1823,3.1509,3.1161,3.0866,3.0582,3.0189,2.9634,2.9602,2.932,2.8651,2.8249,2.7842,2.731,2.6505,2.5826,2.5312,2.4706,2.4164,2.3641,2.2312,2.1173,2.0167,1.9578,1.8825,1.8,1.8,1.7009,1.5401,1.5151,1.4391,1.3379,1.313,1.2705,1.2143,1.1714,1.1241,1.0809,1.0506,1.0033,0.9419,0.8185,0.7526,0.6908,0.545,0.4565,0.3987,0.3676,0.3275,0.292,0.292,0.2558,0.2109,0.1884,0.0897,-0.009,-0.0359,-0.1345,-0.2333,-0.2823,-0.3136,-0.3406,-0.3587,-0.3719,-0.3807,-0.3807,-0.3942,-0.4121,-0.43,-0.43,-0.4656,-0.5636,-0.6121,-0.6786,-0.7804,-0.834,-0.8612,-0.8612,-0.8612,-0.8612,-0.8612,-0.8612,-0.8472,-0.8201,-0.8069,-0.7856,-0.7507,-0.7323,-0.7187,-0.7095,-0.7095,-0.7095,3.5398,3.5744,3.6087,3.6109,3.6336,3.6585,3.6585,3.6899,3.7157,3.6972,3.6911,3.679,3.6467,3.6049,3.5786,3.5907,3.5115,3.4505,3.4569,3.3665,3.2922,3.2641,3.1879,3.1336,3.1307,3.0612,3.0019,2.9634,2.9571,2.9289,2.8619,2.8587,2.836,2.7822,2.7276,2.6735,2.6198,2.5277,2.4152,2.2777,2.2059,2.1211,2.0235,1.9578,1.8785,1.8,1.8,1.7473,1.6607,1.5948,1.5276,1.4573,1.3942,1.2747,1.1413,1.1843,1.1149,1.0024,0.998,0.9536,0.879,0.8038,0.7027,0.5971,0.5184,0.4344,0.3587,0.3587,0.323,0.292,0.292,0.292,0.2739,0.2019,0.1256,0.0493,-0.0179,-0.13,-0.2333,-0.2823,-0.2911,-0.3047,-0.3497,-0.3136,-0.2822,-0.2911,-0.3272,-0.3721,-0.421,-0.43,-0.4832,-0.6207,-0.6384,-0.6962,-0.8432,-0.8568,-0.8612,-0.8612,-0.8612,-0.8612,-0.8612,-0.8612,-0.8476,-0.8245,-0.8201,-0.7981,-0.7551,-0.7507,-0.737,-0.7139,-0.7095,-0.7095,3.546,3.5603,3.5753,3.6214,3.634,3.6352,3.6255,3.6778,3.7065,3.6342,3.712,3.7647,3.6792,3.6439,3.626,3.613,3.5035,3.4226,3.4234,3.3652,3.3076,3.2656,3.2394,3.202,3.1365,3.1102,3.0598,2.9665,2.9383,2.9035,2.8619,2.8587,2.836,2.7822,2.7276,2.6735,2.6198,2.5535,2.4718,2.3787,2.2686,2.1735,2.0895,1.9508,1.8523,1.8,1.7676,1.6935,1.594,1.5775,1.5026,1.3942,1.3779,1.313,1.2272,1.1671,1.1171,1.0652,0.9937,0.9596,0.9208,0.7959,0.7139,0.6337,0.4896,0.4076,0.3542,0.3187,0.3008,0.292,0.292,0.292,0.2873,0.2649,0.1615,0.0628,0.0448,-0.0942,-0.2333,-0.2823,-0.2911,-0.2957,-0.3047,-0.2376,-0.2017,-0.2778,-0.3002,-0.3226,-0.3721,-0.4076,-0.4656,-0.5547,-0.6121,-0.6782,-0.7713,-0.8296,-0.8612,-0.8612,-0.8612,-0.8612,-0.8612,-0.8612,-0.8564,-0.852,-0.8292,-0.8157,-0.8025,-0.768,-0.7462,-0.7415,-0.7187,-0.7095,3.5174,3.5097,3.5032,3.5246,3.5561,3.5781,3.564,3.6219,3.6617,3.6058,3.6648,3.7118,3.6781,3.6302,3.6029,3.625,3.5151,3.4234,3.4143,3.4002,3.3651,3.2989,3.3018,3.2693,3.1668,3.1263,3.0673,2.9665,2.9415,2.9099,2.8619,2.8587,2.8457,2.8151,2.7643,2.6973,2.6198,2.5465,2.4766,2.42,2.3043,2.2021,2.1165,1.9736,1.8674,1.8,1.7554,1.6935,1.6147,1.6147,1.5526,1.4566,1.4237,1.3597,1.2687,1.1592,1.0963,1.058,0.9642,0.9333,0.9142,0.7883,0.7105,0.6401,0.4679,0.3834,0.3364,0.2958,0.2834,0.2885,0.2911,0.292,0.292,0.292,0.1794,0.0718,0.0718,-0.0807,-0.2288,-0.2556,-0.2599,-0.251,-0.2285,-0.1793,-0.166,-0.2466,-0.2778,-0.3092,-0.3542,-0.4032,-0.4567,-0.5327,-0.5988,-0.6694,-0.7445,-0.816,-0.8612,-0.8612,-0.8612,-0.8612,-0.8612,-0.8612,-0.8612,-0.8612,-0.8472,-0.8336,-0.8201,-0.794,-0.7724,-0.7507,-0.7323,-0.7231,3.4803,3.4551,3.4288,3.3992,3.4465,3.499,3.4871,3.5406,3.5897,3.5717,3.5788,3.6009,3.6331,3.5826,3.5548,3.6101,3.5244,3.4431,3.4177,3.4426,3.4324,3.3525,3.3631,3.3367,3.2246,3.1409,3.0598,2.9758,2.9634,2.932,2.8651,2.8587,2.8554,2.849,2.8052,2.7276,2.6117,2.53,2.4634,2.4116,2.315,2.2203,2.128,2.007,1.9015,1.8112,1.7554,1.7066,1.6689,1.6689,1.6319,1.5609,1.4943,1.3993,1.279,1.1556,1.0736,1.0088,0.9348,0.9045,0.8779,0.7715,0.6942,0.6157,0.452,0.365,0.3163,0.2885,0.2771,0.2785,0.2891,0.2907,0.2908,0.2917,0.1839,0.0762,0.0628,-0.0941,-0.2288,-0.2288,-0.2243,-0.2019,-0.148,-0.148,-0.166,-0.2109,-0.2645,-0.3136,-0.3542,-0.4032,-0.4567,-0.5193,-0.5944,-0.665,-0.7312,-0.8116,-0.8612,-0.8612,-0.8612,-0.8612,-0.8612,-0.8612,-0.8612,-0.8612,-0.8612,-0.8476,-0.8245,-0.8201,-0.7984,-0.7591,-0.7551,-0.737,3.4963,3.4783,3.4591,3.4105,3.4044,3.4089,3.4022,3.4577,3.4891,3.4166,3.5023,3.5665,3.4853,3.5314,3.5622,3.5067,3.4755,3.4399,3.3857,3.4128,3.4311,3.4157,3.4171,3.3983,3.3444,3.2383,3.1291,3.0253,2.9837,2.932,2.8651,2.8587,2.8392,2.7954,2.7855,2.7129,2.5709,2.5534,2.4874,2.3714,2.3001,2.244,2.1873,1.9982,1.9006,1.8767,1.7416,1.6779,1.6689,1.6689,1.6319,1.5609,1.4943,1.3908,1.2651,1.1821,1.077,0.9796,0.9557,0.9174,0.8558,0.7454,0.6538,0.5624,0.4373,0.3442,0.2778,0.2747,0.2709,0.2722,0.2783,0.28,0.2812,0.2907,0.2064,0.1076,0.0269,-0.1387,-0.2778,-0.2778,-0.2466,-0.2019,-0.148,-0.1749,-0.2109,-0.2199,-0.2915,-0.3497,-0.3587,-0.4032,-0.4344,-0.4478,-0.563,-0.6473,-0.6561,-0.7808,-0.8612,-0.8612,-0.8612,-0.8612,-0.8612,-0.8612,-0.8612,-0.8612,-0.8612,-0.8568,-0.852,-0.8292,-0.8157,-0.8069,-0.768,-0.7462,3.5019,3.487,3.4713,3.4142,3.3972,3.3921,3.3815,3.4019,3.4099,3.3692,3.4138,3.4549,3.4348,3.4834,3.5209,3.4987,3.4762,3.4456,3.4002,3.45,3.4715,3.4336,3.4896,3.4874,3.3789,3.285,3.1765,3.0418,2.9853,2.932,2.8651,2.8587,2.849,2.8216,2.7954,2.733,2.6333,2.5639,2.4838,2.3897,2.3187,2.259,2.2025,2.0255,1.9313,1.8917,1.7367,1.6689,1.6689,1.6689,1.6525,1.609,1.4957,1.4104,1.3316,1.1583,1.0545,0.9943,0.9315,0.8937,0.8565,0.7694,0.6738,0.5762,0.4671,0.3685,0.2889,0.2677,0.2644,0.2658,0.2721,0.2736,0.2744,0.2773,0.1662,0.0398,-0.0402,-0.1613,-0.2556,-0.2556,-0.2108,-0.1794,-0.1794,-0.2019,-0.2378,-0.2871,-0.3318,-0.3676,-0.3942,-0.4302,-0.4433,-0.43,-0.5761,-0.6776,-0.6776,-0.8109,-0.9087,-0.9305,-0.9087,-0.8959,-0.8959,-0.8959,-0.8828,-0.8612,-0.8612,-0.8612,-0.8612,-0.8472,-0.8336,-0.8201,-0.7984,-0.7724,3.5019,3.4908,3.4762,3.4142,3.3998,3.3959,3.3815,3.3698,3.3605,3.3605,3.3477,3.3515,3.3926,3.4442,3.4829,3.4889,3.4906,3.4752,3.4284,3.5011,3.5324,3.4616,3.5505,3.5678,3.4356,3.3366,3.2242,3.0922,3.0033,2.9275,2.8651,2.8587,2.8587,2.8587,2.8183,2.7577,2.6756,2.5709,2.4767,2.3934,2.3298,2.274,2.2252,2.0798,1.9816,1.9116,1.7602,1.6853,1.6689,1.661,1.6578,1.6465,1.4966,1.4231,1.3713,1.1531,1.0506,1.0092,0.9258,0.8894,0.8742,0.8165,0.7165,0.6009,0.4999,0.4031,0.3151,0.2688,0.2622,0.2718,0.2698,0.2673,0.2676,0.2606,0.1235,-0.026,-0.0842,-0.1604,-0.2187,-0.2196,-0.1839,-0.1705,-0.2109,-0.2378,-0.2736,-0.3497,-0.3676,-0.39,-0.4344,-0.4569,-0.4614,-0.4478,-0.611,-0.717,-0.717,-0.8588,-0.9607,-0.9994,-0.965,-0.9432,-0.9432,-0.9345,-0.913,-0.8744,-0.8656,-0.8612,-0.8612,-0.8612,-0.8476,-0.8292,-0.8245,-0.7984,3.5019,3.4908,3.4762,3.4142,3.3998,3.3959,3.3815,3.3698,3.3605,3.3605,3.3477,3.3322,3.3069,3.4189,3.4889,3.4054,3.5069,3.5537,3.4366,3.537,3.5986,3.5368,3.582,3.6129,3.6003,3.4268,3.298,3.2495,3.0618,2.9219,2.8619,2.8587,2.8587,2.8587,2.8554,2.7696,2.5928,2.5789,2.4838,2.3113,2.3038,2.2964,2.2889,2.1565,2.0556,1.9737,1.8439,1.7448,1.6665,1.6389,1.6254,1.6134,1.5076,1.3973,1.2869,1.2401,1.1238,0.9911,0.9814,0.9544,0.917,0.8742,0.751,0.6009,0.4999,0.4265,0.3569,0.2753,0.2756,0.297,0.2675,0.2609,0.2583,0.2385,0.1136,-0.0085,-0.039,-0.135,-0.2148,-0.2191,-0.2154,-0.2154,-0.2199,-0.2915,-0.3497,-0.3587,-0.3942,-0.4344,-0.4614,-0.4705,-0.4748,-0.4921,-0.647,-0.7441,-0.7441,-0.8982,-0.9951,-0.9994,-0.9951,-0.9951,-0.9951,-0.9519,-0.9262,-0.9218,-0.8828,-0.8612,-0.8612,-0.8612,-0.8568,-0.8564,-0.8292,-0.8157,3.5168,3.5001,3.4773,3.4295,3.4087,3.3985,3.3934,3.386,3.378,3.3726,3.3661,3.343,3.2995,3.417,3.5013,3.4428,3.5341,3.6083,3.6004,3.6519,3.6847,3.6691,3.7135,3.7122,3.6266,3.4759,3.3033,3.1218,3.0109,2.9251,2.8619,2.8587,2.8587,2.8587,2.8587,2.7941,2.6539,2.6032,2.5099,2.3714,2.3224,2.3001,2.2964,2.168,2.0672,1.9806,1.8342,1.7188,1.6389,1.6031,1.5888,1.581,1.4851,1.3941,1.3003,1.1853,1.0787,0.9846,0.9349,0.9084,0.8894,0.8742,0.8008,0.6973,0.5928,0.4846,0.3837,0.3059,0.2787,0.2713,0.2581,0.2546,0.2481,0.2335,0.1359,0.0414,0.0127,-0.0766,-0.1537,-0.1639,-0.19,-0.2158,-0.2461,-0.302,-0.3493,-0.3798,-0.4095,-0.4351,-0.4439,-0.4701,-0.4915,-0.4999,-0.6763,-0.7921,-0.7921,-0.9414,-1.0467,-1.0781,-1.0516,-1.0381,-1.0381,-1.0164,-0.9951,-0.9738,-0.9262,-0.8999,-0.8999,-0.874,-0.8612,-0.8612,-0.8476,-0.8336,3.525,3.5046,3.4773,3.4401,3.4177,3.4074,3.4011,3.3959,3.3895,3.382,3.3698,3.3459,3.2995,3.417,3.5083,3.4761,3.564,3.6498,3.6827,3.725,3.751,3.7423,3.8041,3.8044,3.6869,3.5291,3.32,3.0431,2.995,2.9439,2.8651,2.8587,2.8587,2.8587,2.8587,2.8085,2.6994,2.6171,2.524,2.4177,2.3361,2.3001,2.2953,2.1809,2.0715,1.9686,1.8276,1.7046,1.6023,1.5674,1.5569,1.5453,1.4695,1.3918,1.3098,1.1888,1.085,0.9992,0.9311,0.897,0.8856,0.8742,0.8394,0.7893,0.6973,0.5738,0.4421,0.3374,0.2826,0.2511,0.2511,0.2511,0.2442,0.2323,0.1648,0.093,0.0455,-0.0291,-0.096,-0.1261,-0.181,-0.2313,-0.265,-0.3152,-0.3653,-0.4032,-0.4197,-0.4365,-0.449,-0.4787,-0.504,-0.5124,-0.6705,-0.79,-0.8115,-0.9444,-1.0481,-1.1054,-1.0789,-1.0614,-1.0614,-1.0547,-1.0373,-1.0072,-0.9705,-0.9519,-0.9519,-0.9047,-0.8828,-0.8784,-0.8656,-0.852,3.5242,3.5,3.4733,3.4379,3.4302,3.4245,3.4049,3.3998,3.3959,3.3834,3.3591,3.3304,3.2963,3.417,3.5083,3.4761,3.5987,3.6774,3.6199,3.7245,3.7858,3.7253,3.8209,3.8679,3.8112,3.6009,3.3583,3.0881,3.0569,2.9948,2.8651,2.8587,2.8587,2.8587,2.8587,2.8039,2.6921,2.6171,2.5216,2.4084,2.335,2.3001,2.2979,2.2097,2.0872,1.9373,1.848,1.7186,1.5696,1.5324,1.5226,1.5149,1.4756,1.3884,1.29,1.2863,1.1855,1.0443,1.003,0.962,0.9246,0.8818,0.8703,0.8589,0.7974,0.6899,0.5473,0.3606,0.2826,0.2511,0.2511,0.2511,0.2431,0.2235,0.1882,0.1342,0.0486,-0.0081,-0.0574,-0.1174,-0.2063,-0.2692,-0.2692,-0.3406,-0.4076,-0.4281,-0.4279,-0.4448,-0.4915,-0.5001,-0.5082,-0.5371,-0.6236,-0.7143,-0.7918,-0.886,-0.9765,-1.0557,-1.0603,-1.0603,-1.0603,-1.0409,-1.0317,-1.0317,-1.0105,-0.9994,-0.9994,-0.9519,-0.9305,-0.9262,-0.8828,-0.8612,3.5278,3.5113,3.4898,3.4746,3.4569,3.442,3.4397,3.4233,3.4049,3.3947,3.3648,3.3294,3.2945,3.4051,3.4942,3.4743,3.5988,3.7299,3.8182,3.8272,3.8333,3.8596,3.8031,3.7229,3.6207,3.5261,3.3773,3.1539,3.1262,3.0599,2.9282,2.9219,2.9026,2.8619,2.8587,2.8249,2.753,2.6377,2.544,2.4707,2.3534,2.2837,2.2531,2.2092,2.1053,1.9551,1.8398,1.7215,1.6038,1.5134,1.4779,1.4764,1.4653,1.3753,1.2469,1.2168,1.1062,0.962,0.9236,0.9008,0.8856,0.8742,0.8703,0.8589,0.7974,0.7015,0.5702,0.3684,0.2826,0.2511,0.2511,0.2392,0.2275,0.2196,0.2117,0.1807,0.115,0.0596,0.004,-0.0841,-0.1845,-0.2648,-0.293,-0.3451,-0.393,-0.4128,-0.4285,-0.4484,-0.4768,-0.493,-0.505,-0.5129,-0.5405,-0.6268,-0.8061,-0.9068,-1.0009,-1.0956,-1.0996,-1.0996,-1.0996,-1.0947,-1.0863,-1.0699,-1.0512,-1.0334,-1.0206,-0.9928,-0.9777,-0.9781,-0.9305,-0.9087,3.5293,3.5111,3.4907,3.487,3.4693,3.4528,3.4528,3.4374,3.4209,3.4036,3.3743,3.347,3.3355,3.4246,3.5031,3.5094,3.6182,3.7261,3.8,3.8158,3.8496,3.9168,3.7983,3.6727,3.5681,3.4858,3.3668,3.1896,3.1608,3.1028,2.995,2.9628,2.9331,2.8962,2.8702,2.8392,2.7934,2.6526,2.5483,2.4824,2.341,2.2499,2.204,2.1585,2.0669,1.9429,1.8068,1.6946,0.0,1.5016,1.4605,1.4605,1.4605,1.3897,1.2792,1.2161,1.1056,0.9771,0.916,0.8818,0.8703,0.8703,0.8703,0.8585,0.7897,0.6742,0.527,0.3567,0.2826,0.2511,0.2511,0.2392,0.2275,0.2235,0.2275,0.2118,0.1453,0.0825,0.0118,-0.0744,-0.1882,-0.2826,-0.3062,-0.3491,-0.388,-0.4155,-0.4309,-0.4501,-0.4779,-0.4937,-0.5018,-0.5018,-0.5054,-0.597,-0.8064,-0.8679,-0.9557,-1.083,-1.0948,-1.0948,-1.0948,-1.1044,-1.1022,-1.0902,-1.0852,-1.0808,-1.0773,-1.0492,-1.0255,-0.9994,-0.9694,-0.9563,0.0,3.5043,3.4821,3.4821,3.4701,3.4572,3.4461,3.445,0.0,3.4135,3.3894,3.3815,3.4036,3.4724,3.5368,3.5744,3.6478,3.6809,3.6251,3.7212,3.8256,3.8984,3.7916,3.6891,3.6275,3.482,3.3373,3.2064,3.1722,3.1262,3.0614,2.995,2.9535,2.9504,2.8857,2.8371,2.8091,2.6531,2.5367,2.4548,2.2986,2.2007,2.1527,2.0726,1.9944,1.9172,1.7618,1.655,1.5833,1.4955,1.4605,1.4605,1.4605,1.4238,1.3608,1.2602,1.1613,1.0588,0.962,0.9013,0.8703,0.8703,0.8703,0.8551,0.7633,0.616,0.4533,0.3489,0.2863,0.247,0.247,0.247,0.2433,0.2235,0.2353,0.2276,0.1532,0.0706,-0.0118,-0.0784,-0.2038,-0.3062,-0.3141,-0.353,-0.3958,-0.4345,-0.4423,-0.4543,-0.4937,-0.5018,-0.5018,-0.5015,-0.5207,-0.6051,-0.7889,-0.7918,-0.8604,-1.0438,-1.0556,-1.0556,-1.0556,-1.0791,-1.0923,-1.0884,-1.1084,-1.134,-1.1602,-1.124,-1.0712,-1.0125,-1.0081,-1.0081,3.5001,0.0,3.487,3.487,3.4801,3.4747,0.0,3.4386,3.4272,3.4811,3.439,3.4119,3.481,3.5314,3.5695,3.5776,3.6478,3.7003,3.6943,3.6764,3.6931,3.765,3.6501,3.5768,3.6157,3.482,3.3571,3.2738,3.237,3.1908,3.1306,3.0629,3.0042,2.9504,2.8459,2.7877,2.7796,2.6115,2.4927,2.4279,2.2559,2.1505,2.1058,2.0836,2.0374,1.9644,1.7998,1.7085,1.6662,1.5223,1.4605,1.4605,1.4605,1.3977,1.3011,1.2161,1.1093,0.9992,0.9122,0.878,0.8703,0.8703,0.8703,0.8356,0.6577,0.5726,0.5226,0.4343,0.3212,0.2275,0.2275,0.2158,0.2081,0.2157,0.2235,0.2235,0.204,0.1452,0.0628,-0.0666,-0.1607,-0.2549,-0.3686,-0.3962,-0.4155,-0.4582,-0.4621,-0.4701,-0.4976,-0.5018,-0.5054,-0.5207,-0.5282,-0.5857,-0.7276,-0.7923,-0.9021,-1.085,-1.0962,-1.0962,-1.0962,-1.1022,-1.0988,-1.0837,-1.0906,-1.1169,-1.1602,-1.1497,-1.1499,-1.1521,-1.0987,-1.0766,3.4781,3.4801,3.4859,3.4859,3.478,3.481,3.5206,3.5083,3.5039,3.5631,3.549,3.5341,3.5682,3.5954,3.6267,3.6779,3.6856,3.7032,3.7538,3.7416,3.7366,3.7689,3.6513,3.5695,3.5704,3.4333,3.3287,3.2928,3.2578,3.2244,3.1936,3.1028,3.0229,2.9568,2.8357,2.7674,2.7566,2.5657,2.4362,2.3724,2.206,2.1002,2.0533,2.0455,2.0182,1.9671,1.7973,1.7189,1.6879,1.5259,1.4605,1.4605,1.4605,1.423,1.3528,1.2191,1.1273,1.0539,0.9155,0.8703,0.8703,0.8703,0.8703,0.847,0.7157,0.623,0.5297,0.3912,0.2938,0.2353,0.2353,0.2276,0.2199,0.2314,0.2275,0.2196,0.2196,0.149,0.051,-0.0666,-0.1607,-0.2588,-0.3882,-0.4118,-0.4235,-0.4623,-0.4701,-0.4779,-0.4976,-0.5093,-0.5168,-0.5282,-0.5476,-0.6012,-0.7126,-0.8003,-0.9107,-1.0475,-1.0887,-1.1149,-1.1223,-1.1149,-1.1037,-1.0925,-1.1083,-1.1241,-1.1427,-1.1658,-1.1801,-1.1818,-1.159,-1.1424,3.4634,3.4655,3.4737,3.4768,3.477,3.4977,3.5728,3.5968,3.6145,3.657,3.6729,3.6762,3.6642,3.6755,3.713,3.7963,3.7341,3.699,3.7632,3.7843,3.7937,3.7978,3.6907,3.5925,3.5298,3.3911,3.3016,3.2924,3.2648,3.2453,3.2425,3.1216,3.025,2.9624,2.8256,2.7437,2.7175,2.5186,2.3808,2.3098,2.157,2.0599,2.0118,1.9976,1.9835,1.9572,1.8007,1.7189,1.6828,1.5365,1.4705,1.4605,1.4605,1.4605,1.4346,1.2418,1.1675,1.1378,0.9372,0.8703,0.8703,0.8703,0.8665,0.8551,0.8059,0.6892,0.5297,0.3288,0.2588,0.247,0.247,0.247,0.247,0.247,0.2314,0.2196,0.2157,0.1293,0.0235,-0.0627,-0.1647,-0.2705,-0.3804,-0.4116,-0.4314,-0.4701,-0.474,-0.4818,-0.5015,-0.5207,-0.5321,-0.5398,-0.5705,-0.6209,-0.7015,-0.7974,-0.8889,-0.9728,-1.0625,-1.1223,-1.1446,-1.1298,-1.1186,-1.1186,-1.1417,-1.1486,-1.134,-1.1773,-1.1905,-1.1774,-1.1962,-1.196,3.4612,3.4495,3.4427,3.4602,3.5157,3.5747,3.5878,3.6307,3.6876,3.7588,3.7507,3.7366,3.7621,3.8097,3.8379,3.8139,3.749,3.6811,3.6151,3.5662,3.5761,3.6808,3.5819,3.5266,3.5795,3.4524,3.3507,3.3096,3.2924,3.2746,3.2578,3.1362,3.0327,2.9609,2.7811,2.6628,2.6129,2.473,2.3598,2.2684,2.1302,2.0466,2.0118,2.0074,1.9976,1.9802,1.8734,1.7804,1.6973,1.6026,1.5196,1.4605,1.4605,1.4533,1.4201,1.2382,1.1601,1.1193,0.9334,0.8703,0.8703,0.8703,0.8589,0.8284,0.7365,0.6742,0.596,0.4139,0.2937,0.2235,0.2235,0.2235,0.2235,0.2235,0.2235,0.2157,0.1963,0.1649,0.106,-0.0157,-0.1137,-0.2116,-0.329,-0.4114,-0.4701,-0.4937,-0.4937,-0.5015,-0.5243,-0.5282,-0.5437,-0.5783,-0.5864,-0.6057,-0.6412,-0.7365,-0.8275,-0.9079,-1.0545,-1.1446,-1.1632,-1.1632,-1.1595,-1.1595,-1.1639,-1.1784,-1.1959,-1.204,-1.2196,-1.2436,-1.2313,-1.2284,3.4612,3.4884,3.5154,3.51,3.5231,3.5595,3.6454,3.6796,3.7178,3.813,3.8221,3.809,3.7941,3.8113,3.8005,3.726,3.7698,3.7806,3.6917,3.6942,3.7098,3.7237,3.6474,3.5783,3.5394,3.4405,3.361,3.3123,3.2978,3.2698,3.2186,3.1292,3.0148,2.8731,2.7455,2.6371,2.5412,2.4587,2.3641,2.2592,2.1534,2.07,2.0118,2.0118,1.9976,1.9671,1.8432,1.7575,1.6879,1.5648,1.4919,1.4605,1.4605,1.4569,1.4274,1.2375,1.1236,1.0426,0.9155,0.8703,0.8703,0.8703,0.8551,0.8289,0.7714,0.7049,0.6192,0.4724,0.3715,0.2976,0.2469,0.2353,0.2353,0.2235,0.2119,0.2003,0.1768,0.1572,0.11,-0.0079,-0.102,-0.1998,-0.3173,-0.4112,-0.4779,-0.4976,-0.5093,-0.5207,-0.5282,-0.5476,-0.5705,-0.586,-0.6022,-0.6219,-0.6451,-0.7288,-0.8389,-0.9722,-1.0993,-1.1706,-1.1706,-1.1781,-1.1818,-1.1706,-1.1706,-1.1776,-1.1872,-1.2031,-1.2277,-1.26,-1.2492,-1.2493,3.4846,3.5338,3.585,3.6037,3.5884,3.598,3.7055,3.7384,3.7647,3.837,3.8606,3.86,3.8331,3.8308,3.8043,3.7202,3.7986,3.8403,3.7507,3.7953,3.813,3.7451,3.7006,3.6226,3.493,3.4333,3.3774,3.3203,3.2902,3.2493,3.1878,3.1074,2.9807,2.7976,2.7232,2.6273,2.5005,2.465,2.3842,2.2592,2.1877,2.1019,2.0118,2.0118,1.9911,1.9539,1.8398,1.755,1.6793,1.5613,1.4919,1.4605,1.4605,1.431,1.3709,1.2191,1.0795,0.9539,0.8932,0.8703,0.8703,0.8703,0.8513,0.8289,0.814,0.7476,0.6465,0.5154,0.4455,0.3832,0.2704,0.2431,0.2392,0.2235,0.2003,0.1768,0.165,0.1375,0.0943,0.0079,-0.0824,-0.1802,-0.2976,-0.3915,-0.4621,-0.4937,-0.5168,-0.5321,-0.5359,-0.567,-0.5941,-0.598,-0.618,-0.6412,-0.6637,-0.7629,-0.8841,-1.0288,-1.1446,-1.2003,-1.1855,-1.2003,-1.2003,-1.1855,-1.1855,-1.1855,-1.1855,-1.2049,-1.2273,-1.2561,-1.2628,-1.2698,3.5597,3.5677,3.5907,3.7441,3.7929,3.7916,3.7415,3.8066,3.8678,3.8368,3.8342,3.8542,3.9256,3.9643,3.9742,3.941,3.8529,3.7526,3.6533,3.6443,3.646,3.6408,3.6366,3.5949,3.4904,3.4761,3.4325,3.3346,3.2708,3.2236,3.1987,3.0654,2.9266,2.7947,2.7135,2.615,2.5005,2.4977,2.4163,2.2592,2.2094,2.123,2.0118,2.0118,1.9911,1.9605,1.9506,1.8476,1.6897,1.6793,1.5895,1.4605,1.4605,1.3491,1.1859,1.1527,1.0303,0.878,0.8737,0.8703,0.8703,0.8703,0.8441,0.8102,0.8102,0.7791,0.7092,0.5428,0.4963,0.4496,0.2704,0.2235,0.2235,0.2196,0.1923,0.1611,0.1611,0.1257,0.0864,0.0589,-0.0275,-0.1292,-0.2387,-0.3285,-0.4107,-0.4898,-0.5168,-0.5359,-0.5559,-0.5747,-0.598,-0.6261,-0.63,-0.6451,-0.6826,-0.8456,-0.9599,-0.9933,-1.1397,-1.2268,-1.2261,-1.2268,-1.2268,-1.2261,-1.2261,-1.2261,-1.2261,-1.2288,-1.2348,-1.2415,-1.2746,-1.2911,3.5653,3.5987,3.6363,3.7676,3.834,3.8493,3.7835,3.7893,3.8143,3.8275,3.8079,3.8161,3.9193,3.8598,3.8153,3.8752,3.7746,3.6734,3.6356,3.6301,3.6301,3.6301,3.6301,3.6028,3.5368,3.484,3.4144,3.3181,3.244,3.1717,3.0921,3.027,2.915,2.7461,2.7018,2.6242,2.5005,2.5005,2.4292,2.2907,2.2512,2.1565,2.0118,2.0118,1.9911,1.9572,1.9121,1.8162,1.6862,1.642,1.5586,1.4605,1.4497,1.3941,1.3047,1.1822,1.0907,1.0056,0.9041,0.8703,0.8665,0.8551,0.8327,0.8068,0.7953,0.7718,0.7134,0.5309,0.4885,0.4613,0.2821,0.2275,0.2157,0.2042,0.1806,0.1533,0.1218,0.1021,0.0786,0.0471,-0.0314,-0.1096,-0.1644,-0.2893,-0.391,-0.4224,-0.4968,-0.5518,-0.5598,-0.5909,-0.618,-0.63,-0.6528,-0.698,-0.7774,-0.9026,-1.0045,-1.0614,-1.17,-1.2305,-1.2305,-1.2305,-1.2305,-1.2305,-1.2305,-1.2305,-1.2305,-1.2305,-1.2421,-1.2644,-1.2831,-1.2999,3.5761,3.6185,3.6648,3.7964,3.8605,3.8726,3.8046,3.7859,3.7825,3.7894,3.8057,3.8381,3.9045,3.8293,3.7758,3.8312,3.7288,3.6402,3.6322,3.6301,3.6301,3.6301,3.6301,3.6028,3.5299,3.4726,3.3969,3.2912,3.2026,3.121,3.0441,2.9911,2.8885,2.7155,2.6964,2.6295,2.5005,2.5005,2.4423,2.3327,2.2937,2.1896,2.0237,2.014,1.9944,1.9671,1.9088,1.8128,1.6922,1.6376,1.5551,1.4605,1.4461,1.4129,1.3535,1.197,1.1093,1.0513,0.9155,0.8703,0.8665,0.8479,0.8255,0.8063,0.788,0.7642,0.7134,0.5309,0.4885,0.4613,0.286,0.2276,0.208,0.1925,0.169,0.1375,0.0982,0.0864,0.0707,0.0353,-0.0196,-0.0745,-0.1214,-0.2504,-0.3597,-0.3869,-0.4927,-0.5712,-0.5712,-0.6064,-0.63,-0.63,-0.6676,-0.728,-0.8228,-0.9291,-1.0233,-1.1037,-1.1855,-1.2305,-1.2305,-1.2305,-1.2342,-1.2378,-1.2378,-1.2415,-1.2489,-1.2489,-1.2597,-1.2838,-1.2919,-1.3101,3.5982,3.6302,3.6636,3.8456,3.891,3.8725,3.8047,3.8112,3.8064,3.7185,3.8331,3.9341,3.8886,3.9172,3.9237,3.8517,3.7444,3.6602,3.6343,3.6301,3.6301,3.6301,3.6301,3.5805,3.4532,3.4404,3.3866,3.2585,3.1446,3.08,3.08,2.9593,2.8352,2.7155,2.6964,2.6295,2.5033,2.5005,2.4593,2.38,2.3327,2.2224,2.0603,2.027,2.0042,1.99,1.9671,1.8667,1.7101,1.6957,1.6,1.4605,1.4461,1.3796,1.2792,1.1786,1.0757,0.9809,0.897,0.8703,0.8665,0.8479,0.8255,0.8063,0.7842,0.7642,0.7134,0.5467,0.5004,0.4574,0.2704,0.2042,0.1887,0.1887,0.1572,0.1218,0.0943,0.0746,0.055,0.0353,0.0118,-0.0275,-0.1137,-0.2113,-0.3091,-0.3951,-0.5121,-0.5902,-0.5902,-0.6141,-0.63,-0.63,-0.6676,-0.7246,-0.8046,-0.9216,-1.0239,-1.1037,-1.1855,-1.2298,-1.2305,-1.2305,-1.2378,-1.2599,-1.2599,-1.2709,-1.29,-1.29,-1.29,-1.2907,-1.2982,-1.3169,3.6117,3.6582,3.7098,3.8527,3.8649,3.8364,3.8167,3.8328,3.831,3.756,3.7829,3.8312,3.8779,3.8163,3.7818,3.8503,3.7543,3.6664,3.6602,3.6582,3.6582,3.6582,3.6079,3.5604,3.5203,3.4182,3.3265,3.2622,3.1688,3.0858,3.0201,2.9669,2.8896,2.7839,2.7236,2.652,2.5714,2.5231,2.4708,2.4134,2.3446,2.2421,2.1135,2.0667,2.0259,1.99,1.9671,1.8667,1.6998,1.5781,1.5018,1.4569,1.4317,1.4021,1.3535,1.1805,1.0993,1.055,0.9193,0.8589,0.8441,0.8255,0.8068,0.7838,0.7642,0.7561,0.7249,0.6163,0.5351,0.4533,0.3366,0.2354,0.169,0.169,0.1493,0.1178,0.0786,0.0628,0.051,0.0157,0.0039,-0.0079,-0.0353,-0.1723,-0.2895,-0.3129,-0.473,-0.598,-0.6141,-0.6374,-0.6563,-0.6714,-0.6945,-0.7484,-0.8432,-0.8846,-0.9642,-1.0999,-1.1335,-1.1706,-1.2268,-1.2305,-1.2378,-1.2599,-1.2599,-1.2636,-1.2673,-1.282,-1.282,-1.268,-1.2907,-1.3169,3.5762,3.6383,3.7172,3.8327,3.8417,3.8219,3.83,3.82,3.7964,3.7578,3.7542,3.7703,3.8092,3.7583,3.7291,3.7866,3.7271,3.6725,3.6702,3.6423,3.6214,3.6214,3.5553,3.4925,3.4613,3.3761,3.299,3.2454,3.1745,3.0991,3.0218,2.9892,2.9225,2.8149,2.7464,2.6768,2.6011,2.5453,2.4977,2.4565,2.3725,2.2877,2.2021,2.104,2.0388,1.9944,1.9088,1.8085,1.6879,1.5259,1.4605,1.4569,1.4317,1.4173,1.3869,1.1916,1.118,1.0887,0.9268,0.8551,0.8365,0.8178,0.7953,0.7765,0.7561,0.7484,0.7249,0.6047,0.5231,0.4416,0.3136,0.2199,0.1611,0.1611,0.1375,0.1061,0.0668,0.055,0.0393,0.0079,0.0,-0.0039,-0.0118,-0.1411,-0.2584,-0.2973,-0.4766,-0.6099,-0.6261,-0.6412,-0.6563,-0.6753,-0.6945,-0.748,-0.8504,-0.8661,-0.9263,-1.0539,-1.0919,-1.1335,-1.1929,-1.2268,-1.2526,-1.2709,-1.2783,-1.2863,-1.2973,-1.3083,-1.3083,-1.2973,-1.297,-1.3144,3.5229,3.6054,3.6997,3.7959,3.8209,3.8241,3.843,3.7897,3.7353,3.7391,3.7468,3.7469,3.7087,3.7301,3.7395,3.6911,3.6829,3.6771,3.6638,3.6013,3.5543,3.5434,3.4791,3.4059,3.331,3.3169,3.2857,3.2178,3.1712,3.1225,3.0645,3.0197,2.9419,2.8222,2.7765,2.7093,2.6119,2.5715,2.5369,2.4977,2.406,2.3416,2.3045,2.1408,2.0453,1.9976,1.8263,1.7267,1.6793,1.5338,1.4677,1.4569,1.4425,1.4245,1.3869,1.205,1.1248,1.0887,0.9268,0.8551,0.8327,0.814,0.7953,0.7723,0.7561,0.7484,0.7173,0.5661,0.496,0.43,0.2589,0.1847,0.1572,0.1533,0.1218,0.0825,0.0628,0.0432,0.0236,0.0039,0.0,-0.0079,-0.0275,-0.1176,-0.2271,-0.34,-0.504,-0.6222,-0.63,-0.63,-0.6412,-0.6602,-0.6791,-0.7322,-0.8228,-0.8466,-0.8927,-0.9744,-1.0464,-1.1031,-1.1409,-1.215,-1.2709,-1.2936,-1.3119,-1.3309,-1.3455,-1.3492,-1.3492,-1.3455,-1.3083,-1.3061,3.6325,3.6965,3.747,3.8052,3.8209,3.8225,3.8257,3.8021,3.781,3.7983,3.7667,3.7336,3.7259,3.7184,3.7089,3.6987,3.6968,3.672,3.6085,3.6069,3.5826,3.4985,3.4394,3.3916,3.3475,3.2914,3.2512,3.2354,3.2144,3.1657,3.0788,3.0547,2.9957,2.892,2.8295,2.76,2.6857,2.6213,2.5605,2.4977,2.406,2.3416,2.3058,2.1702,2.0646,1.9868,1.8744,1.7804,1.6973,1.5956,1.5169,1.4569,1.4274,1.4129,1.3876,1.1879,1.1149,1.0887,0.9268,0.8479,0.814,0.8106,0.7872,0.7561,0.7522,0.7484,0.7442,0.7057,0.577,0.4373,0.3986,0.2624,0.1296,0.11,0.0982,0.0786,0.0432,0.0314,0.0236,0.0039,0.0,-0.0079,-0.0275,-0.1176,-0.2546,-0.4377,-0.5004,-0.5515,-0.6222,-0.6451,-0.6602,-0.6826,-0.7022,-0.7292,-0.7668,-0.7748,-0.8089,-0.8927,-0.9112,-0.9868,-1.1335,-1.215,-1.2783,-1.3119,-1.32,-1.3229,-1.3273,-1.3419,-1.3419,-1.3273,-1.32,-1.3283,3.6344,3.6952,3.756,3.7792,3.8037,3.8209,3.8209,3.8124,3.8072,3.8171,3.781,3.7447,3.7447,3.7278,3.7143,3.7143,3.6749,3.6285,3.5845,3.531,3.4765,3.4197,3.36,3.3175,3.2985,3.2634,3.2406,3.2406,3.2336,3.1948,3.1145,3.0848,3.0314,2.9454,2.8701,2.7963,2.7297,2.6599,2.5906,2.5229,2.4147,2.3177,2.2402,2.1388,2.055,1.9835,1.8911,1.7983,1.7033,1.6167,1.5346,1.4569,1.4238,1.4093,1.3905,1.2254,1.1446,1.0925,0.9685,0.8746,0.8102,0.8102,0.7834,0.7484,0.7484,0.7484,0.7403,0.6976,0.5693,0.4295,0.3869,0.2546,0.1218,0.0825,0.0746,0.0668,0.0353,0.0236,0.0118,0.0039,0.0,-0.0079,-0.0393,-0.1412,-0.2547,-0.364,-0.4496,-0.516,-0.5631,-0.6138,-0.6563,-0.6865,-0.698,-0.7176,-0.7484,-0.7484,-0.7676,-0.8093,-0.8661,-0.9448,-1.0501,-1.1774,-1.2673,-1.3193,-1.3309,-1.3346,-1.3346,-1.3455,-1.3455,-1.3346,-1.3236,-1.3278,3.6344,3.6841,3.7487,3.7414,3.7739,3.8071,3.8071,3.814,3.8209,3.8209,3.7916,3.7649,3.7649,3.7484,3.7281,3.712,3.6423,3.5799,3.5443,3.4374,3.3547,3.3371,3.2843,3.2507,3.2491,3.2457,3.244,3.244,3.2405,3.2126,3.1454,3.1027,3.0502,2.9837,2.9028,2.8247,2.7515,2.6967,2.6285,2.5467,2.4205,2.298,2.1808,2.1051,2.0442,1.9966,1.9088,1.8085,1.7076,1.6306,1.5444,1.4569,1.4238,1.4093,1.3949,1.2739,1.1781,1.0962,1.018,0.9127,0.8102,0.8102,0.7834,0.7484,0.7484,0.7484,0.733,0.6591,0.5422,0.4217,0.3482,0.2273,0.1139,0.0707,0.0589,0.051,0.0275,0.0118,0.0,0.0,-0.0039,-0.0236,-0.0589,-0.1569,-0.2353,-0.247,-0.3834,-0.4885,-0.5004,-0.5825,-0.6525,-0.6865,-0.6942,-0.7096,-0.7484,-0.7484,-0.7484,-0.7484,-0.8428,-0.9183,-0.9599,-1.1025,-1.2224,-1.3083,-1.3346,-1.3492,-1.3492,-1.3492,-1.3492,-1.3492,-1.3346,-1.3236,3.7608,3.7685,3.7432,3.7075,3.7283,3.7578,3.7578,3.7915,3.8209,3.8209,3.8021,3.7864,3.7864,3.7685,3.7272,3.6395,3.6291,3.5741,3.404,3.3982,3.3757,3.2836,3.2886,3.2959,3.2836,3.269,3.2573,3.2573,3.2456,3.2144,3.1603,3.1086,3.0506,2.9919,2.9325,2.8527,2.7515,2.7414,2.6733,2.5467,2.4205,2.316,2.2279,2.1494,2.0903,2.0474,1.9758,1.8677,1.7335,1.6932,1.5895,1.4569,1.4238,1.4093,1.3949,1.2739,1.1781,1.0962,1.018,0.9127,0.8102,0.8102,0.7834,0.7484,0.7484,0.7484,0.7446,0.7142,0.5774,0.4334,0.4027,0.2468,0.0904,0.0668,0.0471,0.0275,0.0079,0.0,0.0,0.0,-0.0275,-0.0589,-0.0825,-0.1178,-0.1689,-0.2393,-0.3485,-0.4419,-0.4927,-0.6051,-0.6826,-0.6903,-0.7061,-0.7257,-0.7484,-0.7484,-0.7484,-0.7484,-0.7633,-0.8313,-0.9556,-0.982,-1.0832,-1.2636,-1.3229,-1.3492,-1.3492,-1.3492,-1.3492,-1.3492,-1.3455,-1.3455,3.7288,3.7209,3.696,3.656,3.6686,3.6983,3.7133,3.7209,3.7322,3.7595,3.7184,3.6881,3.7163,3.7058,3.6613,3.5633,3.5173,3.4623,3.3635,3.3402,3.3125,3.2658,3.2736,3.2832,3.2882,3.2721,3.2606,3.2606,3.2473,3.2196,3.1728,3.124,3.0747,3.0251,2.9416,2.8654,2.7947,2.7424,2.6441,2.5033,2.4089,2.328,2.2641,2.1651,2.0967,2.0571,1.99,1.8744,1.737,1.7035,1.5991,1.4569,1.4238,1.4093,1.4021,1.3266,1.2187,1.1037,1.07,0.9496,0.8102,0.8102,0.7834,0.7484,0.7484,0.7484,0.7446,0.7257,0.5851,0.4373,0.4144,0.2507,0.0864,0.0628,0.0432,0.0236,0.0039,0.0,-0.0039,-0.0157,-0.051,-0.0786,-0.0904,-0.1139,-0.1414,-0.1766,-0.2821,-0.3756,-0.4419,-0.5583,-0.6518,-0.7022,-0.7142,-0.7296,-0.7484,-0.7484,-0.7484,-0.7484,-0.7714,-0.8097,-0.8737,-0.9528,-1.0357,-1.1223,-1.2415,-1.3156,-1.3492,-1.3492,-1.3492,-1.3492,-1.3492,-1.3492,3.6941,3.6825,3.6724,3.6207,3.6336,3.6568,3.6623,3.6429,3.6315,3.668,3.614,3.5668,3.5828,3.6005,3.5811,3.4924,3.4268,3.3756,3.3389,3.2961,3.2688,3.2719,3.2737,3.2802,3.3011,3.285,3.2737,3.2737,3.2489,3.2214,3.1911,3.1298,3.0845,3.0514,2.9461,2.8701,2.8288,2.7272,2.6162,2.4992,2.4121,2.3429,2.2927,2.1757,2.0967,2.0571,1.9966,1.8811,1.737,1.7095,1.6026,1.4569,1.4238,1.4093,1.4057,1.3637,1.2489,1.1074,1.1031,0.9755,0.8102,0.803,0.7757,0.7446,0.7484,0.7442,0.733,0.718,0.5774,0.4258,0.3988,0.239,0.0786,0.0589,0.0353,0.0157,-0.0039,-0.0079,-0.0157,-0.0393,-0.0707,-0.0904,-0.0982,-0.1178,-0.1296,-0.1296,-0.2273,-0.3209,-0.3756,-0.4927,-0.6015,-0.6868,-0.6988,-0.718,-0.7484,-0.7484,-0.7484,-0.7484,-0.7791,-0.7987,-0.8102,-0.9198,-0.9954,-1.0218,-1.1484,-1.2526,-1.3273,-1.3419,-1.3492,-1.3492,-1.3492,-1.3492,3.7169,3.717,3.6997,3.6287,3.6399,3.6565,3.6062,3.5707,3.5455,3.5492,3.5163,3.4588,3.3722,3.4535,3.5095,3.4274,3.4114,3.381,3.3029,3.2902,3.293,3.3055,3.307,3.3147,3.3349,3.3196,3.307,3.307,3.2538,3.2197,3.2179,3.1186,3.0625,3.0605,2.9489,2.8701,2.8288,2.699,2.6163,2.5839,2.4582,2.3669,2.3058,2.1765,2.0967,2.0571,2.0096,1.8944,1.737,1.7179,1.6114,1.4569,1.4238,1.4093,1.4057,1.3637,1.2489,1.1068,1.087,0.9636,0.8063,0.7876,0.7531,0.7257,0.7446,0.7249,0.6942,0.6903,0.558,0.4027,0.3556,0.2035,0.055,0.0353,0.0157,-0.0039,-0.0236,-0.0275,-0.0393,-0.0786,-0.0904,-0.0982,-0.1218,-0.1296,-0.1296,-0.1296,-0.2156,-0.2896,-0.3132,-0.4263,-0.5351,-0.6163,-0.6479,-0.6868,-0.7446,-0.7484,-0.7484,-0.7484,-0.7522,-0.7714,-0.8102,-0.8556,-0.9231,-1.018,-1.0663,-1.1484,-1.2636,-1.3229,-1.3492,-1.3492,-1.3492,-1.3492,3.6603,3.6563,3.6339,3.5429,3.5185,3.5006,3.4367,3.3947,3.3757,3.4049,3.3548,3.3027,3.2902,3.3687,3.4037,3.3156,3.3182,3.3189,3.2774,3.2882,3.3039,3.3086,3.3101,3.318,3.3378,3.3226,3.3101,3.3101,3.2703,3.2301,3.1895,3.1432,3.0982,3.0555,2.9483,2.8431,2.7473,2.668,2.6163,2.5893,2.461,2.3669,2.3058,2.1765,2.0967,2.0571,2.0096,1.8944,1.737,1.7179,1.6114,1.4569,1.4353,1.4201,1.4057,1.3783,1.2936,1.1781,1.105,0.9965,0.8737,0.803,0.7531,0.7223,0.7296,0.7099,0.6865,0.6753,0.5351,0.383,0.3478,0.1918,0.0353,0.0157,-0.0039,-0.0236,-0.0432,-0.0589,-0.0707,-0.0707,-0.0943,-0.1178,-0.1296,-0.1296,-0.1296,-0.1296,-0.204,-0.2782,-0.3251,-0.4187,-0.5085,-0.5738,-0.5896,-0.6209,-0.6868,-0.6907,-0.7099,-0.7484,-0.7484,-0.7676,-0.8063,-0.8475,-0.9008,-0.9625,-1.04,-1.1186,-1.2003,-1.2636,-1.2936,-1.2936,-1.3309,-1.3492,3.6025,3.5997,3.5762,3.4816,3.44,3.4028,3.3414,3.2794,3.242,3.2727,3.2223,3.18,3.2024,3.2583,3.288,3.2424,3.2558,3.2739,3.277,3.2914,3.307,3.3196,3.3211,3.3256,3.3396,3.3271,3.3147,3.3006,3.2653,3.2179,3.164,3.1372,3.0841,2.9984,2.9058,2.8067,2.7003,2.6645,2.6285,2.5893,2.4894,2.3962,2.3058,2.1939,2.1115,2.0571,2.0161,1.8977,1.737,1.7179,1.6114,1.4569,1.4389,1.4209,1.4057,1.379,1.2936,1.1774,1.0975,0.9895,0.8775,0.7949,0.7411,0.7103,0.718,0.6949,0.6637,0.6247,0.5038,0.3675,0.3051,0.1567,0.0157,0.0039,-0.0196,-0.0432,-0.0471,-0.0707,-0.0904,-0.0825,-0.11,-0.1335,-0.1492,-0.1492,-0.1531,-0.1689,-0.2158,-0.2705,-0.3214,-0.3802,-0.4465,-0.5198,-0.5315,-0.5547,-0.6209,-0.6483,-0.6753,-0.7176,-0.7407,-0.7638,-0.7872,-0.8399,-0.8742,-0.8903,-0.9954,-1.0625,-1.0887,-1.204,-1.2599,-1.2599,-1.3229,-1.3492,0.0,0.0,0.0,3.4535,3.4135,3.3819,3.3263,3.2338,3.1581,3.1565,3.1254,3.0995,3.0995,3.1271,3.1635,3.2091,3.2301,3.2541,3.3008,3.2961,3.3011,3.3349,3.3378,3.3378,3.3396,3.3378,3.3208,3.2811,3.2367,3.188,3.1416,3.0942,3.0135,2.8928,2.8255,2.762,2.7003,2.6873,2.65,2.5893,2.5412,2.4454,2.3088,2.2249,2.142,2.0571,2.0237,1.9054,1.737,1.7179,1.6114,1.4569,1.4245,1.4093,1.4057,1.3637,1.2489,1.1068,1.064,0.9448,0.8063,0.7638,0.7211,0.6942,0.7142,0.676,0.6141,0.5464,0.4569,0.348,0.2194,0.0941,0.0,0.0,-0.0314,-0.055,-0.0353,-0.0628,-0.0982,-0.1257,-0.1296,-0.1414,-0.1843,-0.1882,-0.2038,-0.2431,-0.2511,-0.2668,-0.3062,-0.3102,-0.353,-0.4545,-0.4659,-0.4932,-0.5506,-0.617,-0.6563,-0.6602,-0.7138,-0.7484,-0.7522,-0.8284,-0.8513,-0.814,-0.9279,-0.9695,-0.9322,-1.1484,-1.2562,-1.2562,-1.32,-1.3499,3.4219,0.0,0.0,0.0,0.0,0.0,3.184,3.1348,3.1049,3.0845,3.0721,3.0651,3.0651,3.0915,3.1193,3.1312,3.1656,3.202,3.2403,3.2487,3.2653,3.3011,3.3119,3.315,3.3042,3.299,3.2878,3.267,3.2231,3.1787,3.1416,3.0543,2.9683,2.8928,2.8255,2.762,2.7003,2.6873,2.65,2.5893,2.5091,2.4124,2.3058,2.192,2.1063,2.0432,1.9944,1.8767,1.7179,1.7292,1.6228,1.4569,1.4389,1.4245,1.4057,1.3819,1.2973,1.1818,1.0826,0.982,0.8775,0.7638,0.7099,0.6865,0.6795,0.6567,0.6141,0.5315,0.4217,0.2852,0.1019,0.0157,-0.0236,-0.0236,-0.051,-0.0786,-0.0746,-0.0982,-0.1139,-0.1021,-0.1178,-0.1414,-0.1843,-0.1882,-0.2038,-0.2431,-0.2746,-0.2982,-0.3102,-0.3413,-0.3724,-0.3997,-0.4036,-0.4309,-0.489,-0.5126,-0.5631,-0.6525,-0.6756,-0.7176,-0.791,-0.8437,-0.8665,-0.8551,-0.9165,-0.9397,-0.9284,-1.0625,-1.1298,-1.1335,-1.2378,-1.3083,3.328,3.3265,3.3144,3.1958,0.0,0.0,3.0647,3.0456,3.0305,2.9837,2.9989,3.0156,2.9989,3.0246,3.0551,3.0651,3.0902,3.1281,3.1913,3.2056,3.2214,3.2487,3.2587,3.262,3.252,3.2486,3.2368,3.2127,3.1841,3.1452,3.0851,2.9935,2.9166,2.8583,2.7894,2.7372,2.7003,2.6738,2.6353,2.5893,2.5007,2.4137,2.3267,2.2032,2.121,2.069,2.0031,1.8767,1.7223,1.7257,1.6228,1.4605,1.4461,1.4281,1.4057,1.3783,1.2863,1.1663,1.0714,0.9669,0.8623,0.7565,0.7061,0.6865,0.6676,0.6451,0.6103,0.5237,0.383,0.2229,0.0549,-0.0039,-0.0196,-0.0275,-0.055,-0.0786,-0.0864,-0.11,-0.1257,-0.11,-0.1335,-0.1688,-0.2079,-0.2275,-0.2549,-0.2979,-0.3256,-0.3374,-0.3374,-0.3645,-0.3802,-0.3802,-0.3802,-0.3958,-0.4311,-0.4545,-0.501,-0.5747,-0.6293,-0.6872,-0.745,-0.8097,-0.8365,-0.8208,-0.8742,-0.9051,-0.9051,-0.9911,-1.0651,-1.1323,-1.2187,-1.2863,3.2546,3.2276,3.2066,3.095,3.0481,0.0,2.9843,2.9805,2.9639,2.8966,2.9332,2.9683,2.9332,2.9601,2.9941,3.0124,3.0189,3.0555,3.149,3.162,3.1695,3.1914,3.1967,3.1967,3.195,3.195,3.177,3.1414,3.1302,3.0854,2.9946,2.9212,2.8583,2.81,2.7372,2.6977,2.6977,2.6525,2.6136,2.5811,2.5021,2.4208,2.3429,2.2341,2.1557,2.1063,2.0226,1.8911,1.737,1.7145,1.6079,1.4569,1.4425,1.4245,1.4029,1.3637,1.2452,1.0993,1.0421,0.9258,0.7949,0.7373,0.7061,0.6865,0.6641,0.6451,0.6103,0.5082,0.3326,0.1529,0.051,0.0118,-0.0079,-0.0275,-0.0471,-0.0707,-0.0904,-0.1139,-0.1296,-0.1296,-0.1569,-0.196,-0.2353,-0.2746,-0.3139,-0.3645,-0.3724,-0.3724,-0.3802,-0.3765,-0.3724,-0.3802,-0.3765,-0.3724,-0.3802,-0.4311,-0.4659,-0.4776,-0.5864,-0.656,-0.6679,-0.7603,-0.791,-0.7522,-0.8246,-0.8627,-0.8585,-0.9372,-1.049,-1.1866,-1.2328,-1.2753,3.1539,3.155,3.1505,3.0172,3.0161,0.0,3.0156,3.0108,3.0022,2.9661,2.9705,2.9772,2.9705,3.007,3.0258,2.9919,3.0194,3.0593,3.1078,3.1137,3.1254,3.1543,3.1694,3.1712,3.1617,3.1564,3.1433,3.1252,3.0642,2.9995,2.9303,2.863,2.8158,2.7963,2.7321,2.6951,2.6846,2.6472,2.5987,2.5328,2.4511,2.361,2.2616,2.1733,2.1063,2.0529,1.99,1.87,1.7145,1.6991,1.5956,1.4425,1.4238,1.4029,1.3826,1.3419,1.2254,1.0789,1.034,0.9188,0.7761,0.7138,0.6942,0.6826,0.649,0.6338,0.5906,0.4023,0.2192,0.0746,0.0196,-0.0079,-0.0275,-0.051,-0.0707,-0.0904,-0.1178,-0.1257,-0.1296,-0.1296,-0.1375,-0.1531,-0.196,-0.2078,-0.2392,-0.3139,-0.3219,-0.3374,-0.3765,-0.3452,-0.3374,-0.3765,-0.3452,-0.3374,-0.3763,-0.3919,-0.4384,-0.5354,-0.5664,-0.6244,-0.7292,-0.7834,-0.791,-0.7522,-0.7983,-0.8059,-0.7748,-0.9787,-1.0881,-1.1031,-1.1781,-1.2415,3.1124,3.1076,3.0917,2.9539,2.9425,0.0,0.0,2.9373,2.935,2.8818,2.902,2.9312,2.9341,2.97,3.0065,3.022,3.0075,3.014,3.0692,3.0389,3.0293,3.0781,3.073,3.0734,3.0982,3.0965,3.0825,3.0514,2.9859,2.9196,2.863,2.8207,2.783,2.7458,2.7078,2.6779,2.6566,2.6258,2.5715,2.4922,2.3992,2.3148,2.2372,2.1356,2.0722,2.0346,1.9429,1.8321,1.7067,1.6541,1.5507,1.4245,1.4245,1.4072,1.3761,1.3346,1.2174,1.0746,1.0228,0.9074,0.7684,0.7099,0.6903,0.6826,0.6412,0.5983,0.5276,0.3591,0.219,0.1059,0.0236,-0.0157,-0.0353,-0.055,-0.0746,-0.0982,-0.1257,-0.1296,-0.1296,-0.1296,-0.1296,-0.1414,-0.1843,-0.2078,-0.2353,-0.2746,-0.2787,-0.2902,-0.3136,-0.2942,-0.2904,-0.3136,-0.3139,-0.318,-0.3413,-0.396,-0.4465,-0.4965,-0.5702,-0.6321,-0.6822,-0.748,-0.7714,-0.7522,-0.8097,-0.8097,-0.7522,-0.9938,-1.0881,-1.0501,-1.1105,-1.1892,3.0944,3.074,3.0454,2.9098,2.8771,2.8723,0.0,0.0,0.0,2.7974,2.8348,2.8818,2.8865,2.922,2.9671,3.0236,2.9837,2.9601,3.0108,2.9534,2.9348,3.0044,2.9711,2.9629,3.0199,3.03,3.0092,2.9528,2.9136,2.8622,2.7953,2.7805,2.7494,2.7003,2.6806,2.6566,2.6283,2.5865,2.5286,2.4553,2.3475,2.2695,2.2125,2.1071,2.0485,2.0237,1.9021,1.7983,1.7033,1.6167,1.5125,1.4129,1.4281,1.4109,1.3681,1.3119,1.199,1.0634,0.9927,0.8813,0.7646,0.7096,0.6865,0.6676,0.6215,0.5395,0.4455,0.3203,0.227,0.1333,0.0275,-0.0157,-0.0353,-0.055,-0.0746,-0.0982,-0.1257,-0.1296,-0.1296,-0.1296,-0.1296,-0.1414,-0.1726,-0.204,-0.2314,-0.2392,-0.2392,-0.2431,-0.2589,-0.255,-0.255,-0.2744,-0.2943,-0.3141,-0.3217,-0.4038,-0.4543,-0.4616,-0.5744,-0.6402,-0.6433,-0.7134,-0.7484,-0.7484,-0.8131,-0.8264,-0.7803,-0.9781,-1.0515,-1.0153,-1.0807,-1.1595,3.0698,3.0603,3.0303,2.8962,2.8708,2.8794,2.8747,0.0,2.8771,2.8676,0.0,2.8794,2.8818,0.0,0.0,2.9045,2.9335,2.9432,2.906,2.8756,2.8896,2.9728,2.9219,2.8966,2.9293,2.9563,2.93,2.8352,2.8654,2.8431,2.7372,2.7196,2.7067,2.7003,2.6592,2.6351,2.6283,2.5328,2.4582,2.4079,2.2985,2.2075,2.1316,2.0828,2.0345,1.99,1.8911,1.7983,1.7033,1.6167,1.5125,1.4093,1.4129,1.3884,1.3382,1.2268,1.1285,1.0378,0.9221,0.8284,0.7446,0.7057,0.6676,0.6219,0.5395,0.4416,0.3361,0.231,0.1294,0.0393,0.0079,-0.0157,-0.0353,-0.055,-0.0746,-0.0982,-0.1257,-0.1296,-0.1296,-0.1296,-0.1296,-0.1296,-0.1375,-0.1414,-0.157,-0.1921,-0.196,-0.2235,-0.2943,-0.2707,-0.2785,-0.3567,-0.3335,-0.3258,-0.3686,-0.3841,-0.4345,-0.5389,-0.5622,-0.6205,-0.7288,-0.7446,-0.7484,-0.7484,-0.7599,-0.806,-0.8934,-0.9203,-0.9527,-0.997,-1.1434,-1.2187,3.0661,3.0267,2.9774,2.8735,2.8268,2.8131,2.8493,2.858,2.858,2.858,0.0,0.0,0.0,0.0,0.0,0.0,2.912,2.9005,2.9136,2.8479,2.8439,2.9661,2.9212,2.8912,2.9173,2.9058,2.8693,2.8036,2.8076,2.7835,2.7119,2.7029,2.6884,2.6618,2.6404,2.6014,2.537,2.4922,2.415,2.3045,2.2421,2.1659,2.0839,2.0485,2.0096,1.9671,1.8398,1.7541,1.6879,1.5542,1.4633,1.4093,1.3964,1.3746,1.3382,1.2268,1.1285,1.034,0.9263,0.828,0.7442,0.7019,0.6637,0.6141,0.5279,0.4258,0.3205,0.2193,0.1138,0.0236,0.0039,-0.0236,-0.051,-0.0589,-0.0864,-0.1178,-0.1257,-0.1296,-0.1296,-0.1296,-0.1296,-0.1296,-0.1296,-0.1296,-0.1375,-0.1531,-0.157,-0.1765,-0.2314,-0.2275,-0.2392,-0.2979,-0.3061,-0.318,-0.3374,-0.396,-0.4621,-0.5395,-0.6131,-0.6826,-0.7484,-0.7484,-0.7571,-0.7682,-0.7682,-0.7926,-0.8465,-0.9466,-1.0089,-1.0343,-1.1363,-1.2099,3.0312,2.9841,2.9365,2.8587,2.8048,2.782,2.8235,2.8339,2.829,2.829,2.8226,0.0,0.0,0.0,2.8677,2.9141,0.0,2.8622,2.9012,2.8367,2.8301,2.9387,2.9082,2.8787,2.885,2.8614,2.8231,2.7715,2.7655,2.7382,2.6843,2.6817,2.6645,2.631,2.6014,2.5439,2.4568,2.4224,2.3463,2.2249,2.1784,2.1198,2.0571,2.0237,1.9813,1.9231,1.7959,1.706,1.6411,1.4982,1.4245,1.3992,1.3863,1.3535,1.3046,1.1959,1.0981,1.0002,0.8955,0.805,0.7288,0.6976,0.6637,0.6141,0.5279,0.4219,0.3125,0.2154,0.1098,0.0196,0.0039,-0.0314,-0.0589,-0.0589,-0.0943,-0.1296,-0.1296,-0.1296,-0.1296,-0.1296,-0.1296,-0.1296,-0.1296,-0.1296,-0.1296,-0.1296,-0.1296,-0.1492,-0.1999,-0.2078,-0.2273,-0.2784,-0.3098,-0.3295,-0.3295,-0.4155,-0.4971,-0.5631,-0.6676,-0.7334,-0.7484,-0.7571,-0.7661,-0.7796,-0.7845,-0.8077,-0.8458,-0.9968,-1.0863,-1.121,-1.1736,-1.228,2.9461,2.9406,2.924,2.8572,2.8299,2.8186,2.821,2.8103,2.8005,2.8005,2.802,2.8005,2.8029,2.8029,2.8029,2.8054,2.825,0.0,0.0,2.8429,2.8636,2.8818,2.8604,2.8323,2.8057,2.8198,2.7972,2.7199,2.7475,2.7282,2.6363,2.631,2.6324,2.6283,2.5287,2.4568,2.4229,2.3062,2.2279,2.192,2.104,2.0635,2.0571,2.0237,1.9528,1.8499,1.7711,1.6671,1.5498,1.4705,1.4181,1.379,1.3797,1.32,1.2187,1.0975,1.0045,0.9188,0.7974,0.7288,0.6903,0.6903,0.6637,0.6141,0.5279,0.41,0.293,0.2115,0.098,0.0,0.0,-0.0314,-0.0589,-0.0589,-0.0943,-0.1296,-0.1296,-0.1296,-0.1296,-0.1296,-0.1296,-0.1296,-0.1296,-0.1296,-0.1296,-0.1296,-0.1296,-0.1571,-0.2393,-0.247,-0.2824,-0.3684,-0.3763,-0.3763,-0.3763,-0.4348,-0.5243,-0.6486,-0.7138,-0.7484,-0.7484,-0.7694,-0.7792,-0.78,-0.7918,-0.8545,-0.9662,-1.0533,-1.1531,-1.2626,-1.3009,-1.3033,2.9112,2.8608,2.8164,2.7432,2.7251,2.7276,2.754,2.7885,2.8103,2.8005,2.793,2.7765,2.7342,2.7534,2.7625,2.7316,2.7675,2.8029,0.0,2.8152,2.825,2.8396,2.8677,2.8614,2.7925,2.76,2.7202,2.6628,2.6649,2.6517,2.6069,2.619,2.5987,2.5259,2.4908,2.4166,2.3032,2.2604,2.1939,2.104,2.0646,2.0356,2.0129,1.9868,1.9231,1.8273,1.7531,1.6558,1.5428,1.4553,1.4036,1.379,1.3645,1.2666,1.1279,1.0864,1.0115,0.9112,0.7936,0.7249,0.6903,0.6903,0.6637,0.6025,0.4652,0.3673,0.2813,0.1412,0.0549,-0.0039,-0.0157,-0.0393,-0.0628,-0.0786,-0.1061,-0.1296,-0.1296,-0.1296,-0.1296,-0.1296,-0.1296,-0.1296,-0.1296,-0.1296,-0.1296,-0.1296,-0.1531,-0.1883,-0.2431,-0.2746,-0.3139,-0.3724,-0.3802,-0.3958,-0.4348,-0.5359,-0.6135,-0.656,-0.7176,-0.7575,-0.7702,-0.7767,-0.791,-0.8147,-0.8166,-0.8454,-0.8987,-1.0477,-1.1417,-1.1794,-1.3159,-1.3527,2.8827,2.8152,2.7597,2.714,2.6814,2.6692,2.6979,2.7276,2.7494,2.7408,2.7331,2.7152,2.6759,2.689,2.6993,2.6864,2.7188,2.76,0.0,2.779,2.77,2.781,2.8247,2.8264,2.758,2.7104,2.6503,2.5741,2.593,2.5905,2.5508,2.5632,2.5398,2.4709,2.4179,2.3344,2.2249,2.1908,2.1282,2.0356,2.027,1.9933,1.9429,1.9539,1.8821,1.7404,1.7179,1.6315,1.4974,1.4338,1.3956,1.3645,1.3149,1.2137,1.0907,1.0752,0.9814,0.8542,0.7787,0.7249,0.6903,0.6903,0.6405,0.5631,0.4455,0.3439,0.2425,0.1294,0.051,-0.0039,-0.0157,-0.0393,-0.0628,-0.0746,-0.1061,-0.1296,-0.1296,-0.1296,-0.1296,-0.1296,-0.1296,-0.1296,-0.1296,-0.1296,-0.1296,-0.1296,-0.1648,-0.2038,-0.2431,-0.2865,-0.3295,-0.3763,-0.3802,-0.4114,-0.4968,-0.5783,-0.6444,-0.6907,-0.7351,-0.7673,-0.7796,-0.7922,-0.8065,-0.8187,-0.8321,-0.8418,-0.8514,-1.0385,-1.1284,-1.137,-1.3222,-1.3774]}]]